GFSSGP_850_thetae_000.txt.gz
Theta_e
310 309 313 317 317 316 317 319 329 330 331 335 335 335 334 335 336 340 342 340 338 336 337 337 337 337 336 336 336 336 335 335 334 332 329 326 323 320 319 319 317 316 316 313 308 306 306 308 312
309 315 316 317 317 318 320 326 331 332 332 333 333 335 337 339 341 342 341 338 337 336 337 337 337 337 336 336 335 334 334 332 329 326 323 320 318 317 317 316 314 316 315 308 308 308 307 308 309
311 316 317 315 315 316 324 325 326 329 330 332 332 332 333 338 340 341 339 336 337 337 337 336 336 336 334 331 329 330 328 326 324 322 320 318 316 315 315 313 314 316 311 308 309 309 309 309 309
315 317 316 315 315 315 326 324 329 332 332 332 331 330 334 338 339 339 339 335 333 334 335 333 334 331 328 327 326 325 323 321 321 318 317 316 315 315 312 313 315 313 309 308 308 308 308 308 308
318 317 313 314 314 325 325 326 328 327 333 331 330 330 332 339 338 339 338 339 332 330 330 329 325 322 323 325 325 322 320 318 317 316 315 314 315 313 310 311 311 308 308 308 308 307 308 309 308
316 315 314 314 324 324 321 327 327 333 330 329 329 330 332 339 339 339 336 328 324 320 320 319 319 319 319 319 319 318 317 316 314 312 313 314 312 310 310 309 309 310 310 310 311 311 311 310 308
315 313 315 318 327 323 320 324 324 328 332 332 329 327 330 337 338 335 328 315 315 316 316 316 315 316 315 316 315 314 313 311 310 311 312 311 316 314 314 315 315 316 315 314 315 313 312 311 311
316 313 316 319 324 319 317 321 326 329 328 331 330 328 327 330 331 330 329 317 317 316 315 315 316 313 309 310 310 309 309 308 309 310 316 319 317 317 317 316 316 316 315 316 315 314 312 312 312
317 313 314 316 318 317 316 317 321 326 330 329 328 328 328 327 328 327 325 325 321 323 323 322 319 319 315 309 309 310 314 314 315 317 319 317 318 316 317 316 315 315 314 314 315 316 315 314 313
315 312 314 314 316 314 315 316 319 322 327 329 331 329 326 325 325 324 325 329 328 328 328 324 319 319 320 323 322 321 320 320 317 319 316 316 317 317 317 314 313 313 314 315 316 317 316 316 316
314 313 313 313 317 316 314 315 319 319 322 330 330 327 326 324 324 323 325 329 329 329 329 327 318 317 322 323 325 325 325 323 324 322 317 318 319 316 315 314 314 314 315 316 316 316 316 316 316
314 313 315 315 315 314 313 316 315 319 321 326 329 330 327 326 323 322 324 327 329 330 328 328 318 319 323 323 326 325 327 325 326 324 321 316 318 317 314 315 315 315 315 316 316 315 315 317 315
312 313 315 316 317 315 315 314 314 317 319 326 329 330 329 326 325 324 322 323 327 328 327 328 318 324 324 326 327 326 327 326 325 325 323 316 314 315 318 318 318 318 318 318 318 319 319 318 317
315 314 314 315 317 317 315 315 317 316 320 329 330 330 329 327 326 326 324 323 325 327 329 330 322 321 322 327 328 328 327 324 323 321 321 321 320 320 321 319 317 317 316 315 316 317 317 316 315
315 312 313 314 317 317 317 317 315 317 318 329 330 330 329 328 327 326 327 324 324 327 328 330 328 322 325 326 326 327 325 322 321 321 321 321 321 322 322 320 318 314 312 312 312 312 312 313 316
315 313 313 315 316 318 316 314 315 316 317 324 329 330 329 328 328 328 327 327 324 326 329 329 329 326 326 325 325 325 322 321 321 322 321 321 321 321 318 317 315 314 313 312 312 312 313 314 314
312 313 315 317 316 316 316 317 315 316 316 317 318 320 324 327 327 328 328 327 326 326 328 330 330 328 326 323 323 323 323 321 321 319 318 319 318 317 314 312 312 312 312 312 311 311 311 311 311
314 316 314 315 316 317 314 316 315 316 317 320 320 322 324 324 325 326 326 326 324 327 331 330 329 329 325 325 323 323 323 321 318 316 315 314 313 312 312 312 312 311 310 310 310 309 309 309 308
316 316 315 316 316 316 315 315 315 320 321 321 321 323 323 322 323 324 324 325 325 330 329 328 326 324 324 323 322 322 320 316 313 312 311 312 312 312 312 311 311 310 309 308 308 308 308 307 304
318 319 318 317 317 315 316 315 316 319 319 320 321 323 323 322 322 323 324 324 325 326 325 322 321 323 322 320 319 317 315 312 312 312 312 312 312 311 308 309 309 307 307 306 305 305 305 304 302
319 318 319 319 318 313 317 316 317 316 317 318 320 321 320 321 321 320 320 321 319 320 321 319 318 318 318 316 314 312 312 312 312 311 309 308 307 307 307 307 306 305 303 302 302 302 301 299 299
322 320 319 319 317 314 315 317 317 317 317 317 319 320 319 319 319 318 318 318 318 316 315 314 314 313 313 313 312 312 311 311 310 309 307 307 306 307 307 306 304 301 299 299 298 297 297 297 298
321 320 320 320 318 318 318 317 317 317 317 315 316 319 318 318 318 318 317 317 316 316 315 314 314 312 312 312 311 311 311 310 309 308 307 306 306 306 304 301 299 297 296 296 297 298 299 299 300
319 321 319 319 318 319 321 320 318 318 317 317 316 318 318 318 318 318 317 317 317 316 315 315 314 314 314 313 312 311 311 309 308 306 305 304 303 303 302 300 297 298 298 297 297 298 298 298 298
317 320 323 321 318 319 322 322 321 318 317 317 317 317 318 318 318 317 317 317 316 316 315 315 315 314 313 312 311 310 309 307 306 304 304 305 302 301 301 299 299 299 298 295 297 297 296 297 296
319 318 318 323 318 321 318 321 318 316 318 319 319 319 319 318 317 317 317 316 315 314 315 315 314 314 313 313 312 309 306 304 304 305 305 304 302 300 300 300 299 297 294 296 294 292 291 291 290
320 315 316 317 314 316 317 318 316 315 315 317 317 317 317 316 316 315 315 315 314 314 313 313 312 312 311 309 307 307 305 305 305 303 302 301 301 301 301 300 296 293 292 293 291 290 289 288 288
315 316 319 313 317 316 316 319 319 317 316 313 313 314 316 315 315 314 313 312 311 311 310 309 308 307 307 305 304 303 303 304 303 303 302 301 301 301 300 298 293 292 291 290 289 289 288 288 288
318 318 317 315 312 314 313 315 314 317 314 313 313 314 314 313 312 311 310 310 309 308 307 305 304 303 300 300 300 299 300 302 303 302 300 300 300 299 299 294 293 290 290 289 289 289 288 288 288
317 318 315 311 319 310 309 313 314 312 313 314 314 313 313 312 311 310 309 308 307 305 304 303 302 301 299 298 297 299 302 302 302 301 300 300 299 295 295 293 292 290 289 289 288 288 288 288 288

GFSSGP_850_thetae_003.txt.gz
Theta_e
311 307 313 316 316 314 316 317 329 330 334 335 335 335 336 337 337 339 340 339 338 335 336 337 338 339 339 338 336 336 334 334 332 330 326 321 318 317 317 316 314 314 314 308 307 307 307 307 309
308 314 316 317 315 316 318 322 333 334 333 333 334 336 339 341 341 340 340 338 336 335 336 336 337 337 336 336 335 334 333 331 328 324 320 317 316 315 313 311 313 315 310 308 308 308 308 309 309
310 316 316 313 313 314 318 327 331 332 332 332 331 330 335 341 339 340 339 338 337 337 337 337 337 336 336 335 332 331 328 326 324 320 317 315 314 313 310 312 314 310 308 308 308 307 307 308 308
316 317 315 314 315 314 320 323 328 329 331 331 332 330 337 339 340 338 338 339 337 337 337 337 336 335 333 331 330 325 323 321 319 317 314 313 314 312 309 311 310 308 308 308 307 307 307 308 307
316 315 313 313 314 315 316 326 329 330 330 331 331 330 334 338 339 336 336 337 337 336 336 335 334 331 328 327 325 321 319 318 316 312 310 313 311 308 308 308 307 308 309 309 310 311 310 309 307
316 314 313 314 317 320 318 327 332 331 330 331 332 334 336 338 338 337 336 334 334 332 332 330 326 323 323 322 319 318 316 315 312 309 312 311 313 312 311 312 314 313 312 312 311 310 310 310 310
313 311 313 314 322 319 319 330 331 329 329 329 332 326 340 337 336 337 337 331 328 324 320 319 318 317 316 317 316 314 312 309 308 310 311 316 314 314 314 313 313 311 313 312 311 311 310 310 310
316 311 315 318 320 318 317 323 332 331 330 329 331 326 335 339 337 326 324 317 317 316 316 314 313 312 312 313 311 309 309 309 310 313 318 316 315 314 312 312 313 312 313 313 314 313 313 313 312
316 311 312 314 315 313 319 318 327 331 329 328 327 331 336 338 325 318 315 317 316 315 315 316 315 309 308 310 310 311 312 314 315 316 317 316 314 314 313 313 313 313 313 314 315 314 314 314 313
314 309 313 314 313 312 315 324 328 329 328 328 327 330 335 330 327 326 319 317 318 319 321 319 316 315 314 311 315 317 317 318 316 317 316 316 315 315 314 314 314 314 315 315 315 316 317 316 316
313 311 312 313 317 320 316 316 319 327 327 329 326 328 330 328 328 327 321 318 319 324 326 323 317 319 322 322 322 322 321 321 320 317 313 314 314 314 315 315 315 315 316 316 316 316 318 318 319
313 313 312 313 316 313 312 315 320 321 328 328 328 328 328 328 326 324 322 322 326 327 325 326 319 320 321 322 324 323 324 323 321 320 314 313 314 314 315 316 316 317 318 318 317 316 317 315 318
311 312 314 315 314 314 314 313 315 316 324 329 327 326 325 325 325 323 322 323 326 327 327 326 320 319 320 322 326 324 325 325 325 324 320 317 318 319 318 319 318 317 315 314 313 313 314 313 314
312 312 313 315 316 314 313 314 316 316 328 329 328 326 326 325 325 322 323 324 328 327 326 327 324 318 321 324 327 326 327 326 325 323 322 322 320 321 321 321 320 318 316 314 313 312 312 312 312
313 311 312 313 315 315 316 316 313 318 329 329 328 328 327 326 324 323 322 323 325 325 326 327 325 318 319 326 327 327 327 326 323 321 322 322 321 321 321 322 320 316 313 312 312 311 311 311 311
313 311 312 313 315 315 314 312 314 317 329 329 329 328 327 326 325 325 324 322 322 323 326 329 323 328 325 328 327 327 324 322 321 322 323 321 320 321 319 317 313 312 311 311 310 311 310 309 310
310 312 314 316 314 314 315 315 313 313 326 325 327 328 328 328 328 327 327 326 324 323 327 330 328 327 323 327 324 325 321 321 320 320 319 319 317 316 314 312 311 311 310 310 309 309 309 308 308
313 315 313 314 314 314 315 314 313 316 316 318 321 321 323 326 326 326 327 327 326 323 326 330 328 327 326 325 324 322 320 320 320 316 314 313 312 311 311 311 310 308 309 309 308 308 307 306 305
316 315 314 313 314 314 314 316 316 318 320 320 319 321 322 324 324 324 325 325 325 325 327 328 327 326 325 323 322 320 321 316 313 312 311 311 311 311 311 308 306 307 307 307 305 304 304 303 302
317 316 317 314 315 315 317 315 315 316 318 320 318 320 322 323 324 324 326 327 328 328 328 326 325 323 320 319 318 319 318 316 313 311 311 310 309 307 307 306 306 307 306 305 302 300 299 298 296
319 317 318 316 316 316 318 317 314 315 317 319 319 319 320 321 321 321 321 322 324 323 322 317 317 318 317 318 316 312 311 311 311 311 309 309 307 306 306 306 306 304 302 299 297 296 295 294 294
321 319 318 315 317 319 315 318 317 316 316 316 318 318 318 318 318 318 318 317 316 315 314 314 313 313 312 312 312 312 312 311 310 310 309 307 306 306 305 303 301 301 299 296 295 295 293 295 297
320 318 318 317 314 314 316 316 316 315 317 316 317 318 317 317 317 316 316 316 316 315 315 315 314 314 314 313 313 312 311 311 309 307 306 305 303 302 302 303 304 300 296 296 296 297 293 296 297
318 319 318 317 316 317 319 317 317 316 316 315 316 317 317 317 316 317 316 316 315 315 314 314 314 314 313 313 313 312 311 308 306 306 304 303 304 303 304 302 300 299 298 297 298 295 294 295 295
316 318 320 320 316 318 318 319 317 315 314 315 315 316 317 317 317 317 316 316 315 314 314 314 314 313 313 313 312 312 310 308 306 304 304 303 300 301 301 300 299 299 298 295 293 293 292 291 290
317 317 318 322 317 318 316 320 317 314 316 317 317 318 317 317 317 317 316 315 314 314 313 313 313 312 311 310 308 307 305 303 303 304 303 302 301 301 300 300 299 296 294 292 291 290 290 288 287
318 314 314 315 311 316 315 316 315 314 315 316 317 315 315 316 315 315 314 313 312 312 312 311 309 308 307 304 303 302 301 302 304 304 303 301 301 300 300 297 296 297 292 291 289 289 288 288 288
315 315 316 311 315 315 316 317 316 314 315 312 311 313 313 313 313 312 311 310 310 310 308 306 305 304 304 303 301 299 299 302 302 301 301 300 300 299 300 299 296 293 291 290 288 289 288 288 288
316 316 313 313 310 312 312 316 311 314 312 311 311 311 311 311 310 309 309 309 307 306 304 303 303 301 300 298 297 297 296 295 294 293 293 298 299 298 297 295 292 293 290 289 288 288 288 288 288
316 316 312 309 316 308 306 312 310 311 312 311 310 310 309 309 309 309 307 306 304 302 301 301 301 300 299 298 296 295 294 292 291 290 293 297 296 296 294 294 293 289 289 288 288 288 288 288 288

GFSSGP_850_thetae_006.txt.gz
Theta_e
313 308 314 315 311 313 316 316 323 329 334 335 336 337 339 339 338 339 339 338 338 338 337 339 339 339 339 339 336 335 333 332 331 327 321 317 316 315 312 311 314 313 308 308 308 308 308 309 309
309 310 315 317 312 314 313 316 333 334 334 332 333 334 337 339 339 339 340 339 338 338 339 339 340 340 339 336 335 333 333 330 325 320 317 314 314 311 311 313 312 309 308 308 307 307 307 308 308
308 314 315 310 310 313 314 328 333 332 331 331 331 331 333 337 340 339 339 339 337 337 338 338 338 337 335 335 333 331 329 324 320 317 314 313 312 309 311 310 309 308 308 307 307 307 307 307 307
312 316 313 311 313 314 318 327 332 331 329 330 330 333 333 337 338 339 338 337 337 337 337 337 337 335 335 333 330 325 322 320 317 314 311 313 309 308 308 308 307 307 308 309 310 310 310 308 307
315 314 309 311 313 313 314 326 329 330 330 328 326 331 333 339 339 337 338 338 337 338 337 337 336 335 332 328 324 321 319 317 314 309 312 310 308 309 308 311 312 312 311 310 310 310 310 310 310
316 312 311 312 314 318 320 328 331 330 330 330 331 333 336 339 337 336 338 338 337 337 336 335 334 329 325 324 320 318 316 314 310 311 310 312 312 312 312 312 311 311 310 309 310 310 309 309 309
312 308 312 314 320 319 318 331 330 329 330 331 333 328 339 337 336 335 337 337 335 334 332 329 327 324 322 319 317 315 313 311 310 311 314 313 313 313 313 311 311 311 311 312 312 311 311 311 311
315 308 315 319 319 322 315 329 329 329 330 331 330 335 338 338 338 336 334 333 332 329 326 321 318 316 315 315 314 310 309 309 311 314 317 315 315 314 313 312 312 312 313 313 314 314 314 314 312
314 310 312 318 322 322 319 321 329 329 329 328 328 334 333 334 337 335 331 328 324 319 315 314 312 311 312 312 309 309 309 311 315 317 316 315 314 314 313 313 313 313 314 315 316 316 317 316 317
312 310 312 312 315 323 324 323 327 329 328 326 328 334 335 334 325 325 321 317 316 314 315 316 312 308 309 309 311 312 315 314 316 317 316 315 314 314 313 314 314 314 315 316 316 316 316 316 316
312 312 310 316 317 320 319 318 324 328 327 327 332 337 338 333 323 316 316 316 315 317 319 317 316 314 311 314 317 316 318 316 318 315 316 316 315 313 314 314 314 315 315 315 314 313 313 313 313
313 312 312 317 319 315 318 316 326 324 326 327 326 330 336 327 323 322 321 317 317 322 323 321 316 318 321 320 321 321 320 320 320 318 313 313 315 315 316 316 316 315 314 314 313 312 312 312 312
312 311 312 313 314 314 316 316 322 317 327 327 329 330 330 328 326 325 322 318 320 325 325 325 320 317 321 324 325 324 325 324 323 323 319 318 318 318 319 319 319 319 316 313 313 312 312 311 312
314 311 311 313 312 312 312 313 315 315 327 327 328 328 328 327 326 326 323 322 323 326 327 326 326 319 324 325 326 326 326 326 325 325 322 322 320 320 320 321 321 318 316 314 312 311 310 311 311
311 311 311 312 314 312 315 314 313 320 328 327 327 328 328 328 327 325 324 323 323 325 327 328 328 323 326 326 326 326 325 326 326 325 325 322 322 321 321 321 319 316 313 311 311 310 310 309 309
311 309 310 312 314 313 312 310 309 325 327 325 324 323 324 324 325 325 324 324 326 328 328 329 329 326 325 324 324 321 323 324 324 323 322 322 320 320 318 318 318 313 311 310 308 309 309 308 308
309 311 313 315 313 314 312 314 313 317 327 324 325 325 325 325 325 324 323 323 323 324 328 329 329 327 324 322 323 322 323 322 323 322 321 319 317 315 313 312 311 310 307 307 307 308 308 307 306
311 312 312 314 313 312 313 316 315 316 323 320 322 325 325 326 326 326 327 326 326 324 322 328 328 327 326 325 324 320 317 317 318 318 315 313 312 311 311 310 307 307 306 306 307 307 306 305 304
313 313 313 312 312 315 315 315 314 318 317 317 318 321 322 324 324 325 325 325 325 325 326 326 326 326 325 322 318 317 318 319 319 312 312 311 309 308 307 307 307 307 306 306 305 304 302 301 300
315 314 314 314 314 315 316 314 312 314 316 317 319 322 324 325 326 326 327 328 329 328 325 322 321 321 319 319 318 318 315 311 311 311 311 309 309 308 307 307 306 305 303 302 301 300 297 295 294
318 315 316 315 316 315 316 317 314 315 317 318 319 322 322 321 322 323 324 324 322 319 317 315 313 313 313 313 312 313 312 311 311 310 309 309 308 307 306 305 303 302 303 303 302 298 296 296 295
319 317 315 316 317 320 314 320 316 316 317 316 317 319 319 319 319 319 319 316 315 314 313 313 313 313 313 313 313 313 313 312 311 310 309 307 306 305 304 303 303 303 302 300 298 297 296 296 293
319 315 315 314 313 314 316 317 315 316 318 316 316 317 317 317 317 316 315 314 314 314 314 314 314 314 314 313 313 312 312 311 310 308 307 305 304 303 300 299 301 300 300 299 298 298 297 293 292
316 317 316 315 315 316 316 316 315 315 316 316 316 317 316 316 315 315 315 315 314 314 314 314 314 314 313 313 312 311 309 308 306 304 304 304 302 301 300 300 301 300 299 296 294 293 292 291 290
316 317 318 319 315 318 317 317 315 314 313 316 316 317 316 316 315 315 315 316 314 314 314 314 313 313 312 311 310 308 306 303 302 303 303 303 302 301 300 300 301 299 296 294 293 292 289 289 288
316 316 317 320 316 318 316 319 317 313 315 317 317 317 316 316 315 315 314 315 314 314 313 312 311 310 309 308 306 304 303 301 301 302 301 300 299 299 300 299 300 299 297 298 292 290 288 288 288
316 314 313 314 311 315 314 316 315 313 313 315 316 315 315 314 314 314 313 313 313 312 311 309 308 306 305 303 303 300 298 297 296 295 294 293 293 293 298 299 299 297 297 292 292 289 288 288 288
316 313 314 310 315 315 315 316 316 315 315 313 312 313 313 312 313 312 311 311 311 311 309 307 304 303 301 300 299 298 296 295 294 293 292 291 290 296 299 297 297 295 294 292 289 288 287 288 288
315 315 312 311 309 311 311 314 311 313 314 311 311 313 313 312 311 310 310 310 310 309 308 307 302 301 300 299 297 295 294 293 292 291 290 289 291 297 297 296 296 293 292 289 288 287 288 288 288
315 315 309 307 312 307 305 310 309 308 311 312 311 311 311 310 308 309 309 308 306 304 302 302 301 300 298 297 295 295 294 293 291 290 290 289 291 296 296 294 294 293 289 288 288 287 288 287 287

GFSSGP_850_thetae_009.txt.gz
Theta_e
315 311 308 314 317 317 318 319 324 334 337 336 337 338 339 338 338 341 338 336 336 337 339 339 339 337 338 338 336 334 332 331 328 321 317 315 314 311 312 313 310 308 308 308 308 307 308 308 308
311 308 314 315 316 316 317 318 335 336 335 331 331 332 334 335 332 338 339 337 336 336 338 339 338 338 339 337 335 333 331 327 320 317 315 313 310 311 312 310 308 308 308 307 307 307 308 308 308
308 311 315 317 316 317 319 331 334 332 332 330 330 330 333 332 330 337 339 338 338 337 338 339 339 339 338 336 334 331 327 321 317 314 312 312 309 311 310 308 308 307 307 308 308 309 309 309 308
309 315 313 317 318 317 319 333 332 331 330 329 329 330 328 326 332 335 339 339 338 338 339 339 338 338 336 335 331 326 321 318 315 312 312 310 309 309 307 307 308 311 311 310 309 309 309 309 310
313 314 316 315 315 316 317 331 332 332 329 329 329 331 335 337 337 338 340 338 337 336 337 337 336 335 335 332 325 321 319 316 312 311 312 308 308 308 311 312 311 310 309 310 309 309 309 309 309
316 312 316 316 317 318 322 329 331 330 330 329 333 334 337 339 339 338 337 336 335 337 337 336 335 334 331 325 322 319 317 313 309 312 310 310 310 312 312 311 311 310 311 311 311 311 311 311 311
315 314 316 316 322 322 328 330 330 330 330 331 333 335 340 339 337 337 336 337 337 337 336 336 334 330 326 324 319 316 314 310 311 311 313 312 312 312 311 312 311 312 312 312 313 313 313 312 312
315 313 316 321 327 326 321 329 327 328 329 333 334 337 338 339 337 338 337 337 336 336 335 331 327 326 324 321 318 313 311 310 312 314 314 313 313 312 312 312 312 313 313 314 314 315 315 315 314
314 315 321 321 326 327 324 328 326 329 330 329 328 336 336 336 337 337 337 335 338 333 326 322 321 320 318 316 313 311 310 311 313 316 314 314 314 313 312 313 313 313 314 314 315 315 315 315 314
314 316 317 317 323 326 324 322 328 329 328 326 333 335 335 336 335 336 336 331 322 320 318 316 315 314 315 314 311 311 311 313 318 318 315 315 315 313 314 314 314 314 315 314 314 314 314 313 312
313 317 313 314 319 325 323 320 327 329 329 327 335 335 334 338 334 331 323 316 316 316 315 314 311 311 313 313 312 313 315 319 319 319 318 317 317 316 314 314 315 315 315 314 313 312 312 312 311
315 313 312 317 318 319 321 321 328 327 325 327 330 330 332 335 322 315 314 316 315 316 318 317 314 312 311 312 315 318 322 320 323 319 318 320 318 315 316 317 317 318 317 315 314 313 312 311 311
313 312 311 312 314 319 318 323 327 317 326 327 330 332 331 331 324 318 317 316 316 320 322 320 319 319 316 317 321 323 324 325 325 324 321 320 319 319 318 320 320 320 319 316 315 313 311 310 310
314 311 311 310 312 315 315 313 318 316 327 328 329 331 333 331 325 320 320 318 317 324 327 326 323 321 322 323 324 325 324 324 324 324 324 322 321 320 320 320 320 320 319 317 313 311 309 308 308
310 313 312 312 312 312 314 314 311 321 325 329 333 334 334 329 325 324 324 319 320 324 327 328 327 325 323 325 325 324 319 319 321 324 324 322 321 320 320 321 321 319 314 312 310 308 307 308 308
313 312 315 313 314 312 312 314 315 321 323 323 327 330 329 327 328 328 327 325 325 326 328 328 327 327 325 326 324 322 320 321 322 323 322 320 319 319 317 317 314 311 310 308 307 306 307 307 307
313 314 314 314 313 314 315 316 317 317 323 321 322 323 325 326 325 325 324 324 323 325 326 328 328 326 326 325 324 321 322 322 320 319 318 318 314 312 311 311 310 308 307 308 307 306 306 305 305
315 314 314 315 314 317 319 319 318 318 322 321 322 323 324 324 324 325 324 324 325 324 322 323 326 326 325 325 324 324 321 315 319 319 318 313 312 311 309 308 307 308 307 306 305 304 303 302 301
313 313 314 313 315 319 318 319 318 318 318 319 320 322 324 325 325 325 326 326 325 325 325 327 327 326 324 322 321 319 316 319 317 312 311 311 310 309 309 307 307 306 305 305 303 303 303 302 300
316 316 317 317 316 319 319 320 319 317 317 317 319 320 322 323 324 325 326 327 327 325 322 321 320 319 318 319 318 318 316 311 311 311 310 310 309 308 307 306 305 303 303 303 302 301 299 298 297
317 317 316 319 318 318 320 321 321 319 318 318 318 319 321 323 324 323 322 318 317 316 315 313 313 315 313 312 312 312 312 311 311 311 310 309 308 306 305 303 302 300 299 300 299 298 298 298 297
320 315 318 319 320 322 316 322 321 321 320 319 318 317 319 320 320 318 315 313 312 312 312 312 312 313 313 313 312 313 312 312 311 310 308 306 305 304 303 302 300 298 300 300 299 298 297 296 295
319 316 318 316 317 318 319 322 319 320 322 321 318 317 316 317 316 314 314 313 313 313 313 313 313 313 313 312 312 312 311 310 308 305 304 304 304 303 302 300 297 296 299 299 299 297 293 292 292
316 318 318 317 318 322 318 319 320 321 322 321 318 317 315 315 314 314 313 313 314 314 313 313 313 313 313 312 311 310 309 306 305 303 303 303 302 300 297 295 295 298 299 299 297 296 297 295 292
318 320 324 324 325 323 317 319 321 318 317 320 318 317 315 315 314 314 314 313 314 314 313 313 313 313 311 310 307 306 305 304 301 300 299 298 296 295 294 294 297 299 299 297 296 295 293 289 288
317 320 325 324 324 322 317 323 321 315 315 317 317 317 316 315 314 314 314 314 313 313 313 313 312 309 307 305 302 300 300 298 296 295 294 293 292 291 290 291 297 299 298 296 297 292 290 289 289
316 318 316 318 313 319 319 318 317 314 315 316 315 315 315 315 314 314 313 312 312 312 311 309 308 305 302 301 300 298 297 295 294 293 292 291 290 290 290 293 299 298 297 296 293 289 289 288 288
317 314 318 316 319 318 317 318 321 318 317 316 315 315 315 315 315 313 311 310 309 308 307 307 305 302 301 300 298 297 295 294 293 293 291 290 290 290 292 297 298 297 294 292 289 289 287 287 288
317 317 314 314 314 316 316 317 315 317 317 317 316 314 314 314 313 310 308 308 307 306 305 305 303 303 300 298 297 296 295 294 294 293 291 290 290 290 294 296 296 294 293 292 289 288 287 287 287
315 315 314 317 314 311 314 317 311 312 313 315 313 313 313 313 310 308 308 307 305 304 304 304 304 301 298 298 297 296 295 295 294 292 290 290 290 290 293 294 293 292 293 292 288 288 288 288 288

GFSSGP_850_thetae_012.txt.gz
Theta_e
314 312 309 316 321 323 325 325 331 340 340 338 339 339 339 338 341 343 341 341 340 339 340 338 336 335 335 336 336 334 332 330 327 322 317 315 312 311 313 310 308 308 308 307 307 308 308 308 308
315 310 312 318 320 324 324 322 329 339 334 332 331 333 334 333 338 340 339 339 340 339 339 338 338 336 337 337 335 333 331 328 321 317 314 311 311 312 310 308 308 308 307 307 308 308 309 309 309
311 309 318 320 320 323 321 326 336 334 332 330 329 330 332 331 334 336 336 337 338 340 340 338 338 337 337 336 334 332 329 322 317 314 312 309 311 310 308 308 307 308 310 310 310 310 309 309 309
311 314 317 319 322 320 323 333 334 333 331 331 328 328 328 327 327 332 337 333 338 338 339 338 337 337 337 334 332 329 323 318 314 312 312 309 310 308 307 308 311 310 309 309 309 309 309 309 310
312 317 320 321 321 319 320 333 333 332 330 330 330 331 330 334 329 330 337 336 339 338 338 338 338 337 335 333 330 324 321 316 312 313 311 309 308 308 311 311 310 310 311 311 310 310 311 311 310
316 318 320 322 322 323 322 331 334 331 328 330 331 332 333 338 337 338 338 339 336 337 337 337 336 335 333 330 324 322 319 315 311 313 310 309 309 313 312 311 310 311 311 312 312 312 312 312 313
318 319 321 320 325 328 328 332 332 328 330 330 333 335 339 339 339 339 339 338 337 337 337 336 335 333 331 327 324 321 318 312 312 313 311 310 313 313 312 311 312 312 312 313 314 314 314 314 313
317 318 320 324 328 333 332 327 325 324 329 332 334 336 340 339 338 338 337 337 337 337 337 335 334 331 328 326 323 319 316 312 314 314 313 314 314 312 312 312 312 313 314 315 315 315 315 314 313
316 318 321 327 331 329 328 326 326 328 330 332 331 336 337 337 338 338 338 337 337 336 335 334 332 332 331 332 322 317 315 313 314 317 316 316 323 321 319 313 313 314 314 315 315 315 314 313 318
318 320 321 326 329 327 326 325 327 330 332 330 336 338 340 340 339 338 338 336 336 334 334 331 329 327 326 329 325 319 319 324 325 326 321 325 320 320 316 315 314 314 315 315 314 313 313 319 319
319 320 322 326 325 324 324 324 325 331 332 330 336 339 340 338 340 338 338 337 335 337 332 329 322 321 325 328 326 324 324 323 323 321 322 325 322 325 325 323 322 321 317 320 318 319 319 315 314
319 318 318 323 326 326 325 323 329 329 327 329 336 338 337 336 337 335 333 331 331 332 329 317 314 316 323 324 323 319 324 324 327 325 320 322 324 326 324 323 322 319 320 317 317 318 315 314 313
318 318 316 315 321 325 324 328 329 324 329 333 335 337 336 334 333 331 329 329 329 328 330 321 317 318 314 316 319 321 324 323 324 323 321 317 319 319 322 322 321 320 320 318 317 317 316 314 313
318 316 315 315 319 319 324 324 325 322 331 333 335 335 335 334 332 329 328 326 327 328 330 321 319 318 315 319 321 324 325 324 322 324 324 323 320 319 321 321 320 318 318 317 315 314 311 312 311
315 316 316 315 319 319 320 318 320 322 328 333 333 334 335 333 331 328 326 325 325 328 331 326 323 321 321 322 323 322 322 320 319 320 321 322 322 320 321 320 320 316 315 312 311 310 311 311 310
316 317 318 317 318 315 316 317 320 323 327 332 332 332 332 329 328 327 326 326 324 327 331 328 328 326 323 324 324 322 320 319 320 321 322 321 320 319 318 315 312 311 309 308 310 309 309 309 308
316 316 317 316 318 318 318 317 320 325 327 328 330 330 329 327 327 327 327 326 326 328 331 328 328 328 326 324 323 322 321 321 322 319 319 319 316 312 311 310 308 307 308 308 308 307 306 306 306
316 316 316 316 320 318 318 322 321 326 327 327 327 328 328 327 326 325 325 324 324 329 330 326 326 327 326 325 325 323 322 318 318 319 316 312 311 310 308 309 308 307 307 307 306 306 305 305 304
318 318 317 319 321 322 322 322 322 323 327 327 327 327 327 327 325 326 325 325 325 325 324 324 327 327 325 324 321 320 318 318 318 313 312 311 310 308 308 307 307 306 306 306 305 304 304 303 303
318 318 320 319 320 323 323 324 322 322 324 326 327 327 327 326 326 327 328 329 330 329 328 326 325 323 323 321 319 319 319 317 311 311 311 310 309 308 307 307 306 305 305 304 304 302 301 300 301
320 320 322 321 321 322 323 324 324 322 322 322 324 325 326 326 327 328 328 328 326 325 324 323 321 320 319 317 315 313 312 311 311 310 309 308 307 306 305 305 304 303 303 301 302 301 301 300 300
322 320 321 322 322 321 322 322 325 324 324 324 323 325 325 326 326 324 322 322 320 319 319 318 317 314 312 312 313 313 314 314 311 308 307 306 305 304 304 304 301 300 300 300 301 299 299 298 298
322 321 323 322 323 323 322 323 326 325 326 326 324 324 324 322 320 318 318 317 315 313 313 313 312 312 312 312 312 312 311 309 307 307 306 306 306 305 304 302 301 300 300 300 300 299 297 297 297
320 322 322 322 323 324 323 323 323 327 326 326 324 322 321 320 317 315 314 314 313 313 312 312 312 312 312 312 311 309 306 305 305 304 303 301 299 298 297 297 300 300 299 300 298 297 297 296 295
322 323 323 323 324 324 322 323 322 323 323 325 325 321 319 318 316 315 314 314 313 313 312 311 311 311 311 308 305 302 301 299 299 297 296 296 295 295 295 295 297 299 299 298 298 296 296 294 293
323 323 322 322 324 321 322 322 322 321 321 323 323 320 319 318 317 316 315 314 313 311 310 310 310 307 305 302 301 300 298 297 296 295 294 295 294 294 294 296 297 298 298 297 296 296 295 293 292
321 322 322 324 321 324 322 323 322 320 320 321 322 320 318 318 317 316 314 312 311 310 310 308 306 304 302 301 299 298 297 296 294 294 295 294 294 294 295 297 298 298 297 296 297 295 294 292 291
321 319 322 323 324 321 320 321 320 322 321 321 322 320 319 318 317 315 313 311 310 310 307 307 303 303 306 302 298 298 297 296 295 294 294 292 292 293 294 296 297 298 296 296 295 293 292 291 290
320 320 318 320 321 317 316 316 321 321 322 321 321 320 319 318 317 314 312 311 309 306 306 305 305 305 301 298 298 297 297 296 295 295 294 293 291 293 293 295 296 296 296 294 293 293 291 290 290
320 320 318 318 318 319 321 317 317 319 319 320 320 319 319 318 316 313 310 309 307 305 303 302 303 301 299 298 297 297 297 296 295 295 294 293 293 293 293 293 294 294 294 293 293 293 290 290 290

GFSSGP_850_thetae_015.txt.gz
Theta_e
311 313 316 315 321 323 325 327 327 337 339 339 339 339 339 340 345 346 340 341 342 343 338 331 331 333 334 334 334 333 332 330 329 322 317 314 311 311 312 308 308 308 308 308 308 309 309 309 310
320 316 313 319 322 324 326 326 326 339 336 335 335 336 335 339 341 343 342 342 342 342 338 335 332 333 335 335 335 333 331 328 320 316 313 310 311 312 309 308 308 308 309 309 310 309 309 309 309
315 313 316 320 323 324 325 326 338 336 334 334 332 330 329 333 338 341 341 341 342 341 338 338 336 335 335 335 334 332 330 323 317 314 311 310 312 309 308 308 309 310 310 310 309 309 309 310 309
314 314 318 322 325 325 323 332 334 333 332 333 333 331 326 327 333 338 343 340 340 340 340 337 337 336 336 335 333 331 327 320 315 313 311 311 310 308 308 311 310 309 309 309 310 310 311 311 311
314 317 320 322 324 325 322 331 332 334 332 332 331 330 326 330 333 338 340 338 338 338 334 335 337 337 335 333 332 328 323 318 313 313 310 311 308 308 311 310 310 311 311 311 311 311 312 313 312
315 318 321 323 325 323 324 330 333 330 330 330 332 330 332 334 336 336 336 336 331 327 336 337 332 336 333 331 328 325 321 315 313 314 310 309 310 312 311 310 312 312 312 312 312 313 313 313 312
317 320 320 324 325 327 327 333 333 330 327 328 333 334 338 337 339 337 336 330 329 336 337 337 336 333 331 329 326 323 319 313 313 312 310 310 313 312 311 311 312 312 313 314 314 315 314 313 313
316 320 321 323 326 333 331 329 330 329 330 322 330 335 338 339 342 339 337 337 336 337 336 336 334 334 330 326 324 322 317 312 314 314 312 314 314 313 313 313 313 313 314 315 316 315 314 313 320
317 320 320 323 330 334 328 327 327 327 329 332 333 335 338 341 341 340 338 337 337 337 335 334 333 331 330 327 322 317 314 312 314 317 315 318 326 325 324 320 314 314 315 315 315 314 313 319 322
317 319 321 328 329 330 328 327 327 327 328 332 335 337 339 340 339 339 339 339 338 336 334 333 333 332 332 330 325 327 322 326 327 329 327 326 323 324 319 322 315 315 316 316 317 318 320 321 320
318 321 323 327 326 327 326 326 326 326 329 331 336 338 338 338 338 338 337 336 335 336 335 330 326 327 330 328 326 325 325 327 328 328 328 327 326 328 326 325 325 325 324 323 322 321 321 321 320
320 320 322 326 324 323 324 324 327 327 321 326 334 336 335 338 338 335 331 330 331 331 333 336 322 324 329 326 325 325 327 328 328 329 329 329 327 327 326 324 325 325 324 322 321 321 320 319 318
320 322 320 323 325 324 325 327 326 327 327 331 336 335 334 334 332 330 329 329 329 329 331 329 323 329 328 326 327 329 328 326 325 325 323 319 324 322 320 322 323 323 322 321 320 319 318 316 314
319 321 319 321 323 324 325 325 323 326 328 331 332 329 329 329 328 327 327 328 328 328 331 331 329 328 326 328 329 326 325 320 319 319 320 322 322 321 320 319 321 320 320 318 316 315 314 314 314
318 318 320 322 322 323 325 320 324 327 328 329 329 328 329 328 327 326 326 327 328 330 332 331 330 328 327 329 324 325 321 320 319 319 320 322 322 322 321 320 320 319 318 313 312 313 312 312 311
318 319 321 321 322 322 322 320 324 325 328 329 329 330 330 329 328 326 326 325 327 330 334 333 329 329 329 323 324 323 322 321 320 319 320 320 320 319 319 316 315 314 312 312 312 311 310 310 309
319 318 319 320 321 322 320 320 324 324 327 329 329 331 330 329 328 329 328 327 326 329 333 333 331 331 327 324 324 323 322 320 321 321 319 318 316 314 313 314 313 310 311 311 310 310 309 309 308
319 319 319 320 320 319 318 321 323 324 325 328 328 329 330 329 329 330 330 329 328 330 333 334 334 332 328 324 324 324 324 322 320 318 316 314 313 311 312 312 310 310 310 310 310 309 308 306 305
319 318 318 319 319 318 318 321 321 325 325 325 326 328 329 329 329 330 331 332 331 332 333 331 329 332 328 327 326 323 320 320 318 316 312 311 311 310 309 310 310 310 309 308 308 307 306 303 302
318 319 320 320 320 322 320 321 322 324 325 326 326 326 327 328 329 331 332 332 333 333 333 329 329 330 328 326 322 320 320 319 315 313 311 311 310 310 309 309 309 308 307 306 305 304 304 302 302
320 318 321 321 322 322 322 324 325 324 325 326 327 327 327 329 330 331 332 333 332 332 332 330 329 327 324 321 321 321 319 314 314 313 312 310 309 309 308 308 307 306 305 303 302 302 303 301 301
321 322 321 321 323 322 322 322 325 326 325 325 326 327 328 328 329 331 331 331 330 328 327 325 323 321 321 319 317 317 317 317 314 312 311 310 309 308 307 305 304 304 303 302 302 301 301 300 300
324 322 323 322 322 324 323 322 325 326 326 326 325 325 326 328 329 327 326 324 323 322 321 320 318 316 316 316 316 316 314 312 311 310 309 307 305 302 300 299 299 300 301 302 302 301 300 299 299
323 323 324 323 323 324 322 323 325 327 326 327 326 327 327 327 325 322 321 319 319 318 318 316 315 315 315 314 314 312 310 308 307 304 301 300 298 298 297 297 298 298 300 301 301 300 299 299 298
323 323 324 323 324 324 323 323 323 323 325 326 327 326 326 324 321 319 318 317 317 317 317 316 314 313 313 311 309 307 304 301 300 299 298 298 297 297 297 297 298 299 299 300 299 299 298 298 296
323 322 323 321 322 321 324 322 322 324 323 323 326 325 325 322 319 318 317 317 317 317 315 314 313 312 309 306 303 303 304 304 299 298 298 297 297 296 296 296 298 299 299 299 298 298 298 297 295
322 323 323 324 324 324 321 320 323 324 323 323 326 325 323 321 319 318 318 318 317 316 314 314 312 309 305 304 305 305 300 298 299 298 298 296 296 295 295 296 297 298 298 297 297 296 296 295 294
322 322 322 321 322 322 320 321 319 324 323 324 326 325 323 321 319 319 318 317 316 315 314 312 309 306 305 307 304 299 299 299 299 298 297 296 295 295 295 295 296 297 297 298 297 296 295 295 294
323 321 321 322 324 323 318 319 320 319 322 323 324 324 323 321 320 319 317 316 315 314 311 309 307 306 304 302 302 300 300 299 298 298 297 296 295 295 295 295 295 295 296 296 296 295 295 295 293
323 323 322 322 320 320 324 319 319 320 321 322 322 323 323 322 320 320 317 316 314 312 310 307 307 305 303 304 300 300 300 299 298 298 297 296 295 295 294 295 295 295 294 294 294 294 294 293 292

GFSSGP_850_thetae_018.txt.gz
Theta_e
309 310 316 318 317 322 323 324 325 333 341 339 338 338 341 342 346 346 342 343 342 338 329 330 332 332 333 333 332 332 331 330 328 322 316 312 311 312 308 308 308 308 308 309 309 309 309 309 309
311 320 320 316 318 322 323 325 332 339 338 336 336 336 337 342 343 342 343 343 341 337 329 331 333 333 334 333 333 332 330 328 320 315 312 310 312 309 308 308 308 310 310 310 309 309 310 310 310
319 319 314 317 320 323 324 327 332 337 335 334 332 333 331 338 342 341 342 343 341 337 332 331 332 333 334 334 333 331 329 321 316 313 309 312 310 308 308 309 310 310 310 310 310 311 312 313 313
316 315 315 319 321 323 324 329 335 335 332 334 333 332 329 332 338 341 341 341 340 338 336 331 333 334 335 334 332 330 324 318 313 311 310 311 308 308 310 310 310 310 310 311 311 313 313 313 313
317 315 316 318 321 323 325 332 334 332 330 332 332 328 328 333 336 341 339 340 340 338 336 333 334 335 335 333 331 327 320 315 312 311 309 309 308 311 310 310 311 311 312 312 313 313 313 312 312
315 316 318 319 321 324 327 332 332 330 329 331 331 329 333 334 337 338 338 338 337 335 330 334 334 334 333 331 329 325 319 313 312 311 309 308 312 311 310 311 312 312 312 313 314 314 313 313 316
317 318 318 321 322 326 334 332 331 329 331 331 331 332 332 335 338 334 333 332 333 326 326 329 325 334 331 330 326 322 316 310 312 310 309 312 312 311 311 312 312 313 314 314 314 314 313 315 320
316 318 319 320 321 332 330 331 329 328 328 329 326 327 336 338 335 333 330 329 329 328 330 332 333 332 329 326 322 319 313 311 312 311 312 313 313 313 317 315 313 313 314 315 314 314 314 320 322
316 317 319 321 327 328 327 329 328 330 330 326 326 331 339 339 336 333 332 326 326 328 332 333 333 330 326 323 320 316 312 313 316 314 321 326 326 326 326 325 313 314 314 315 317 319 320 321 321
317 318 320 329 329 326 326 327 327 328 332 333 329 326 339 340 338 336 336 331 330 330 333 331 329 329 330 322 322 316 325 327 329 323 327 328 325 324 321 323 324 325 322 323 323 322 321 321 321
318 318 320 326 326 326 327 327 325 325 328 331 331 337 339 337 338 335 334 334 332 331 330 330 330 331 330 324 324 325 326 325 324 322 329 327 325 328 326 326 325 325 324 324 322 322 321 320 319
318 318 320 325 326 327 328 327 325 322 323 325 332 336 337 337 337 337 334 335 335 335 333 331 328 329 327 325 326 326 326 329 329 326 326 329 327 328 326 325 325 324 323 322 321 321 320 319 317
318 321 321 325 324 326 325 326 326 324 325 327 332 334 335 336 332 330 329 331 333 332 322 319 324 330 326 326 325 328 327 325 321 320 323 325 326 325 324 320 320 319 322 320 319 319 318 316 313
319 321 321 323 325 325 326 324 327 326 326 332 333 332 332 331 328 329 328 329 329 332 330 321 330 326 327 326 328 324 323 319 319 318 320 319 319 321 320 321 320 320 320 320 317 313 313 313 312
320 320 320 322 323 326 324 327 325 327 328 330 328 329 328 328 327 326 328 328 328 331 331 330 328 324 328 325 323 324 321 321 321 319 319 318 319 321 322 322 320 320 319 313 312 312 312 311 310
319 320 320 321 322 323 325 322 323 328 327 327 327 327 327 326 326 326 327 328 329 331 331 331 329 327 329 325 324 324 321 321 320 319 320 320 320 319 318 316 316 315 310 312 312 310 310 310 309
319 318 320 322 322 323 322 321 323 327 327 328 328 328 328 327 326 326 326 326 329 333 333 331 330 329 329 325 324 324 322 321 321 322 320 317 315 313 313 314 313 311 310 310 310 310 310 308 307
318 319 320 320 320 322 320 321 323 324 327 328 328 328 329 329 329 329 328 327 327 332 335 332 330 331 329 324 324 324 324 324 321 319 317 315 313 311 311 312 311 311 310 310 309 308 307 306 305
320 319 320 320 321 320 319 321 322 323 325 327 328 329 329 329 329 330 330 329 328 332 335 333 331 329 329 325 326 326 322 320 319 317 314 312 311 311 310 310 311 310 309 308 307 305 304 303 303
319 320 319 319 318 319 318 320 320 323 324 326 327 328 329 329 331 331 332 332 332 333 335 333 331 327 327 327 326 321 321 320 318 315 312 312 311 311 310 309 309 308 307 305 303 303 302 303 303
319 320 321 320 319 317 322 320 321 322 324 324 325 326 327 329 330 331 333 333 333 333 333 331 328 327 326 325 322 321 321 319 315 314 312 312 311 309 308 308 306 304 304 303 302 301 302 302 302
321 322 321 321 322 321 322 323 323 324 323 324 325 326 326 328 330 331 333 334 332 331 330 329 329 328 324 322 321 320 317 316 315 313 312 311 310 309 306 303 302 301 300 300 301 302 302 301 301
322 322 322 322 320 324 323 324 325 325 325 325 326 327 327 328 329 331 332 332 332 331 330 327 324 323 321 318 318 318 316 314 313 311 309 307 305 303 299 298 298 296 295 297 300 301 301 301 299
323 323 323 321 322 328 324 324 326 325 324 326 325 326 327 328 329 331 330 329 327 326 323 322 319 317 317 317 317 316 313 311 309 309 305 306 299 298 298 297 295 295 297 298 300 301 300 300 299
321 321 323 328 329 328 323 323 327 324 325 327 327 326 327 329 329 328 325 323 323 322 320 317 316 316 316 315 315 314 311 306 310 310 303 299 297 297 296 296 295 295 297 299 300 300 299 297 298
324 320 326 328 328 326 324 324 322 326 325 323 326 327 328 328 326 324 321 320 319 319 318 316 316 315 313 311 309 307 309 311 307 301 297 296 296 295 295 295 293 295 298 299 298 297 297 296 296
319 322 322 323 325 327 321 320 323 324 323 322 327 327 327 326 323 321 319 319 319 318 317 316 315 313 310 306 305 309 310 303 299 297 296 296 295 294 295 294 294 295 297 298 296 298 296 296 295
321 321 324 323 323 323 320 320 324 324 323 323 326 327 326 325 322 320 319 319 318 318 316 315 314 311 307 306 308 309 306 301 298 297 298 296 295 294 295 295 295 295 295 297 298 297 296 296 295
322 321 321 320 327 331 328 320 320 320 322 323 324 327 325 324 322 320 319 319 319 317 316 315 313 308 306 306 308 306 301 300 299 299 298 297 296 295 295 295 295 295 295 295 295 293 295 294 294
322 324 321 332 324 329 330 322 320 320 319 321 322 324 325 324 322 321 320 319 318 317 316 314 310 307 306 305 306 302 301 300 299 299 298 297 297 296 295 295 295 295 295 295 295 294 294 293 293

GFSSGP_850_thetae_024.txt.gz
Theta_e
314 310 310 316 313 308 312 314 315 327 335 339 340 341 341 342 344 338 341 341 333 331 335 337 335 331 327 327 327 328 327 320 313 310 310 308 308 308 309 310 310 310 310 311 312 312 314 317 316
312 309 315 318 308 308 310 313 330 334 334 331 333 339 341 343 343 341 341 340 331 331 334 332 330 329 328 328 329 328 323 315 310 310 310 308 309 309 310 310 310 311 312 313 313 313 313 313 316
312 315 322 313 305 309 310 321 334 331 331 331 329 331 339 342 342 341 342 338 331 332 330 329 329 330 329 330 329 326 317 312 309 310 309 309 310 310 310 311 312 313 313 313 313 313 313 313 315
314 318 318 308 310 310 313 317 331 331 331 331 329 327 335 341 341 341 342 335 331 329 328 328 330 330 331 330 328 319 314 310 309 310 309 309 310 310 312 313 313 314 314 313 313 315 317 315 315
315 316 308 309 311 322 328 329 331 330 331 331 328 329 336 340 338 340 340 331 329 328 328 330 331 332 331 330 322 316 312 309 310 309 309 310 310 312 313 314 314 314 314 313 314 316 318 317 316
317 312 310 309 313 330 330 330 329 330 331 331 331 333 335 338 338 338 335 330 329 329 330 332 333 332 329 327 318 313 311 309 309 309 310 310 311 312 313 313 314 314 314 314 314 317 320 319 317
315 311 312 313 314 316 332 329 330 329 330 331 331 329 334 336 338 336 334 333 330 334 333 333 329 324 325 323 318 314 310 309 309 309 311 310 311 312 313 313 314 314 314 314 316 319 320 320 319
316 310 313 312 314 326 327 328 327 329 329 327 328 327 331 333 335 334 334 330 329 329 326 325 322 323 323 322 316 310 310 308 309 311 311 310 310 311 312 313 314 314 314 319 321 320 320 320 320
316 311 310 311 329 327 326 328 329 327 327 327 332 333 333 333 332 332 332 330 328 327 326 322 321 327 325 319 313 310 310 309 311 311 312 316 318 320 316 317 322 323 322 322 321 321 321 321 320
313 310 312 319 326 326 325 325 326 327 326 326 330 332 331 330 328 328 326 327 324 324 322 321 323 322 323 315 311 311 311 315 317 319 320 322 322 324 325 325 325 324 323 323 322 321 321 319 318
314 313 320 325 326 325 323 325 325 328 329 325 331 330 328 328 325 323 324 324 320 323 325 327 328 326 319 312 312 314 314 325 326 326 326 325 326 321 325 325 324 323 323 323 322 321 319 319 318
314 314 321 325 325 326 326 326 323 323 329 325 331 330 329 327 328 325 323 325 323 327 329 328 327 322 314 317 318 320 319 324 325 327 326 325 327 326 325 324 323 322 322 321 321 321 320 319 318
313 318 322 326 326 326 326 325 323 326 324 327 331 330 330 327 328 324 324 326 329 329 328 327 325 321 319 319 321 323 321 322 326 328 328 326 326 326 325 325 324 320 319 321 321 320 319 314 312
318 322 322 323 324 324 322 324 325 326 328 331 332 332 330 329 327 323 324 328 329 329 327 328 325 324 324 324 325 326 328 325 324 323 325 326 324 320 320 322 322 319 320 320 319 317 312 311 310
318 320 323 324 324 323 323 323 324 326 328 331 331 331 332 331 329 327 327 326 326 326 329 329 327 325 326 326 326 325 329 327 322 320 320 320 319 319 319 320 321 320 317 314 311 310 310 310 309
317 317 320 323 324 324 321 323 323 326 328 331 332 332 331 331 330 329 327 326 327 328 329 330 327 326 326 326 326 325 326 320 320 320 319 319 319 320 320 318 315 312 311 310 310 310 310 310 309
314 314 317 322 323 323 320 322 322 329 330 331 331 332 327 331 331 330 329 328 319 323 328 328 326 326 326 326 326 326 324 321 321 321 319 317 316 314 312 311 311 311 311 310 310 309 309 307 302
317 316 317 318 318 321 319 319 323 327 329 328 327 328 330 330 331 329 328 328 327 314 318 323 326 326 325 326 326 324 321 321 322 321 319 314 312 310 311 311 311 310 310 310 309 307 303 299 298
319 318 315 314 316 317 317 323 324 326 328 326 326 325 325 328 329 328 328 328 328 324 319 323 321 319 324 327 326 325 321 322 323 321 318 315 311 311 311 311 310 310 309 307 302 300 298 296 296
319 318 317 316 315 315 315 321 324 323 324 325 326 326 326 326 327 328 328 328 329 329 328 328 325 323 325 325 326 323 323 323 322 318 316 313 311 311 311 311 309 309 306 301 299 298 296 295 299
319 319 319 318 314 314 315 315 324 322 322 322 325 327 326 325 326 326 327 328 329 330 331 330 328 328 327 328 327 323 324 323 319 317 316 312 311 312 312 311 311 309 303 300 297 296 295 297 299
318 318 320 319 316 315 316 316 318 319 323 322 324 326 327 327 327 328 328 327 329 330 331 329 330 329 329 329 324 324 322 319 318 317 315 312 312 312 312 310 309 306 300 296 294 294 295 298 300
319 318 319 320 318 319 319 318 317 318 318 323 325 326 326 326 328 328 328 329 331 331 331 330 330 329 330 325 325 321 319 319 319 317 314 313 312 311 308 307 303 298 295 294 293 294 295 299 300
319 320 319 318 318 318 322 318 316 320 319 320 322 325 324 322 328 329 329 330 330 331 330 330 329 330 327 326 323 321 321 320 318 315 313 313 310 306 305 302 297 295 294 293 293 295 297 298 297
320 317 318 318 318 318 322 321 319 318 319 318 318 321 324 326 328 330 331 331 332 331 330 328 326 327 327 328 322 321 321 320 317 315 313 311 308 306 299 296 294 294 293 292 293 295 297 297 296
319 317 317 320 321 321 322 324 321 320 319 321 321 322 325 327 329 330 331 332 332 331 328 327 326 326 325 322 321 320 318 315 313 312 309 308 303 298 296 296 293 293 292 292 292 293 296 296 296
320 318 318 321 321 323 322 322 318 320 320 320 321 322 327 328 330 331 332 332 331 330 329 328 327 324 321 319 318 316 314 313 312 309 309 303 298 296 295 294 293 292 292 291 293 294 295 295 294
320 318 320 318 324 325 318 317 321 322 322 321 321 321 327 330 330 331 332 331 330 329 328 325 324 324 321 318 317 315 313 310 309 307 304 300 299 296 295 295 294 293 291 292 294 293 294 294 294
319 318 317 318 315 318 319 316 313 319 319 319 319 322 324 329 330 330 330 328 328 327 326 324 324 322 321 317 316 315 312 309 309 309 301 299 299 299 296 295 295 295 292 293 295 295 293 293 293
319 318 317 314 316 313 313 316 315 314 316 318 322 322 322 328 328 328 327 326 325 324 322 320 320 318 317 316 315 314 311 308 309 305 300 300 299 298 295 296 296 296 293 293 295 295 294 293 292

GFSSGP_850_thetae_027.txt.gz
Theta_e
316 311 310 315 311 307 311 312 313 315 335 340 340 340 341 341 341 336 340 336 334 336 337 337 337 332 327 326 326 326 323 314 310 310 308 309 310 310 310 310 310 311 313 313 316 316 316 317 317
312 309 312 317 306 308 309 310 314 327 331 334 333 339 340 342 339 339 339 336 334 337 337 337 336 330 327 328 327 326 319 311 310 308 308 309 310 310 310 311 313 313 313 313 313 313 316 318 317
312 313 320 308 304 308 309 313 332 330 330 330 328 334 339 341 339 339 340 339 335 337 337 337 334 327 327 328 327 323 314 310 310 308 309 310 310 310 311 313 313 313 313 314 313 316 317 318 318
312 317 313 307 309 309 311 315 330 330 330 329 328 328 339 340 341 340 341 336 336 337 338 337 331 327 328 329 326 316 311 310 309 309 310 310 311 311 312 314 314 313 313 316 317 315 316 317 317
316 314 307 308 310 314 329 328 330 330 330 330 328 335 336 336 338 341 339 334 337 336 337 334 328 328 329 328 319 313 309 310 309 309 310 310 311 312 313 314 314 313 314 315 317 317 315 316 315
316 310 308 309 311 319 330 330 329 330 331 331 333 334 334 336 337 337 337 333 335 335 334 329 328 330 329 321 315 311 308 310 309 309 310 311 312 313 313 314 314 314 314 315 317 317 317 317 318
313 309 311 312 312 313 330 328 329 329 330 330 332 332 334 336 336 335 333 331 331 333 331 330 331 329 322 315 312 310 309 309 308 310 310 311 312 313 313 314 314 314 314 316 318 318 319 319 319
317 309 312 311 311 323 326 327 328 328 328 328 329 332 333 334 333 331 332 331 330 329 332 331 328 322 317 315 313 311 309 309 309 310 311 311 312 313 314 314 314 314 317 317 319 319 320 320 320
315 309 310 311 321 325 326 326 327 326 327 331 331 332 332 334 333 331 330 327 328 326 323 323 321 322 321 320 314 311 308 309 311 310 311 313 314 312 313 315 318 317 319 320 320 320 320 321 320
311 309 312 311 325 324 325 325 327 325 328 329 331 330 331 332 331 330 330 327 325 324 323 322 320 321 319 315 312 310 309 311 311 316 319 321 320 318 320 322 321 322 322 322 321 321 320 320 319
312 312 311 323 326 325 323 324 325 326 327 328 330 329 330 330 330 329 328 327 327 325 322 323 323 319 318 312 311 310 312 317 319 321 323 323 322 323 324 324 323 323 322 322 322 321 320 319 318
314 313 319 323 325 324 324 324 322 325 327 329 329 328 328 327 326 327 324 324 324 319 320 322 320 320 317 312 312 314 320 324 324 325 324 323 320 322 324 324 323 323 322 321 321 320 320 318 315
312 313 315 319 325 325 326 323 323 325 328 329 327 322 326 321 325 325 322 322 322 323 326 326 326 322 314 316 314 322 325 325 324 325 324 324 324 324 323 324 323 321 319 320 321 320 318 315 312
314 319 322 324 325 325 323 324 325 325 331 330 328 321 322 324 327 324 324 321 324 328 327 327 326 319 317 324 326 322 321 323 325 326 326 325 325 325 324 325 324 322 320 319 319 318 314 310 310
318 322 323 323 323 322 324 324 324 326 331 330 328 324 325 327 327 323 325 323 325 328 325 327 323 318 323 324 326 325 322 323 326 326 326 327 326 325 320 320 321 320 319 317 313 310 310 310 309
315 316 319 321 323 323 320 322 322 325 328 329 331 329 328 328 326 322 324 326 328 327 326 325 323 323 325 326 326 326 328 327 325 321 322 322 321 319 320 320 320 317 312 310 310 310 309 309 307
312 315 316 322 323 322 319 322 321 326 327 329 329 331 331 329 327 323 323 325 325 325 326 327 325 324 325 325 326 327 329 325 320 321 320 319 319 320 319 316 311 311 310 310 310 309 307 303 299
317 316 315 318 321 322 321 318 321 324 328 329 330 331 331 331 329 327 326 326 325 325 326 328 327 326 326 326 326 327 326 321 321 321 320 318 317 314 312 311 311 310 310 309 307 304 300 298 296
318 317 316 315 314 320 320 318 322 324 328 327 327 330 328 330 329 329 328 327 326 324 322 323 326 326 325 326 326 327 325 323 321 321 320 317 313 311 311 311 310 310 309 310 308 302 298 297 296
319 318 317 316 314 316 314 318 323 323 326 327 327 327 327 329 330 330 329 328 326 321 323 324 325 325 326 325 325 326 325 322 321 322 320 315 312 311 311 311 310 310 311 310 309 300 296 295 295
318 318 317 318 313 314 315 317 325 324 322 323 325 325 326 328 329 330 329 328 327 325 321 321 319 323 325 325 325 326 325 322 322 321 317 314 312 311 311 311 310 310 310 310 302 296 294 294 296
319 317 317 318 314 314 313 314 316 323 324 321 322 324 325 326 327 328 329 329 327 327 325 322 321 325 323 324 326 326 325 323 322 321 317 315 312 311 311 311 310 309 309 304 296 294 294 294 297
317 317 318 318 317 316 318 316 314 320 323 323 322 322 324 325 326 327 327 327 327 328 328 327 327 328 325 325 326 327 326 323 323 319 316 314 312 312 312 310 307 306 301 296 294 293 294 296 297
317 319 316 316 316 317 320 317 316 318 321 323 323 322 323 325 325 326 326 327 328 328 329 328 329 328 328 327 327 326 324 324 321 317 315 314 313 312 311 306 304 301 296 296 293 293 294 296 297
316 315 315 316 317 317 320 319 317 316 316 316 317 321 324 324 325 326 327 326 327 328 329 329 329 328 328 328 329 324 325 323 319 319 317 315 314 311 305 302 299 301 299 293 292 292 293 296 296
319 316 315 317 318 319 321 322 320 318 319 319 319 320 322 325 326 325 327 329 329 329 329 329 329 328 328 329 326 326 326 324 320 318 316 314 311 305 302 306 304 294 293 292 291 292 293 295 295
320 318 316 319 317 320 318 319 315 317 319 318 319 320 321 322 324 325 326 329 330 330 330 330 328 327 326 325 327 327 323 321 320 316 314 311 306 303 309 304 296 294 293 292 292 293 293 293 293
319 317 319 317 322 323 318 317 316 320 321 319 319 323 324 324 324 326 327 329 330 330 330 329 327 327 326 325 325 323 321 319 316 314 312 309 306 310 305 299 295 295 294 292 292 293 294 294 294
318 317 316 316 314 317 317 317 311 316 319 319 317 320 323 325 326 327 328 330 330 330 329 328 328 327 326 324 322 320 318 316 313 311 309 306 306 300 300 297 296 296 294 293 292 293 294 294 293
318 318 315 314 316 312 312 315 313 312 314 316 319 319 321 324 326 327 329 330 331 331 329 328 327 326 324 324 321 319 316 314 313 311 308 307 301 301 299 296 296 295 295 294 293 292 293 294 294

GFSSGP_850_thetae_030.txt.gz
Theta_e
314 311 310 315 311 306 310 311 311 313 336 336 339 340 338 339 337 336 338 338 338 336 337 337 335 330 325 324 324 323 318 311 310 307 308 309 310 310 310 311 312 315 316 317 316 316 316 318 321
311 308 315 315 307 308 307 309 318 327 330 330 331 339 340 341 337 336 337 337 337 338 337 337 335 329 325 325 325 322 314 310 309 308 309 310 310 310 311 313 313 313 313 314 315 316 316 316 317
311 316 318 306 303 307 308 310 330 330 329 329 329 336 338 339 339 336 336 336 342 338 337 337 334 327 325 326 326 319 311 310 308 309 310 310 310 311 313 313 313 313 313 313 313 314 316 316 316
312 319 311 307 308 308 309 311 325 329 329 328 329 330 338 337 341 337 338 338 338 338 337 337 334 326 326 327 324 314 310 309 308 309 310 310 311 313 313 313 314 315 315 315 315 315 315 315 314
316 314 307 307 308 309 321 328 328 329 329 329 330 335 335 336 338 340 339 338 338 336 337 337 333 325 327 327 318 310 310 308 308 309 310 310 311 313 313 313 314 316 317 316 316 315 315 315 315
314 309 306 308 310 311 327 329 328 329 330 331 333 333 334 335 334 338 338 338 338 337 336 335 331 327 329 320 314 309 309 308 309 310 310 311 312 313 313 313 314 315 316 318 318 317 317 318 317
312 307 309 311 312 313 327 328 328 328 328 327 331 333 333 335 335 335 337 337 337 335 335 332 329 329 324 314 310 310 308 308 310 310 310 311 312 313 313 313 314 315 316 317 318 319 319 319 319
316 307 311 310 310 315 324 327 328 327 325 329 329 333 333 331 334 332 334 334 335 334 333 330 330 324 316 311 310 309 308 309 310 310 311 312 313 313 314 314 314 315 316 317 318 319 320 320 320
314 308 308 311 314 320 325 325 326 325 329 331 331 332 331 331 331 331 330 329 328 329 330 328 322 315 314 311 310 308 308 309 310 310 312 312 313 314 314 314 315 316 316 317 320 320 320 320 319
310 308 310 310 314 324 324 325 326 327 329 330 330 332 332 331 330 328 326 325 324 323 321 318 317 318 317 314 316 314 309 310 310 311 312 312 312 313 314 317 317 318 320 321 321 321 320 319 318
310 311 310 313 320 324 322 324 325 325 326 329 329 331 329 328 328 326 325 325 324 323 322 320 319 319 319 315 312 308 310 311 311 312 318 314 312 317 318 320 322 322 322 322 321 321 320 319 318
313 312 313 318 324 324 323 323 323 324 326 329 329 330 329 326 330 327 326 324 324 323 319 316 318 318 316 313 311 309 312 311 319 322 321 321 321 321 323 323 323 323 322 322 321 320 320 318 316
311 312 315 316 324 325 324 323 325 327 328 326 329 328 326 328 328 328 327 326 324 318 321 321 319 318 317 313 312 312 316 319 322 322 322 321 321 322 324 324 323 322 321 320 320 320 318 315 311
314 314 320 323 324 325 323 323 326 328 328 327 327 326 320 325 324 324 324 320 319 320 321 319 318 321 317 313 312 314 320 324 323 325 324 324 325 324 324 324 323 322 321 319 319 317 313 310 309
317 321 321 322 322 322 324 323 324 328 327 323 323 320 320 322 325 323 322 319 321 322 323 324 325 323 315 315 314 323 325 326 326 325 325 325 325 325 325 324 323 322 319 318 313 310 310 309 308
315 316 317 322 323 322 320 323 323 330 329 326 323 323 322 323 324 325 322 322 324 326 326 326 325 320 316 322 324 322 323 324 325 324 324 325 326 326 324 319 319 319 316 310 310 310 309 307 302
311 314 315 322 322 321 320 320 322 329 330 329 327 325 323 324 326 326 324 322 323 326 325 326 324 319 317 324 326 327 326 324 325 324 321 322 322 321 319 320 319 312 310 310 310 308 303 300 298
316 316 315 317 322 322 321 319 320 324 327 329 330 329 327 327 327 325 323 324 324 327 328 326 323 321 322 325 326 326 327 327 325 320 320 319 319 320 319 316 311 310 310 309 307 304 301 298 296
317 317 316 314 315 322 321 319 321 322 325 327 328 329 330 330 327 325 322 323 326 327 326 326 325 323 324 325 325 326 325 325 321 320 320 319 318 317 314 311 310 310 309 307 306 302 298 296 296
318 318 317 316 312 318 318 319 320 321 325 327 328 329 330 330 330 328 324 324 325 322 324 325 326 325 325 325 325 325 326 324 322 321 320 317 314 312 311 311 310 309 308 307 305 301 298 296 295
317 318 317 317 313 312 315 317 323 322 323 326 327 328 330 329 329 329 328 327 327 326 321 324 325 326 327 326 326 326 326 324 322 320 319 317 313 311 310 310 310 308 307 304 301 299 299 296 295
318 317 315 317 313 313 313 315 314 322 323 321 324 326 328 330 328 328 328 329 327 328 326 323 321 321 324 325 325 326 326 325 323 321 319 316 314 312 311 310 309 307 306 301 300 304 299 295 294
317 316 317 317 315 316 317 315 314 319 324 324 323 324 326 326 328 328 328 328 328 327 326 323 324 323 324 324 325 326 326 325 323 320 318 316 314 313 311 310 308 305 307 308 312 310 296 293 294
317 317 314 314 314 316 318 316 315 315 322 325 324 325 327 325 325 326 327 328 328 327 328 326 324 325 324 323 325 326 326 324 322 321 318 316 315 313 310 308 306 305 309 311 311 296 293 292 293
316 314 314 315 317 317 318 319 317 315 314 317 320 323 325 326 323 325 325 326 327 327 328 329 325 326 326 324 325 326 325 325 323 323 320 318 315 314 311 309 308 307 309 310 298 293 292 292 293
317 315 314 316 316 316 318 319 317 317 317 318 318 318 318 322 324 323 325 325 326 326 326 328 327 326 325 326 327 326 327 325 323 323 321 318 318 315 312 309 306 309 311 301 296 293 292 292 293
318 317 314 317 315 318 316 316 313 315 317 317 319 318 317 319 321 323 324 326 325 325 325 326 327 328 327 327 327 326 327 325 325 324 321 318 316 313 311 305 307 310 304 297 294 292 292 293 293
318 315 318 315 321 322 316 316 314 315 318 319 318 320 320 320 321 323 324 325 326 326 327 327 328 329 328 327 326 327 327 325 324 322 321 319 315 312 306 306 306 300 298 294 293 294 293 294 294
316 317 314 315 313 316 315 315 311 313 315 317 316 319 321 322 323 322 323 324 325 325 327 329 329 329 327 327 326 325 325 322 322 321 320 318 314 308 303 303 300 296 295 295 298 294 292 293 294
315 316 314 315 316 311 311 314 312 309 310 314 315 319 319 320 322 324 325 325 326 327 328 329 329 328 326 326 326 324 321 322 321 319 317 314 310 304 302 300 297 296 295 298 296 293 293 293 293

GFSSGP_850_thetae_033.txt.gz
Theta_e
312 311 311 316 316 314 315 315 313 317 333 335 339 339 339 338 338 340 337 340 340 339 337 333 329 325 324 324 323 319 314 310 309 308 309 310 309 310 311 312 313 314 315 314 315 316 317 316 316
311 309 315 315 314 314 314 312 324 330 331 331 334 339 339 341 336 336 338 339 340 338 336 334 329 324 324 324 322 318 311 309 308 309 310 310 310 311 313 315 315 314 314 314 315 316 316 316 317
310 312 317 315 312 314 314 313 329 330 329 330 331 336 339 337 337 335 336 338 340 338 337 335 328 324 325 324 321 313 309 308 308 309 310 310 311 313 313 313 313 313 313 314 315 315 316 315 315
313 319 311 314 314 312 312 314 328 328 329 328 332 337 335 337 339 336 337 338 338 337 337 335 330 324 325 325 318 311 309 307 309 309 310 311 313 313 313 313 314 314 314 314 315 315 314 314 315
315 313 314 311 311 311 313 328 329 330 329 330 332 334 334 333 339 338 338 337 338 337 337 336 331 325 326 323 314 310 308 308 309 309 310 312 313 313 314 315 316 315 315 315 315 315 315 315 316
314 309 313 312 312 312 316 329 329 330 330 331 334 333 334 335 337 339 338 337 338 337 336 335 329 326 327 318 311 309 308 308 309 309 311 313 313 314 316 316 317 316 317 316 316 317 318 318 317
315 314 314 313 314 314 325 328 328 329 329 329 332 333 332 334 337 336 338 337 337 336 335 332 329 328 326 313 310 308 308 309 310 310 311 313 313 313 314 316 317 318 318 318 318 319 319 319 319
315 313 314 313 313 314 325 326 327 326 327 329 331 333 331 333 335 336 336 336 336 336 334 333 328 328 319 313 311 308 308 310 310 310 312 313 313 313 313 314 315 317 318 319 319 319 320 320 319
313 315 314 313 313 319 325 326 325 326 330 330 330 331 330 331 333 333 333 333 333 334 331 330 328 322 314 312 309 308 310 310 310 311 312 313 313 314 314 314 314 316 319 320 320 320 320 319 318
314 314 314 313 313 323 324 325 325 329 330 329 329 330 330 330 330 329 328 329 328 329 327 326 321 315 311 311 308 309 310 310 310 311 312 313 314 314 314 314 315 318 321 321 321 320 320 319 319
311 316 313 314 313 323 323 324 325 328 328 330 330 329 330 330 328 326 324 322 323 322 319 316 312 311 311 309 311 311 310 310 311 312 312 313 314 314 315 317 320 321 322 322 321 320 320 319 317
314 313 313 316 322 323 323 323 325 325 327 328 331 329 328 328 327 325 323 322 320 319 318 315 316 316 317 317 318 312 311 311 311 312 313 312 313 315 319 322 323 322 322 322 320 320 320 319 318
313 314 313 314 321 324 323 324 326 327 328 330 329 328 327 327 326 325 324 323 321 319 318 319 318 318 317 313 311 309 311 311 311 317 317 317 319 322 323 323 323 322 322 320 320 319 319 317 312
313 314 320 321 324 324 327 327 326 327 328 329 329 327 327 327 327 326 326 324 319 320 319 318 318 317 315 313 312 311 312 315 320 322 322 322 323 322 323 323 323 322 321 320 319 318 313 310 309
317 321 322 323 323 323 323 324 329 328 327 328 328 325 325 325 324 324 325 320 317 317 317 317 317 317 316 315 313 311 317 319 323 324 323 324 324 324 324 324 323 322 321 319 317 310 310 309 307
316 317 319 321 323 322 320 325 328 328 326 326 326 325 322 325 321 321 321 319 319 320 319 318 319 322 320 314 314 313 318 324 325 325 324 324 325 325 325 325 322 319 319 315 310 310 309 305 301
315 317 317 322 323 322 321 323 327 328 327 326 326 320 323 322 324 322 320 318 319 320 320 320 323 324 319 314 315 319 323 324 326 324 323 323 323 325 325 322 319 319 314 310 310 309 307 303 299
318 318 318 320 323 323 322 321 326 329 328 327 327 326 323 322 324 325 322 320 321 323 325 326 326 324 317 318 323 323 324 325 324 324 322 321 321 321 320 319 319 314 310 310 309 308 303 298 296
317 318 318 318 316 323 324 322 324 328 329 329 329 329 328 324 324 326 326 322 321 323 325 326 326 324 320 318 324 325 326 325 325 324 320 320 319 319 319 318 314 311 310 309 309 305 297 296 297
318 319 319 317 314 320 318 321 321 324 327 327 328 329 328 328 328 327 326 324 323 323 323 326 326 324 320 319 323 325 325 326 326 323 320 320 319 318 317 314 311 310 310 308 306 301 301 302 300
318 319 318 318 314 314 317 319 323 323 324 325 326 328 328 328 327 328 327 324 322 323 324 326 326 326 323 322 324 325 325 326 325 321 320 319 318 316 314 311 311 310 308 306 302 308 311 304 305
320 317 316 317 316 317 315 319 315 323 325 324 326 326 328 328 329 328 328 326 324 323 324 324 324 324 326 325 324 324 325 325 325 322 321 319 317 313 312 311 310 309 307 305 308 310 310 308 296
320 317 318 317 316 319 319 318 319 320 325 327 326 325 327 328 329 329 328 328 327 326 325 323 322 324 326 324 325 324 323 324 324 322 320 317 315 313 311 310 310 310 308 308 312 310 302 306 295
316 318 315 316 318 321 319 320 321 319 323 325 325 326 326 327 328 328 329 328 328 328 328 327 327 325 325 325 323 323 325 325 325 323 321 318 316 313 312 311 310 310 309 308 310 311 308 295 297
317 318 321 318 322 322 319 320 321 319 317 319 322 324 325 326 327 328 327 327 327 328 328 328 328 326 325 322 323 326 326 326 326 324 323 320 317 316 316 313 311 311 307 309 310 306 297 296 293
319 319 322 319 320 318 319 322 319 318 317 316 316 317 318 322 325 327 327 327 326 326 327 329 328 326 322 323 324 326 326 326 325 325 324 321 320 318 314 311 309 307 306 308 298 299 295 295 295
318 320 316 320 318 323 320 319 318 315 317 319 319 318 318 318 318 319 324 326 325 325 326 326 328 328 325 325 325 325 326 325 325 325 324 322 320 317 312 311 309 306 307 304 305 295 296 299 297
318 317 322 320 322 323 320 319 320 318 318 319 320 320 320 320 319 319 320 322 322 323 325 325 326 326 327 327 327 326 326 325 325 325 323 322 321 315 312 311 306 305 303 299 297 296 301 296 293
319 320 317 318 319 322 321 320 317 318 316 319 318 317 319 320 321 321 321 322 323 324 325 325 325 325 327 327 328 326 325 325 324 323 323 321 318 314 312 309 303 303 304 301 296 300 298 293 293
316 319 319 323 319 316 318 320 316 316 314 313 316 315 317 319 321 322 322 323 323 324 324 325 326 327 327 323 323 323 323 323 322 320 320 320 319 314 310 304 302 300 297 295 299 298 296 294 293

GFSSGP_850_thetae_036.txt.gz
Theta_e
313 312 312 316 319 318 319 318 319 325 325 337 341 340 336 340 338 340 337 341 341 340 335 326 326 333 335 336 335 330 323 316 309 308 310 310 310 310 310 311 314 315 316 317 317 316 316 317 317
312 309 315 317 317 318 319 318 321 327 331 334 336 340 340 341 338 338 339 340 340 338 337 330 325 327 329 328 325 322 315 309 308 309 310 310 310 310 312 314 315 315 316 318 317 316 316 316 316
311 310 318 318 317 317 318 319 324 328 331 334 335 340 338 338 336 335 334 340 340 338 336 333 324 324 324 324 321 315 309 307 309 310 310 310 311 313 315 314 315 315 315 316 316 316 314 315 315
315 317 315 317 317 317 316 322 330 331 331 332 336 339 336 335 339 335 336 338 340 338 337 331 325 324 324 322 315 310 308 308 310 309 310 311 314 314 314 314 314 314 315 316 315 313 315 315 315
314 316 318 316 316 316 317 322 330 331 332 332 335 337 336 337 337 338 338 339 340 338 337 331 325 324 323 319 312 309 307 308 309 309 311 313 313 313 313 314 314 315 315 315 314 315 315 316 316
317 316 317 316 316 317 321 327 331 332 332 334 335 336 335 335 337 338 338 339 339 338 337 329 326 325 321 315 310 308 308 309 309 310 312 313 313 314 315 315 315 315 315 316 317 317 317 318 317
317 317 317 316 320 322 328 330 331 332 332 333 335 337 333 334 338 338 337 337 337 337 336 331 327 325 320 313 309 308 308 309 309 311 313 313 314 316 316 316 316 317 317 317 318 319 319 319 318
317 318 317 319 320 322 327 329 329 331 332 332 333 335 334 334 336 336 337 337 336 336 333 332 327 326 320 314 310 308 308 309 310 312 313 315 315 317 317 317 318 318 318 319 319 320 319 319 318
315 318 317 319 320 321 325 329 329 330 332 333 333 335 332 333 334 334 335 335 334 335 333 333 328 326 319 314 310 308 309 310 310 312 313 313 316 316 318 318 317 318 319 320 320 320 319 319 319
318 318 317 318 318 319 325 328 329 331 332 332 330 330 331 331 332 332 331 331 332 331 330 328 327 325 315 318 313 312 312 310 311 313 313 321 319 319 320 317 318 319 320 321 320 320 320 319 317
318 319 318 318 317 318 324 327 328 329 332 332 330 329 329 328 327 328 328 329 329 328 325 326 323 315 313 313 313 311 311 310 311 312 313 313 314 314 315 317 319 321 321 321 320 320 319 319 316
318 318 318 318 320 323 326 327 328 329 331 331 329 328 327 326 326 323 324 324 322 321 320 320 319 317 316 313 315 312 311 311 311 312 313 314 314 314 316 318 320 322 320 321 320 320 319 318 316
318 319 318 319 319 325 325 326 328 331 332 331 329 328 328 327 324 324 322 322 321 319 316 314 313 313 313 311 310 312 311 312 312 312 316 318 317 317 319 322 323 322 322 321 320 319 317 315 310
318 319 324 321 325 327 327 328 328 330 330 329 329 327 327 327 325 323 321 319 317 315 314 312 312 311 311 314 316 316 312 312 312 317 320 314 320 319 322 323 323 322 321 321 318 316 313 310 309
318 324 323 325 326 327 326 327 330 328 329 329 328 327 326 327 326 324 323 324 319 319 318 316 315 318 316 319 320 317 315 312 319 324 319 321 322 323 323 324 323 322 322 321 318 314 310 310 308
320 322 323 323 324 325 327 328 331 327 327 326 326 327 324 327 327 327 325 322 323 322 320 319 319 320 317 314 311 311 315 314 323 323 322 322 323 324 324 324 323 323 320 317 315 310 310 308 305
320 320 321 324 324 326 327 326 330 328 325 325 324 322 323 325 326 326 324 321 321 321 321 320 322 323 322 322 316 312 315 317 324 323 324 323 323 324 325 325 324 320 319 317 310 310 308 306 304
320 320 322 325 326 326 325 325 330 329 326 326 326 323 323 324 324 325 325 322 322 322 322 322 322 321 321 323 315 319 320 324 324 325 324 323 323 323 325 325 322 319 318 311 310 309 310 305 306
320 320 320 321 322 324 323 323 328 329 329 328 328 328 325 324 325 325 324 324 323 323 324 325 325 325 324 325 322 322 324 324 324 324 324 323 321 321 321 320 319 318 314 310 310 310 308 312 307
321 320 321 321 319 321 322 322 324 329 331 330 330 330 330 328 326 327 327 325 324 324 325 326 327 328 326 326 323 325 326 325 325 324 324 322 320 320 319 319 319 317 311 310 309 309 310 306 306
322 321 321 321 320 320 320 322 324 326 328 330 329 329 329 329 329 329 329 329 326 325 325 326 328 329 329 327 325 325 325 325 326 325 325 322 320 320 319 319 317 313 310 310 309 309 312 307 306
321 321 321 321 321 320 320 321 322 324 327 328 328 328 329 328 328 329 330 329 329 327 327 327 327 329 329 328 326 324 323 325 323 324 323 322 321 319 318 317 314 311 311 310 309 309 311 311 307
321 321 321 322 322 322 322 321 321 322 325 326 327 328 327 328 328 328 329 330 330 328 327 328 328 329 330 329 327 323 323 326 325 323 323 322 320 318 316 315 313 311 310 310 307 309 311 308 307
321 322 321 322 322 323 321 322 321 322 322 322 324 326 328 328 328 328 329 330 331 330 329 326 327 329 330 329 326 325 325 325 325 322 323 322 321 319 315 313 312 311 310 309 306 309 310 303 300
321 322 323 322 323 323 322 323 322 321 321 322 322 323 326 327 328 328 329 330 331 332 332 330 330 327 325 325 322 321 322 325 324 324 323 323 323 320 317 314 312 311 309 306 306 309 306 308 299
321 322 323 322 321 320 322 321 321 321 321 321 322 322 322 326 327 328 328 328 330 331 333 331 329 327 325 324 324 322 323 323 324 322 324 325 323 321 319 316 312 310 307 307 307 306 306 301 296
322 322 321 324 324 323 321 321 321 320 321 322 322 323 322 322 322 325 327 328 329 330 332 332 330 329 328 324 322 320 321 324 323 324 326 325 321 320 316 316 313 311 306 305 306 304 298 295 300
322 321 323 323 323 322 321 321 320 320 319 320 321 321 323 324 322 322 323 325 327 328 330 331 331 331 330 325 324 324 325 325 325 325 326 325 323 319 318 317 314 310 307 306 302 300 298 301 300
323 323 322 322 323 322 322 321 321 320 320 320 321 320 321 322 325 324 324 325 326 327 329 329 330 331 331 327 325 326 326 327 325 325 324 322 323 322 320 318 314 309 305 304 301 298 300 297 299
321 321 322 323 322 322 324 321 320 321 321 319 321 319 320 321 323 326 327 327 328 328 328 329 329 330 330 330 328 326 326 324 322 322 321 322 322 321 320 316 312 306 303 298 296 298 298 299 299

GFSSGP_850_thetae_039.txt.gz
Theta_e
315 316 317 317 319 319 320 321 321 322 323 327 333 336 328 335 333 336 339 343 342 340 336 334 340 340 338 337 337 335 335 328 317 308 310 310 310 310 310 314 317 317 316 316 316 316 316 316 313
318 315 315 318 319 319 320 321 320 321 328 334 338 338 338 341 340 341 342 342 341 339 337 337 339 340 338 338 336 335 330 319 309 309 310 310 310 310 314 316 317 318 317 316 316 316 316 315 313
316 316 318 321 320 319 320 320 321 326 328 332 333 338 340 339 337 338 341 341 341 338 337 334 334 337 337 337 335 332 321 311 308 310 310 310 310 314 315 315 316 318 317 316 316 316 316 314 314
318 318 317 317 318 319 319 321 325 326 327 330 332 339 336 328 328 327 336 341 339 338 332 329 328 335 336 336 331 322 313 308 309 310 310 310 313 315 315 315 316 317 316 316 315 316 315 315 315
316 317 319 320 319 319 319 320 325 328 332 332 334 336 339 336 339 333 329 337 335 337 332 328 329 334 333 327 323 315 308 308 310 310 311 314 315 314 315 315 315 315 315 314 315 316 317 317 317
319 317 319 319 318 318 321 324 326 331 332 333 334 336 338 335 337 338 339 338 339 338 335 329 326 326 324 322 316 310 308 309 309 310 315 315 314 314 314 315 315 315 315 316 316 317 318 318 318
319 320 320 318 319 324 326 328 329 330 331 334 335 336 336 335 337 340 339 338 338 337 336 326 327 325 320 316 311 308 309 309 310 313 314 313 313 315 315 315 315 316 317 318 318 319 319 319 318
317 319 319 319 322 324 327 328 330 331 334 334 334 335 336 335 336 337 338 338 336 335 334 326 326 324 318 312 310 308 310 310 311 313 313 313 315 316 316 316 317 317 318 319 319 320 319 318 318
317 319 319 320 321 322 325 328 331 331 332 334 336 338 334 334 335 334 336 334 336 335 334 327 326 324 318 311 312 312 310 311 312 313 315 316 317 320 322 319 318 318 319 320 320 320 319 319 318
319 320 319 320 320 321 322 327 329 330 332 334 332 330 331 333 333 335 334 334 334 333 332 328 326 325 319 316 310 309 313 315 313 316 317 320 321 323 321 318 318 319 320 321 320 320 319 319 317
320 321 320 320 320 320 322 327 329 329 330 332 333 329 330 329 329 330 329 331 331 331 330 328 327 323 315 313 316 315 313 319 313 316 321 321 321 322 317 317 319 321 321 321 320 319 319 318 317
319 320 319 320 319 321 326 327 329 330 333 334 332 330 328 328 328 326 327 327 328 327 326 325 321 318 314 314 317 317 319 314 313 314 316 318 317 317 318 321 322 321 321 320 320 320 319 316 312
320 321 320 321 322 323 326 327 328 331 333 331 330 328 328 328 326 325 323 323 323 321 320 318 317 318 317 317 313 311 311 311 313 313 313 314 314 323 323 324 323 322 322 321 320 319 317 313 312
320 320 323 323 325 327 327 328 329 331 330 330 330 329 327 327 324 322 321 320 319 318 317 316 314 315 313 311 312 314 315 314 314 312 313 315 322 325 324 324 323 322 322 321 320 318 315 314 313
320 322 323 324 325 327 327 325 330 329 330 330 326 324 322 325 324 322 320 319 319 318 317 317 316 314 314 311 311 314 317 317 313 312 313 322 324 323 325 324 323 322 321 320 319 318 314 313 310
320 323 325 323 324 325 323 326 330 328 329 328 326 325 323 326 327 323 321 320 317 316 316 314 313 314 315 315 318 318 319 316 313 320 324 324 326 326 324 324 323 322 321 319 318 315 313 312 309
321 322 325 324 323 326 328 327 330 328 326 325 325 324 323 326 326 326 326 322 320 319 319 317 316 314 316 319 321 319 319 319 318 322 326 325 326 326 325 324 323 323 320 318 316 314 312 310 309
322 321 323 328 325 325 325 325 330 328 327 326 323 321 321 324 326 325 324 324 323 321 319 319 320 317 317 317 319 321 320 322 322 326 325 325 326 323 324 324 322 323 319 317 315 312 310 309 309
322 321 322 323 325 325 325 324 326 330 328 327 327 324 324 324 325 326 323 323 323 323 321 322 323 325 324 324 321 320 321 322 322 324 326 326 326 323 324 324 322 321 318 316 313 311 310 309 311
321 321 321 321 321 322 322 323 323 330 329 328 327 327 325 324 325 325 326 323 323 324 323 322 323 325 326 326 323 321 321 323 325 325 325 327 326 324 323 322 320 319 317 315 312 310 310 311 311
321 321 321 321 323 322 322 322 322 326 329 329 328 327 327 325 325 325 326 326 325 325 326 326 326 326 328 327 325 323 324 325 326 326 326 326 325 323 322 320 319 317 316 314 312 310 310 312 311
321 321 321 322 322 323 323 322 324 324 326 329 329 328 327 327 326 325 326 327 326 325 326 327 327 328 328 327 327 324 325 327 327 327 326 325 324 322 320 319 318 316 315 313 311 310 310 311 311
322 322 322 322 323 323 322 321 323 322 323 325 327 328 327 326 327 326 326 327 328 327 326 327 328 328 329 328 327 327 326 327 327 327 326 324 322 322 320 319 318 316 314 311 310 309 309 311 311
321 323 322 323 323 324 322 323 322 323 322 322 324 326 327 326 326 326 327 328 327 328 328 328 328 328 328 330 328 328 328 327 326 327 325 323 321 322 320 319 320 318 314 311 310 309 308 310 308
322 322 324 324 325 325 323 323 322 323 322 322 322 324 326 326 326 326 326 327 329 330 330 329 329 329 329 330 330 326 322 325 321 324 325 324 321 320 321 321 321 319 313 310 309 309 307 310 306
322 323 325 330 327 324 324 321 322 322 322 321 321 322 322 326 326 326 325 327 329 331 332 332 331 331 330 330 323 324 323 322 321 322 323 324 321 320 323 321 320 316 312 309 309 307 309 307 306
323 323 323 324 325 325 323 322 322 321 321 321 322 324 325 323 326 326 326 325 328 330 332 334 333 333 332 329 324 323 322 320 323 324 325 323 322 323 324 321 319 314 310 310 310 307 307 305 300
322 324 324 324 325 326 322 323 322 321 321 321 321 321 324 324 324 324 326 327 327 329 330 333 336 334 333 329 325 323 324 321 322 323 323 324 323 324 323 320 318 316 314 312 306 304 303 299 302
323 324 323 324 324 325 326 323 323 322 321 321 321 320 321 322 325 325 325 325 327 328 330 332 335 335 333 331 328 323 323 322 323 325 324 323 323 323 322 318 317 314 313 311 304 303 299 302 302
322 322 323 327 324 324 325 324 322 322 322 321 320 321 320 321 323 326 327 327 327 327 329 330 333 334 333 333 329 325 326 326 325 327 326 324 322 321 320 316 317 312 308 304 302 302 300 300 299

GFSSGP_850_thetae_045.txt.gz
Theta_e
314 317 321 320 316 312 313 315 315 317 326 328 327 327 328 333 338 341 338 327 329 330 336 339 335 330 331 331 331 332 330 320 308 309 310 309 310 313 320 326 316 314 314 312 311 311 314 320 321
314 318 319 321 312 313 315 316 317 328 329 327 325 326 328 333 329 337 338 329 327 330 328 324 337 331 332 332 332 333 328 315 308 310 310 310 312 314 317 317 314 314 313 313 313 312 316 321 322
314 316 317 311 311 314 314 315 318 325 327 327 327 334 335 331 328 327 329 336 333 331 331 333 338 334 334 332 332 332 324 309 309 310 310 311 315 314 314 314 314 314 314 314 314 312 319 321 321
318 320 319 313 314 314 317 321 321 325 326 325 333 333 329 325 329 331 335 330 335 338 337 338 338 336 335 333 333 331 317 308 309 310 310 314 316 315 314 314 314 314 315 316 315 312 318 321 320
320 320 312 315 315 317 323 321 322 328 327 327 325 323 329 325 328 330 329 335 335 334 333 333 336 337 335 333 333 328 311 308 310 310 312 315 316 316 315 314 314 315 316 317 317 315 313 319 319
318 318 314 316 318 324 322 321 322 326 329 327 326 325 323 328 334 333 330 334 336 333 329 326 333 334 336 335 333 320 308 309 310 311 314 315 316 316 315 314 314 316 318 318 318 316 311 314 318
315 312 313 314 316 323 322 322 325 326 328 326 324 327 324 333 332 335 330 333 335 334 334 333 336 334 330 328 335 314 308 310 310 312 315 315 316 316 315 314 315 317 318 319 318 316 313 311 318
317 311 312 314 316 323 323 325 321 326 329 326 325 331 329 331 333 336 335 333 333 334 331 333 334 335 330 334 322 310 309 310 311 315 316 316 317 316 315 315 316 318 319 319 319 316 313 313 317
317 312 313 315 318 322 323 327 326 324 331 328 332 332 331 330 332 333 334 335 334 334 331 330 323 330 328 324 315 309 310 310 314 317 317 316 316 315 315 316 318 318 319 319 319 316 316 314 314
314 311 314 318 317 317 324 325 325 325 322 325 329 329 329 330 330 331 331 332 334 334 330 329 326 327 328 325 319 312 312 311 316 316 316 316 315 315 316 317 318 319 319 319 318 318 318 316 315
316 313 316 318 320 320 319 324 325 323 323 327 326 329 329 329 330 331 331 331 333 332 332 327 327 328 325 325 315 312 311 317 315 316 317 316 317 317 317 318 319 320 320 319 319 319 317 316 316
316 317 317 318 321 321 320 326 329 330 331 331 329 328 328 328 328 329 331 331 330 330 329 329 327 326 325 317 313 316 316 316 315 319 319 318 320 318 316 314 314 316 320 319 319 319 318 317 314
318 317 319 320 320 321 324 325 327 328 328 329 329 329 329 328 326 326 327 329 329 329 329 328 326 326 324 316 317 317 317 316 320 322 320 318 316 315 314 315 315 319 320 320 320 320 319 314 312
319 319 319 319 319 322 324 323 323 327 330 329 328 327 326 325 324 325 325 325 326 327 327 327 327 324 319 318 313 314 316 319 320 321 319 319 315 315 314 316 321 321 321 321 320 320 316 313 312
320 317 317 317 323 324 324 324 324 324 325 329 329 324 324 324 322 323 322 322 323 323 324 325 326 319 313 316 318 316 314 319 320 319 316 315 315 315 319 323 321 322 322 321 321 319 314 314 312
317 317 317 317 322 323 323 324 324 323 323 325 323 323 323 323 321 320 321 322 321 322 320 319 319 317 316 316 318 315 316 314 316 315 315 315 317 322 321 322 323 323 322 322 321 320 317 314 312
316 316 316 320 323 323 323 324 324 323 323 323 322 323 324 323 322 321 320 319 320 319 318 318 318 316 316 316 313 314 313 315 315 314 315 315 317 315 321 323 323 323 322 322 321 320 317 314 313
318 318 319 322 322 324 324 323 323 322 326 321 323 326 326 324 323 321 320 318 317 317 317 317 318 316 317 316 314 316 316 315 313 314 313 313 315 314 315 324 322 323 323 322 321 319 315 313 312
318 318 318 321 322 324 327 325 322 321 325 323 325 324 327 326 324 320 319 318 316 316 316 317 316 315 314 315 314 314 314 312 313 314 313 318 321 319 318 320 324 323 323 323 321 319 316 314 311
320 318 317 320 324 323 321 326 322 321 324 323 321 324 325 327 325 320 319 318 317 316 316 315 316 316 316 316 317 318 319 318 316 317 316 316 317 320 319 321 322 323 324 322 320 319 317 315 311
319 318 317 319 321 321 319 319 325 325 327 324 320 320 320 325 326 323 322 320 319 315 316 316 316 316 317 320 321 321 321 321 321 318 315 316 319 320 321 321 324 323 323 322 320 319 317 315 311
318 317 320 321 321 320 320 322 329 329 328 326 323 319 320 323 325 325 324 323 319 317 315 316 317 318 318 318 319 319 317 317 315 314 315 315 315 320 322 323 324 323 322 321 320 318 317 316 310
320 320 321 322 321 319 319 323 322 329 328 327 325 324 322 323 325 324 324 323 323 319 316 316 316 316 316 316 318 318 319 318 317 320 321 323 324 325 324 323 323 323 323 322 319 318 317 316 310
318 322 322 322 320 319 320 320 319 326 324 327 326 326 325 324 326 325 325 324 323 322 321 318 318 321 322 323 321 324 326 323 321 322 323 325 325 325 325 324 322 322 322 321 319 318 317 314 312
318 320 322 321 320 320 326 326 322 321 321 326 324 327 326 325 326 325 324 324 324 323 322 322 322 321 322 323 323 324 325 325 322 324 324 325 324 323 324 323 323 323 322 321 319 317 315 315 311
318 319 321 324 324 327 326 327 321 322 320 321 323 328 327 326 325 326 326 325 326 325 325 325 323 324 324 325 326 326 325 325 325 324 325 325 324 322 321 323 323 323 322 321 318 317 316 315 311
321 320 320 327 326 325 326 325 322 322 319 318 319 321 326 327 326 325 326 326 326 326 326 326 326 324 324 326 327 327 327 326 327 327 326 325 325 321 321 321 323 323 322 321 319 317 316 314 309
319 321 323 326 328 329 328 327 325 321 322 319 317 319 321 324 327 326 326 326 326 326 327 326 327 327 327 325 326 328 329 328 327 327 326 326 325 324 322 321 323 322 322 321 318 316 313 309 309
319 319 320 325 326 325 323 323 320 322 322 321 317 321 322 323 325 326 326 326 326 327 328 326 327 327 327 327 326 327 327 328 328 325 322 325 325 322 322 324 324 322 322 320 318 316 311 308 308
319 319 320 323 325 324 320 322 321 319 319 320 320 320 321 322 322 324 326 327 326 324 325 324 328 324 324 328 327 327 328 328 328 327 324 324 323 324 326 324 322 320 320 319 318 315 311 308 307

GFSSGP_850_thetae_048.txt.gz
Theta_e
314 315 320 320 314 309 312 313 314 314 317 327 328 330 332 333 338 342 335 329 338 339 338 335 331 329 328 327 329 326 317 308 309 310 312 311 312 313 316 314 313 311 310 313 318 320 321 322 322
313 315 318 320 310 311 311 312 316 318 327 326 331 330 331 330 330 333 335 327 337 336 335 333 334 332 329 330 329 323 311 309 310 310 310 312 319 315 314 313 312 311 312 314 319 321 322 323 323
314 315 317 312 307 310 312 313 317 325 327 327 333 332 331 328 329 327 331 330 331 332 329 327 330 326 332 329 328 320 309 309 310 310 311 314 321 314 313 312 313 313 313 314 320 322 322 321 322
319 320 317 312 312 312 314 316 321 322 326 329 332 330 328 324 329 331 332 337 333 329 330 329 328 330 332 328 328 318 308 309 309 311 313 314 315 313 313 314 314 315 313 315 320 321 320 319 321
319 319 311 312 313 313 318 321 322 328 327 325 325 323 329 324 325 333 331 337 338 335 332 328 330 326 332 329 328 312 308 309 310 313 314 314 314 313 313 315 316 316 314 313 321 321 318 320 322
317 314 312 313 314 315 319 321 323 327 328 326 325 323 323 323 328 333 329 332 332 333 335 336 336 333 333 329 322 309 309 309 311 314 315 314 314 314 314 316 317 317 317 313 318 319 318 320 321
313 310 311 312 314 313 321 322 325 326 325 326 325 327 324 329 329 332 330 332 333 334 332 331 334 330 332 329 320 310 310 310 313 316 316 315 314 314 315 316 318 318 317 315 311 316 318 319 316
317 310 313 311 313 313 322 325 325 326 326 331 330 333 329 330 330 331 332 330 333 333 333 330 333 332 328 328 321 314 310 311 315 316 316 316 315 314 315 317 318 319 318 315 312 311 317 319 319
317 311 310 312 314 318 323 324 325 324 326 325 327 330 329 331 329 330 333 333 332 333 332 333 331 327 329 328 327 317 311 312 317 316 317 317 316 314 316 317 318 319 319 317 313 314 316 318 318
313 309 312 312 316 321 324 323 323 322 325 327 327 328 329 329 331 332 332 334 334 333 331 327 329 328 325 326 317 314 313 316 317 317 317 316 315 315 316 318 319 319 319 318 316 315 314 313 313
313 312 314 315 317 322 323 324 325 323 330 328 326 326 328 328 329 330 331 333 333 333 332 328 327 325 323 324 324 316 317 319 317 317 316 315 314 316 317 319 319 319 318 317 318 318 316 315 314
314 314 315 316 319 324 323 327 329 326 326 326 327 328 328 326 329 330 330 330 331 332 332 330 328 328 324 324 322 316 318 318 317 315 315 315 316 317 318 319 319 318 319 318 318 317 315 315 313
315 315 318 319 320 326 326 329 329 329 329 329 327 327 328 326 327 328 328 329 331 331 331 331 328 328 327 323 316 316 319 317 315 315 315 316 317 318 315 314 314 318 320 319 319 319 318 317 312
318 318 317 318 318 324 324 325 323 328 328 328 328 327 327 326 325 324 326 327 327 328 328 329 328 326 323 319 312 317 318 316 315 316 318 318 317 314 314 314 314 318 320 320 320 320 320 314 312
318 317 315 317 317 322 322 322 323 328 329 328 327 325 325 325 323 324 325 325 326 325 326 328 328 325 323 313 317 320 318 317 316 319 319 315 314 314 314 316 321 321 321 321 321 320 319 313 312
316 315 316 316 317 323 321 322 322 328 327 329 324 324 323 323 322 321 321 322 323 325 326 325 326 325 316 313 318 320 320 321 321 320 321 317 318 318 317 320 322 322 322 322 321 321 318 316 315
315 315 316 316 318 322 321 321 321 324 326 326 322 321 322 322 321 320 320 320 320 322 322 322 324 323 319 319 318 320 320 318 320 320 319 317 320 317 316 320 321 323 322 322 321 321 320 318 317
315 316 316 316 321 323 322 320 322 321 323 323 320 321 322 322 322 320 320 320 320 319 319 320 321 321 320 317 316 320 318 314 317 319 315 314 315 315 318 320 323 323 323 322 322 321 320 319 315
316 316 316 315 319 324 323 322 320 322 324 321 321 322 323 324 323 320 320 319 318 317 317 319 320 318 315 316 316 314 315 314 318 316 314 315 315 314 315 316 317 323 322 323 322 322 321 318 314
315 316 317 315 320 322 321 324 322 319 322 321 321 325 325 324 323 319 319 319 318 317 317 317 318 317 316 316 315 315 315 315 317 316 315 315 314 314 315 314 315 319 322 323 322 322 322 318 315
316 317 317 316 320 320 318 320 323 322 322 323 322 324 325 326 325 320 319 318 317 317 317 317 317 316 316 316 314 314 316 316 316 316 314 314 314 315 316 319 318 319 321 323 323 323 322 320 317
317 318 317 320 319 319 317 318 324 323 323 325 321 323 325 327 325 323 319 317 316 316 316 316 316 316 315 316 315 315 315 314 314 313 313 314 314 318 319 320 319 320 322 322 322 323 321 319 318
319 318 318 319 319 318 319 318 319 323 327 326 321 320 322 324 324 325 321 319 317 315 316 317 316 316 316 315 316 317 317 318 318 316 314 313 315 317 315 314 318 321 322 322 322 322 320 319 318
319 320 320 320 319 320 320 319 318 328 327 327 325 319 319 322 323 323 323 321 318 315 316 317 317 316 317 318 320 320 320 320 320 318 317 316 314 314 319 317 321 322 323 323 322 322 320 319 318
317 318 320 321 320 321 323 324 321 319 326 326 326 325 321 320 322 324 324 323 322 318 315 316 316 317 317 318 318 318 318 318 317 316 316 317 319 321 324 324 323 323 322 322 322 322 321 319 316
317 317 318 321 323 322 323 323 321 320 321 322 326 326 325 322 321 323 324 324 323 322 318 315 315 315 316 315 314 315 316 317 317 320 321 319 321 322 324 323 322 323 323 323 322 321 320 319 318
318 318 317 323 324 323 322 322 320 319 319 318 321 324 325 325 323 323 324 324 324 324 322 319 317 317 317 318 318 319 319 320 322 325 325 322 322 323 323 324 323 321 322 323 322 321 320 318 317
318 318 321 322 325 324 325 325 323 323 319 319 316 320 325 325 324 325 325 325 324 324 324 323 321 321 319 319 319 320 322 322 323 324 325 325 323 325 324 324 322 321 322 322 322 321 319 318 316
318 318 320 322 322 323 323 321 318 321 321 319 317 318 321 325 325 324 325 325 325 325 324 325 324 323 323 322 321 322 322 323 325 325 325 325 325 325 325 325 324 323 322 322 321 320 319 318 316
317 318 319 322 324 321 318 322 319 318 318 318 319 319 321 324 325 325 325 325 325 325 325 325 325 325 325 326 325 325 325 325 326 326 326 326 326 324 323 324 324 322 322 321 320 319 319 316 316

GFSSGP_850_thetae_051.txt.gz
Theta_e
314 315 318 320 311 309 313 313 312 318 319 327 329 331 333 332 337 336 335 333 339 341 331 325 326 326 326 326 325 325 324 312 318 322 321 317 312 313 315 314 312 312 312 314 316 318 320 318 317
313 314 318 317 309 310 310 311 315 323 325 328 332 331 329 328 335 334 329 329 338 340 334 327 325 327 327 327 326 325 320 312 320 319 316 312 314 316 313 312 311 311 315 317 319 320 321 320 318
314 315 316 310 305 310 311 312 314 323 326 328 332 331 330 327 328 330 332 331 338 339 335 329 327 327 329 331 329 327 313 312 327 321 315 314 316 313 312 310 311 314 318 321 321 321 322 321 321
319 319 315 312 312 310 312 312 320 323 325 327 331 329 327 328 328 327 327 328 338 338 337 334 332 331 329 330 328 322 315 314 323 324 316 316 313 312 311 312 313 317 320 322 321 320 321 322 322
318 318 310 311 311 312 311 318 324 327 326 325 325 323 329 326 327 329 330 333 332 335 332 329 333 330 330 329 330 318 310 312 324 327 319 314 312 312 313 313 313 318 321 321 319 320 321 322 322
316 314 312 312 312 313 313 320 324 326 327 326 325 323 323 325 327 332 333 334 335 332 331 330 331 328 327 330 330 326 312 316 324 326 317 313 313 314 315 314 315 319 321 319 318 319 321 322 321
312 309 312 311 312 312 319 324 324 325 325 326 325 327 324 327 330 330 330 333 333 332 333 332 329 329 329 332 327 319 311 318 324 324 314 314 314 316 316 315 313 317 320 318 318 319 320 320 320
316 309 313 311 311 312 321 323 325 325 328 330 330 333 329 330 332 333 331 334 332 333 331 333 332 329 328 326 323 319 316 319 322 320 315 314 315 317 317 317 316 312 315 316 318 318 319 318 317
316 310 310 311 313 315 324 324 324 325 328 329 327 327 328 331 331 332 336 335 334 332 331 331 331 329 328 322 322 319 320 320 320 318 316 314 315 317 318 318 317 313 311 311 317 318 319 319 318
311 309 312 311 313 315 323 321 322 322 324 328 327 328 329 329 329 332 330 335 335 332 333 330 325 329 324 325 322 317 317 318 321 319 316 314 315 317 318 318 318 314 312 312 314 317 318 317 315
312 312 311 314 314 315 322 323 325 322 326 327 326 328 325 328 328 329 331 332 331 332 331 327 328 326 324 324 320 314 318 318 318 318 316 314 315 317 318 318 318 317 315 312 312 314 313 312 312
313 312 313 315 316 322 322 326 327 325 326 326 326 325 325 321 326 328 329 332 330 329 328 327 328 327 327 327 323 321 319 317 318 318 317 314 316 317 318 318 318 318 316 316 316 315 314 313 312
312 315 317 318 317 321 325 328 328 328 328 327 326 327 327 325 325 325 327 329 330 329 327 327 326 324 327 325 322 321 318 317 320 318 316 315 316 318 319 318 317 318 318 317 315 314 314 314 312
316 317 316 317 320 326 326 325 324 325 329 327 326 326 327 327 326 325 326 328 329 328 327 328 327 325 324 323 323 318 320 321 320 318 315 315 317 318 319 317 315 318 319 319 319 318 316 314 312
317 315 313 314 316 322 322 322 323 323 328 327 327 326 326 325 324 323 323 326 327 327 327 327 327 326 323 323 321 320 321 319 316 315 315 316 317 316 314 313 316 319 320 320 319 320 319 315 312
315 314 315 315 316 320 321 321 319 326 328 327 326 324 324 322 323 321 323 323 325 325 326 327 327 327 325 324 317 322 321 317 316 315 316 317 316 314 314 313 317 319 320 321 321 320 319 315 312
312 312 315 315 315 320 319 322 319 328 328 328 326 323 322 320 321 320 319 319 322 323 324 323 326 327 324 317 321 321 320 317 317 319 317 316 315 315 314 321 321 321 321 321 321 321 320 319 318
313 314 315 315 315 321 320 319 319 327 325 327 324 321 320 320 319 321 319 319 319 321 322 322 323 325 323 315 313 323 320 319 320 320 316 316 317 320 320 321 322 321 322 321 322 321 321 320 319
314 315 314 313 314 319 319 319 317 319 321 323 321 322 321 321 322 321 320 319 318 319 318 319 320 324 320 317 317 323 316 322 322 321 318 315 321 319 321 318 319 322 322 322 322 322 321 321 319
314 314 314 314 314 319 319 320 318 319 320 321 320 321 322 322 324 322 319 319 318 318 316 318 321 321 315 315 319 321 320 322 321 320 316 316 319 316 316 315 315 317 318 322 322 322 322 321 320
314 314 314 315 315 319 320 318 319 319 321 321 321 322 323 323 323 323 318 319 318 317 317 317 319 321 321 320 319 318 321 321 319 317 316 316 315 315 314 314 315 316 316 320 321 322 322 322 322
315 314 316 316 316 317 316 318 315 320 320 321 320 321 323 324 323 324 319 318 318 317 317 317 318 319 318 318 316 316 319 318 315 313 315 315 315 315 315 314 316 318 319 318 320 322 323 322 322
315 316 316 317 316 317 317 316 315 321 324 322 321 321 322 324 323 321 320 316 317 316 317 317 317 318 318 318 316 316 315 314 315 313 317 316 316 315 314 314 317 319 320 319 320 321 322 322 321
316 317 317 317 316 319 317 317 317 320 322 323 322 321 323 323 324 322 320 320 316 316 316 317 317 317 316 316 317 316 315 314 314 315 316 316 317 315 314 313 317 316 316 317 320 321 322 322 322
316 317 317 318 319 321 318 323 320 317 319 322 323 323 322 323 324 323 322 322 319 316 315 317 316 317 315 315 316 316 315 315 315 314 315 315 314 314 314 313 314 315 316 318 322 322 322 322 321
315 316 317 320 320 319 321 322 320 318 318 321 323 325 323 321 323 323 321 321 322 318 315 316 316 317 316 315 315 315 316 315 316 316 315 315 314 314 314 315 316 316 322 323 319 321 322 322 322
316 316 315 320 321 322 320 319 318 318 316 317 318 323 324 323 321 322 322 321 322 322 318 315 315 315 316 317 318 317 317 317 317 317 317 317 316 316 316 317 320 322 322 322 323 323 322 322 321
316 316 319 319 323 325 321 323 320 320 320 316 313 320 324 325 322 321 322 322 322 323 323 319 316 315 316 316 317 317 317 317 317 317 315 314 316 317 321 321 321 323 322 322 322 322 322 322 321
315 316 319 319 318 319 321 319 317 320 318 318 318 317 320 324 325 324 324 324 324 323 324 324 321 316 316 315 315 315 315 314 315 315 315 317 319 322 323 324 322 323 324 323 322 322 321 321 320
315 316 317 319 322 319 318 320 316 316 316 317 317 319 319 319 323 325 325 324 324 324 323 324 324 323 321 318 316 316 316 317 317 318 319 320 322 323 323 323 324 324 324 323 322 322 322 321 319

GFSSGP_850_thetae_057.txt.gz
Theta_e
313 315 317 318 317 316 318 318 314 316 323 325 330 330 329 331 333 333 333 338 339 333 331 331 330 330 329 329 329 331 334 336 335 332 332 322 318 318 320 323 325 326 316 315 319 320 316 310 309
313 314 317 315 317 318 317 314 315 316 322 325 329 331 330 329 333 335 334 337 340 335 330 330 329 328 327 326 326 328 330 333 333 331 331 323 318 323 322 325 322 314 311 313 315 309 309 309 308
312 315 315 314 313 318 317 314 316 315 322 326 327 330 331 328 329 332 332 332 339 338 331 332 326 325 325 325 324 324 329 331 332 329 326 322 317 323 322 317 316 319 320 324 315 310 307 307 307
317 317 313 318 317 315 316 317 313 318 323 324 330 329 329 327 327 326 329 328 338 338 331 327 327 327 326 325 325 323 327 328 329 326 325 314 315 317 313 315 324 326 328 321 314 313 308 307 306
318 316 316 316 316 315 313 313 313 322 325 325 325 325 327 327 326 325 327 330 336 338 333 327 325 327 327 327 324 324 325 326 324 323 316 314 315 317 319 325 327 324 324 316 318 314 314 314 313
316 313 317 317 315 314 314 313 320 324 327 326 325 324 323 323 324 326 328 330 332 336 334 328 325 327 327 326 322 320 323 321 322 320 315 314 315 319 317 324 320 320 320 320 319 318 317 317 314
316 315 315 314 316 315 315 322 321 323 326 326 324 327 325 324 325 329 328 330 331 335 333 330 330 328 327 326 322 323 319 322 319 315 314 314 316 319 324 319 320 320 321 321 319 319 317 317 314
315 315 314 314 316 316 315 322 322 324 326 327 327 329 330 327 327 328 330 332 330 332 331 331 330 330 328 327 329 327 326 323 318 314 316 315 316 319 319 320 319 320 320 321 320 319 319 318 313
314 316 316 316 314 316 319 323 323 324 325 327 329 328 327 326 328 330 331 331 332 332 330 327 328 329 326 327 323 325 327 324 318 318 314 312 313 316 320 320 319 319 320 320 320 318 318 316 313
315 316 316 314 314 316 315 321 321 323 323 325 326 326 326 327 328 329 329 331 332 330 329 327 326 323 327 329 328 325 325 323 321 316 313 311 313 316 320 319 319 318 319 319 318 317 317 316 312
312 316 314 314 314 313 313 318 320 322 323 323 326 324 326 326 327 327 327 328 331 329 330 327 324 323 323 327 327 325 321 325 321 316 312 313 316 318 319 319 318 318 318 317 317 317 316 314 312
314 313 313 314 314 315 316 321 323 322 323 323 324 325 325 325 326 326 327 327 329 330 329 326 326 323 326 326 325 323 321 321 320 314 313 314 314 317 318 318 318 318 318 318 317 316 312 312 311
312 313 312 314 315 314 318 323 325 325 324 324 325 324 325 325 327 325 325 327 327 329 328 329 329 325 326 324 323 319 319 321 321 316 314 313 313 313 313 313 313 314 316 317 316 313 312 311 311
313 312 315 316 315 316 321 323 326 324 325 326 325 325 326 326 324 325 324 327 327 326 328 329 327 325 325 323 319 319 320 323 320 317 315 316 317 315 314 312 312 314 315 315 313 312 312 311 310
315 316 315 315 315 318 322 323 326 324 325 327 326 325 325 323 326 325 327 326 326 327 326 326 327 327 324 322 319 317 320 321 318 318 316 317 317 317 316 313 313 313 314 315 314 312 312 312 309
316 314 316 315 318 318 322 321 318 321 326 327 326 325 323 322 321 323 322 325 325 325 326 324 327 327 324 322 318 316 317 319 318 321 317 315 317 318 318 316 315 316 317 315 314 313 313 312 311
314 316 315 315 315 320 322 322 319 323 326 326 326 325 324 321 320 318 321 323 323 324 326 324 326 326 326 324 318 316 318 318 320 319 316 317 317 318 318 318 317 318 318 318 319 319 318 313 312
316 315 314 316 318 320 321 321 319 321 326 326 326 325 324 321 320 318 320 320 322 322 324 325 325 325 325 325 320 317 318 318 320 318 316 316 316 318 318 318 318 318 319 319 320 320 318 316 315
314 314 315 314 314 315 316 316 318 316 323 326 326 326 325 323 321 319 319 319 320 322 323 324 324 323 325 324 321 318 316 316 317 316 317 317 319 316 319 318 318 317 320 320 320 320 320 320 320
314 315 316 315 313 314 317 318 319 318 321 322 324 326 325 323 321 321 319 319 319 319 320 321 322 323 323 323 322 317 316 316 318 318 317 320 319 316 318 315 316 318 320 320 320 320 320 321 321
316 316 316 316 314 315 317 319 319 318 319 320 321 323 324 324 322 321 321 318 319 318 318 318 321 322 323 324 322 322 321 319 317 318 321 321 319 316 317 316 320 320 320 320 319 320 321 321 321
316 314 315 314 315 316 317 320 319 319 319 319 320 321 322 322 322 322 321 319 318 317 317 317 319 321 322 323 322 321 320 316 316 321 319 317 316 317 316 319 316 318 318 319 317 316 318 319 320
316 315 315 315 316 317 317 319 319 317 320 320 321 321 321 321 321 322 323 321 317 317 317 317 318 320 320 321 323 321 321 317 320 320 315 316 317 316 316 315 315 317 317 317 317 317 319 319 320
315 315 316 316 317 320 319 319 320 319 319 320 319 320 320 320 322 322 323 322 320 317 316 317 319 321 320 322 323 320 321 318 321 319 314 319 319 317 317 316 316 316 315 315 314 317 319 319 320
315 317 318 320 322 322 317 318 320 319 318 318 320 320 319 320 321 322 323 323 321 318 316 317 318 320 321 322 323 321 319 317 320 318 315 318 319 318 316 315 316 316 314 314 314 314 314 317 318
316 317 320 322 322 321 320 322 320 320 319 318 318 318 319 320 321 322 323 323 322 320 316 315 317 320 320 320 320 320 319 317 317 320 316 316 319 317 316 316 316 316 316 316 315 315 314 313 315
316 317 317 319 320 322 321 320 319 319 319 319 318 317 318 319 321 322 322 323 323 322 320 315 315 317 318 319 320 320 319 318 318 319 320 317 319 319 317 316 316 315 315 315 316 316 315 314 316
317 316 319 318 320 322 320 321 321 320 320 318 320 316 318 320 322 322 322 323 323 323 322 320 316 314 316 317 317 318 319 319 319 319 318 317 318 319 319 318 316 315 314 316 316 316 316 314 317
316 317 318 318 319 322 321 321 320 321 320 320 320 318 317 317 319 322 323 323 323 324 323 322 320 318 315 315 316 315 316 317 318 318 317 317 317 319 318 317 316 315 314 316 316 315 314 316 318
315 316 318 320 319 319 320 321 317 319 320 319 319 319 320 318 318 321 321 322 323 323 324 324 322 321 321 318 315 315 315 315 315 316 316 316 316 316 316 315 315 315 315 315 314 314 315 317 322

GFSSGP_850_thetae_063.txt.gz
Theta_e
312 314 321 321 323 323 324 324 323 322 323 326 328 328 330 328 328 332 339 340 340 343 345 340 335 334 336 338 338 336 336 332 331 327 323 317 316 317 318 323 326 330 328 331 330 330 327 326 323
318 319 320 322 321 324 325 324 322 322 322 326 327 327 327 329 330 331 337 340 340 342 343 341 335 334 339 340 338 336 334 331 332 327 321 318 323 326 329 320 325 326 327 328 328 328 321 323 324
318 318 320 322 323 323 324 323 322 322 322 324 325 326 327 328 332 333 338 338 338 337 341 342 336 333 338 338 336 336 334 332 332 327 320 323 329 328 328 325 326 324 324 319 324 314 316 319 321
317 317 319 322 323 324 323 323 322 322 322 323 324 325 329 333 333 336 336 336 338 338 342 341 339 333 336 336 334 334 335 333 331 326 321 328 323 325 326 327 324 316 316 324 310 309 312 313 314
317 320 323 323 323 324 323 322 321 322 322 324 325 325 326 333 333 333 335 336 337 339 340 339 337 335 332 333 333 333 335 334 331 324 321 324 322 324 327 327 319 312 310 310 308 309 309 310 310
319 319 323 323 323 323 322 321 321 322 322 325 326 326 326 331 331 334 334 334 336 337 335 337 337 336 332 332 333 333 336 335 332 327 322 321 322 326 326 320 314 310 309 308 308 308 308 308 309
320 323 322 322 322 323 322 323 322 323 323 323 326 326 327 333 333 333 335 336 336 335 331 336 337 336 332 330 333 334 337 335 331 327 323 321 325 326 320 323 315 310 309 308 307 307 307 307 310
319 321 322 322 322 322 322 322 322 322 322 326 324 325 326 335 335 334 335 335 331 336 332 333 335 333 328 323 324 332 336 335 332 326 322 321 324 322 321 326 319 312 310 310 310 309 308 308 309
318 320 321 321 322 322 321 321 321 322 322 322 326 327 330 334 332 333 334 334 332 333 333 333 333 332 327 324 327 327 328 335 331 326 322 324 327 323 325 328 319 313 314 315 313 311 309 308 308
319 320 320 322 321 321 321 321 321 322 322 322 325 327 331 331 331 331 331 332 334 332 333 333 332 331 328 325 326 326 324 328 330 326 323 326 327 327 328 325 319 316 316 317 314 311 309 309 309
318 319 321 321 319 320 321 321 321 321 322 322 324 324 327 332 332 331 330 331 332 331 332 332 331 329 326 324 326 324 329 332 328 326 322 328 326 326 326 324 318 318 318 318 315 312 312 317 316
319 319 319 319 319 318 320 320 321 322 322 322 325 326 327 331 331 329 329 329 332 329 330 330 327 326 324 325 327 325 323 327 327 325 322 327 324 325 324 322 320 319 319 319 315 317 320 319 318
319 319 318 318 318 318 319 320 321 321 321 323 326 328 328 331 329 329 329 329 330 328 329 329 327 327 324 325 327 326 327 327 325 322 320 323 324 324 324 322 323 321 323 321 320 323 321 320 319
318 318 319 318 318 319 319 320 320 321 322 324 328 328 329 330 328 328 328 328 328 328 328 329 328 325 326 324 325 324 324 326 324 321 320 322 320 324 324 324 325 323 323 323 322 323 321 319 319
318 318 319 319 319 319 319 320 321 320 322 325 328 328 330 330 329 328 326 328 327 327 328 328 327 326 326 324 324 325 325 326 326 321 320 320 324 323 325 325 324 324 324 322 322 322 321 319 319
318 318 319 320 320 320 320 321 322 321 325 325 327 329 330 331 330 328 326 327 328 327 327 327 327 327 325 325 326 326 326 325 323 321 321 318 316 321 323 323 323 323 324 323 321 320 320 319 318
320 320 320 320 321 321 321 322 322 324 324 325 326 328 329 330 330 328 325 326 328 327 328 327 326 325 325 324 324 323 323 324 322 321 318 314 315 320 321 321 321 321 321 321 320 319 319 319 318
320 321 321 321 322 321 321 323 322 324 324 325 325 326 328 329 329 328 325 326 327 328 325 327 325 325 325 325 323 322 322 323 320 319 317 320 321 319 319 319 320 319 318 319 319 319 318 318 317
319 321 321 322 321 320 321 321 323 323 323 324 325 326 328 329 329 328 325 325 327 327 325 327 327 324 325 324 322 320 321 320 319 313 317 319 319 317 316 315 315 316 318 318 318 318 317 316 315
319 320 320 321 320 319 320 319 321 322 322 323 324 325 327 329 329 328 325 326 327 327 326 324 326 326 326 325 322 320 320 321 319 316 319 318 315 315 315 318 314 318 317 318 319 319 320 318 316
320 320 320 320 320 320 320 319 319 321 322 322 322 323 325 327 329 328 326 325 326 326 325 325 324 325 325 324 321 320 319 320 318 317 316 317 319 319 318 319 319 316 321 321 322 321 321 320 318
320 320 319 319 320 321 322 321 321 321 322 323 323 322 323 325 328 329 327 326 326 325 325 325 322 324 323 322 323 321 319 319 318 317 316 316 318 318 318 316 318 319 320 322 323 323 321 321 322
320 319 319 319 320 321 322 320 320 322 323 323 323 322 323 325 327 329 328 327 325 326 325 323 323 322 323 323 322 323 319 319 320 317 318 320 316 317 319 316 317 318 320 321 322 322 321 321 320
318 319 319 319 321 324 323 322 322 323 323 323 321 322 321 325 326 328 328 328 325 325 325 324 323 322 322 323 322 323 322 319 319 319 318 318 317 318 318 320 319 318 318 320 318 319 321 320 319
317 319 321 322 324 324 323 323 323 323 323 323 323 321 322 323 325 327 328 328 325 325 325 324 323 323 322 324 323 323 322 322 318 318 318 318 316 318 318 319 319 319 318 317 317 319 319 319 318
317 319 321 324 326 324 323 323 324 324 323 322 322 322 322 325 325 327 328 328 326 325 325 324 323 323 324 321 321 322 324 322 321 320 319 318 317 316 317 318 317 319 319 317 317 319 316 316 316
318 320 319 320 325 327 324 323 324 324 322 323 322 322 322 322 325 327 328 329 328 326 325 324 323 323 322 324 322 323 322 323 322 321 320 318 317 318 319 318 318 319 319 317 317 318 316 315 315
317 319 320 321 323 325 324 326 324 322 322 323 323 324 324 323 323 326 327 328 328 327 325 324 323 324 323 323 323 321 322 323 323 322 321 321 319 320 320 320 318 319 320 316 317 317 317 316 316
318 320 321 320 321 323 325 325 324 323 324 324 324 323 324 324 325 326 327 328 329 328 326 325 324 323 324 324 322 321 323 322 323 322 322 321 321 319 319 319 320 319 317 316 317 317 318 318 318
319 320 321 323 325 323 325 324 322 322 321 322 323 323 323 323 323 327 328 328 329 329 328 326 325 323 323 325 325 324 323 322 322 323 323 322 322 321 320 320 320 318 316 316 316 317 318 319 319

GFSSGP_850_thetae_066.txt.gz
Theta_e
312 312 317 323 322 323 324 325 325 323 323 325 327 326 327 327 327 337 340 341 331 345 338 341 337 338 339 339 337 333 330 328 330 327 324 319 316 317 315 317 328 330 330 334 333 332 328 325 324
312 319 321 321 324 324 324 325 324 323 323 325 325 324 325 327 331 330 341 341 340 343 343 339 337 335 338 340 339 335 331 328 330 327 323 317 316 316 325 331 331 330 331 331 331 327 326 323 323
316 321 319 322 323 323 325 324 323 323 322 322 324 324 326 329 332 331 338 337 339 335 343 341 339 334 336 338 339 337 333 329 330 328 322 317 316 321 327 330 329 326 328 328 327 324 320 322 325
318 320 319 320 322 324 324 324 323 322 322 323 324 324 329 332 330 333 334 335 337 335 343 342 340 338 335 338 339 338 335 331 330 328 321 319 324 327 328 330 329 325 322 325 316 316 320 321 323
318 318 320 322 323 324 325 323 322 322 322 324 324 325 327 333 329 325 332 332 332 339 339 340 339 340 335 336 339 336 334 333 331 327 320 322 327 326 327 329 328 320 313 313 311 315 316 317 319
318 318 320 322 323 324 324 323 322 322 322 322 325 326 327 333 332 333 326 330 334 335 334 338 339 339 338 334 336 335 334 336 332 327 324 329 326 327 325 327 324 324 313 309 309 309 312 313 312
320 320 321 321 322 323 324 323 323 322 322 324 326 326 326 333 333 329 334 337 337 332 330 334 337 337 336 334 332 333 333 335 333 327 324 326 324 327 327 326 318 315 312 309 309 309 311 311 317
318 321 321 322 323 323 323 324 323 323 322 325 324 324 330 336 334 330 335 336 329 328 330 330 335 337 335 333 332 331 330 327 335 327 323 324 323 328 327 321 312 315 309 309 310 308 309 313 320
318 320 321 321 322 322 323 323 322 321 322 322 322 325 331 335 333 334 335 335 334 331 332 332 331 332 333 332 328 325 325 326 327 328 323 325 327 325 320 316 311 310 308 308 307 307 308 312 317
319 321 320 321 322 322 322 322 321 322 322 323 322 324 329 330 332 332 332 334 336 333 330 334 333 332 332 329 325 324 327 325 322 329 326 326 326 321 321 322 311 308 308 309 309 308 308 311 318
319 320 320 320 321 321 320 321 321 321 321 321 324 325 328 333 332 332 331 330 333 335 330 330 333 332 331 327 325 325 327 325 326 329 326 327 323 322 328 322 312 313 313 312 310 308 308 312 320
318 318 319 319 320 320 320 320 320 321 322 322 322 325 325 330 331 331 329 329 332 332 328 330 332 332 330 326 325 327 327 325 324 329 326 325 324 326 327 322 314 316 315 313 310 308 309 313 320
319 318 318 319 319 319 319 319 320 320 321 321 322 326 327 328 330 330 329 329 330 329 328 330 331 330 328 324 326 327 325 324 324 328 328 326 324 327 325 321 316 317 317 314 312 318 318 316 320
319 318 318 319 319 319 319 319 319 319 320 321 324 327 328 329 330 329 329 328 330 329 327 328 329 328 328 325 326 326 325 329 327 326 327 326 325 326 324 319 317 318 318 314 321 322 319 319 320
318 318 319 319 319 319 319 319 321 320 320 321 324 327 328 331 330 329 328 328 330 329 329 328 329 328 326 327 326 325 327 327 327 325 325 324 324 324 324 320 318 320 319 316 323 323 320 320 320
319 318 319 319 319 320 319 319 320 321 321 321 324 326 329 331 331 329 327 328 329 329 328 328 328 326 327 327 325 324 325 324 326 324 321 321 323 320 323 322 321 322 322 320 322 322 321 319 319
318 318 319 318 320 321 320 320 321 321 323 324 325 326 328 330 332 330 327 328 329 329 328 327 328 327 326 325 324 324 326 326 325 324 323 322 318 320 323 323 322 323 324 322 323 322 320 319 319
318 318 319 320 321 321 321 321 321 322 324 325 324 324 327 329 330 330 327 327 329 329 329 327 328 327 325 325 324 322 322 322 325 324 322 321 321 323 323 323 323 323 324 323 321 320 320 320 319
318 319 319 320 322 322 322 321 321 323 323 325 325 325 325 328 329 330 327 326 328 329 328 328 327 327 325 325 325 322 323 324 323 322 321 318 321 315 320 321 322 322 322 322 321 319 319 319 318
317 319 320 321 322 321 321 321 321 322 323 323 324 325 326 327 330 330 327 326 328 329 326 325 325 324 325 325 323 321 323 323 322 321 320 318 316 316 321 321 321 321 320 320 320 319 318 317 317
319 319 320 320 321 321 320 320 321 321 321 322 322 323 324 326 329 330 328 326 327 329 328 326 324 324 325 325 323 321 322 322 321 320 317 315 315 316 318 319 317 317 317 317 318 317 316 316 316
318 318 318 320 321 321 321 322 323 323 321 322 322 323 323 323 328 330 329 327 327 328 328 325 323 324 325 326 323 321 321 321 320 319 317 316 316 315 318 316 315 314 315 318 316 315 317 319 318
318 320 320 321 320 321 320 322 322 322 321 322 323 323 323 323 325 330 329 328 327 327 328 325 324 324 322 324 323 322 320 321 320 316 317 318 318 317 316 316 317 316 314 317 321 320 320 321 321
318 319 320 321 321 322 321 322 323 324 323 323 324 323 322 323 324 328 330 329 327 327 327 325 326 323 323 322 323 322 320 320 320 315 317 319 319 316 316 320 319 318 316 320 318 318 320 320 321
316 319 321 323 324 324 321 322 325 324 323 323 323 322 322 323 325 326 330 329 328 326 327 325 325 323 322 324 322 322 322 320 320 320 317 317 318 318 318 318 318 318 318 316 318 317 317 320 320
316 317 322 328 328 323 322 323 324 324 324 323 322 322 322 323 325 326 329 329 328 326 326 326 325 323 323 321 323 322 323 323 320 320 319 317 316 317 317 317 317 317 317 317 318 319 317 318 317
317 318 318 321 322 325 327 323 324 324 323 322 323 322 322 324 325 325 327 329 329 326 326 326 325 324 322 324 323 324 321 323 321 321 320 319 318 318 318 317 316 316 318 318 318 318 317 316 318
318 317 320 320 325 327 327 325 325 325 324 323 323 324 324 324 324 326 327 329 329 327 326 326 325 324 324 322 322 323 324 323 322 323 322 320 319 319 318 317 317 316 318 319 318 319 318 317 317
318 319 319 320 321 326 328 327 327 325 325 325 325 323 324 324 325 326 327 329 330 328 326 326 325 324 324 324 322 324 324 323 322 322 322 322 321 321 319 318 318 319 319 319 318 317 319 318 317
317 319 319 323 323 323 325 327 324 323 322 323 324 324 324 324 324 326 327 328 330 329 328 326 325 325 324 324 324 322 324 324 325 322 323 321 322 322 321 318 319 319 319 319 319 318 318 320 318

GFSSGP_850_thetae_069.txt.gz
Theta_e
312 312 314 321 318 315 317 319 319 320 325 326 326 326 325 327 331 339 340 337 336 339 337 339 339 338 337 337 335 331 329 328 328 325 323 321 317 317 319 315 313 317 326 330 323 320 322 326 328
312 315 319 321 316 318 318 319 320 322 324 323 324 323 324 332 338 341 340 339 337 336 336 335 339 338 338 337 338 335 331 328 329 326 323 318 317 317 313 320 326 328 332 333 330 325 321 325 327
312 319 320 315 315 318 319 320 319 320 321 322 323 324 325 332 330 335 329 328 323 340 336 341 337 338 338 337 338 337 332 329 329 327 322 318 317 314 321 330 330 331 332 333 328 324 324 325 324
313 320 321 315 316 317 319 320 320 320 321 322 323 323 331 331 328 327 323 322 322 327 340 338 339 339 334 337 339 338 335 331 328 329 321 317 316 321 328 328 330 330 331 331 323 321 322 323 324
314 318 313 314 315 317 319 320 321 320 322 324 324 324 331 331 328 325 324 323 323 326 331 339 341 339 339 335 338 339 337 333 329 330 324 319 318 325 328 328 327 327 329 327 319 321 323 323 324
316 317 312 313 316 318 320 322 321 321 321 321 321 324 333 332 329 328 327 324 323 326 329 332 339 338 339 337 337 338 337 336 332 331 324 325 325 327 329 328 326 326 328 315 318 321 321 323 323
314 313 313 313 316 318 319 321 320 320 320 322 326 325 333 332 331 330 327 325 325 324 328 330 335 337 337 337 335 336 335 328 335 332 327 329 327 327 329 328 326 320 323 315 316 317 318 322 322
318 313 315 316 317 318 320 322 322 321 321 325 324 323 332 333 332 331 329 327 330 330 325 328 331 337 335 336 335 334 333 331 326 330 330 328 327 325 329 326 322 314 311 313 311 312 315 321 321
319 316 315 315 317 318 320 321 322 322 322 323 322 322 326 332 333 330 331 333 334 333 331 328 329 334 336 336 334 333 332 327 325 324 324 328 330 326 326 325 318 312 309 310 310 309 312 319 321
316 314 315 316 317 318 318 319 322 320 321 322 322 324 331 333 328 329 332 334 335 334 332 330 330 331 332 333 332 331 326 325 325 324 323 332 331 328 326 320 314 310 309 309 309 310 318 320 321
317 316 316 317 318 319 317 317 319 320 320 320 321 331 330 329 330 331 331 331 332 334 333 330 327 331 332 330 329 325 324 326 326 325 327 329 330 328 321 318 310 309 309 308 307 314 319 321 321
316 316 317 317 318 317 316 319 317 319 321 321 321 325 329 331 332 331 332 331 333 334 331 329 330 331 331 331 326 324 324 326 324 324 329 330 329 323 321 312 308 308 307 307 308 310 315 320 321
317 317 317 317 317 317 318 316 317 318 319 321 321 324 326 329 330 330 330 329 330 330 327 328 330 331 332 328 325 325 328 326 325 328 324 328 324 321 324 312 309 310 310 309 308 309 314 321 322
317 318 318 318 318 317 317 316 317 318 319 319 320 325 325 326 329 330 329 329 328 328 326 329 329 329 329 325 324 326 325 325 326 328 327 326 323 320 325 312 312 313 312 310 308 308 318 321 321
317 317 317 317 317 316 317 316 317 319 319 319 319 325 327 327 330 329 328 328 328 328 326 328 328 328 329 325 325 326 325 325 325 327 328 325 322 326 325 314 314 315 313 310 313 311 314 320 321
318 316 316 317 317 317 316 317 316 319 319 319 319 324 327 328 329 329 328 327 327 328 324 328 328 328 326 327 326 325 325 325 325 327 329 326 325 325 324 317 316 316 313 319 320 319 319 320 320
317 316 316 317 317 317 315 317 317 319 318 318 319 325 327 328 330 329 329 328 326 327 324 328 329 327 326 326 326 324 326 326 326 326 326 325 324 323 322 318 317 317 316 323 323 321 320 319 319
318 317 315 316 316 317 316 316 317 319 318 322 323 325 326 329 331 330 329 329 325 326 327 326 328 327 326 324 325 324 324 325 325 326 326 324 323 321 319 320 318 318 317 320 323 321 320 319 319
317 318 317 316 317 318 319 319 316 319 319 320 323 324 324 329 330 331 330 329 325 327 327 326 325 326 325 323 323 324 324 325 326 325 324 322 322 319 320 322 320 320 321 320 323 322 320 319 319
317 317 316 317 318 319 319 319 316 317 317 319 322 323 324 328 331 331 329 328 326 325 328 326 326 324 323 324 324 324 323 321 322 323 324 322 320 319 323 322 322 322 322 322 322 321 320 320 319
316 317 317 318 319 318 318 318 318 319 318 319 320 324 324 327 330 330 329 327 327 325 328 327 325 324 323 324 324 323 321 322 324 324 323 322 319 322 323 321 321 322 322 321 320 320 320 319 318
318 318 318 318 318 318 319 320 317 318 319 319 318 320 324 326 329 329 328 327 327 326 327 327 324 323 323 324 324 323 322 323 323 323 323 321 320 322 322 321 320 321 320 321 321 320 319 318 318
318 319 318 319 320 320 320 317 317 318 320 319 317 318 323 325 329 329 329 328 327 325 326 328 326 322 323 323 324 323 321 323 323 322 321 320 322 318 320 321 321 320 319 320 320 319 318 318 315
316 319 320 320 320 322 321 318 317 318 320 321 319 319 322 322 329 329 329 328 327 326 326 327 327 322 322 323 323 323 321 322 321 321 321 318 318 317 317 320 320 318 315 314 314 316 316 315 316
317 319 324 324 321 321 320 320 319 319 321 322 320 319 322 322 328 329 329 328 327 327 326 327 327 323 321 324 323 322 322 321 321 321 320 317 317 316 315 316 316 315 315 315 317 316 316 319 319
316 319 323 327 327 324 322 321 320 320 320 322 321 321 321 323 329 330 329 329 328 327 327 326 325 324 323 320 323 323 322 321 321 321 320 318 317 315 315 315 316 317 315 317 315 317 318 319 317
318 318 317 320 320 323 324 322 320 320 321 320 320 321 323 324 328 329 329 329 328 328 327 326 325 323 322 321 323 322 321 321 321 321 321 320 317 317 317 316 316 316 317 319 319 317 318 318 316
318 317 319 319 325 327 325 326 322 323 322 321 320 319 322 325 325 329 329 329 329 328 327 326 324 322 323 322 321 323 321 322 322 322 321 321 318 317 317 316 316 317 319 319 318 317 317 318 317
317 319 319 320 321 325 328 328 323 320 321 322 321 321 322 322 324 325 329 329 329 328 327 326 325 324 324 322 321 322 323 322 321 321 321 321 321 319 318 317 316 316 317 317 316 316 316 317 318
317 318 319 323 325 322 320 323 321 319 319 319 319 320 321 322 322 325 327 329 329 328 327 326 326 325 324 323 324 322 323 323 322 321 320 321 321 321 321 318 318 318 318 317 317 317 316 317 318

GFSSGP_850_thetae_072.txt.gz
Theta_e
314 312 312 318 317 311 315 316 317 318 324 324 326 325 325 327 328 330 334 337 326 325 326 330 338 337 336 334 333 330 329 328 326 324 324 325 326 329 330 328 324 319 314 314 320 334 333 329 331
313 312 316 319 315 315 314 316 318 318 325 323 323 324 325 334 335 338 338 336 328 324 322 324 332 337 336 336 334 331 330 329 327 324 323 322 322 320 319 320 316 314 316 317 330 334 329 328 329
312 312 318 314 311 315 316 319 319 319 322 323 323 323 329 335 331 331 336 329 326 322 322 323 332 337 338 337 335 333 330 329 329 325 323 320 317 318 318 314 314 323 327 327 330 331 327 328 328
312 317 319 313 314 314 316 318 317 317 320 322 323 330 330 330 329 328 324 325 323 322 322 329 336 337 337 338 337 335 332 330 328 327 323 318 317 316 313 319 326 332 332 330 330 324 327 327 326
313 317 313 312 312 314 315 317 318 317 319 322 323 323 330 330 328 325 323 323 323 324 323 330 335 337 337 336 338 338 335 331 328 329 324 318 317 315 323 328 330 332 331 329 324 326 325 325 325
314 314 310 312 313 315 314 317 317 318 322 323 321 331 332 331 328 326 325 325 324 323 326 330 338 340 337 337 336 336 337 334 330 329 323 319 319 326 329 330 330 330 329 326 323 324 325 325 324
313 309 310 311 312 314 316 318 318 318 318 323 323 326 333 333 329 328 328 326 325 324 325 329 333 339 337 338 338 335 336 337 334 331 327 326 323 328 330 328 327 327 326 322 323 324 325 326 326
316 310 314 313 315 315 316 318 320 319 319 324 325 328 332 331 330 330 330 329 326 328 329 326 328 331 337 338 338 336 336 334 328 328 330 326 329 329 329 327 325 324 319 320 323 324 324 323 323
318 313 312 313 315 316 317 315 318 321 324 324 324 324 323 328 331 332 331 329 329 331 331 329 327 328 334 336 337 336 334 333 331 326 328 323 328 328 328 327 325 319 314 321 322 323 322 321 322
315 314 315 314 314 315 316 315 316 317 320 322 321 322 324 329 332 331 326 329 331 333 333 331 330 329 332 337 335 333 332 331 330 328 327 327 325 330 328 327 321 313 315 319 320 323 321 321 322
315 318 315 315 316 316 315 315 317 316 317 320 322 326 327 331 333 328 329 330 331 332 332 331 330 328 330 332 334 333 332 331 329 327 326 325 324 330 329 327 321 311 315 315 317 322 321 321 322
315 316 316 317 316 316 315 316 315 316 317 320 320 323 330 331 328 330 330 330 331 331 333 332 330 329 330 332 331 331 328 325 325 325 325 324 326 329 329 325 318 311 310 310 311 317 321 322 321
315 316 318 318 317 316 316 315 315 316 317 319 321 328 328 328 329 330 331 331 330 331 330 326 328 330 331 330 329 327 324 324 325 325 325 325 326 325 328 321 314 310 309 309 311 319 321 321 320
315 316 317 317 316 316 315 315 315 316 317 318 318 326 327 328 331 331 331 330 329 328 327 324 327 330 328 330 327 325 325 326 326 324 325 329 328 327 326 317 311 309 308 308 312 319 321 321 321
317 314 314 314 315 315 316 314 314 316 317 318 318 322 327 328 330 328 329 329 328 328 327 324 326 328 329 328 324 324 325 325 326 325 324 330 327 327 320 312 308 308 307 308 312 319 320 321 322
317 316 316 315 315 316 314 316 315 318 317 318 318 318 322 326 327 328 329 328 328 327 326 325 327 328 328 327 324 326 325 325 325 329 326 329 327 322 321 310 308 309 309 308 309 316 320 321 321
315 316 315 315 315 315 313 315 315 317 317 316 318 318 320 326 328 329 328 328 328 327 325 323 326 327 328 326 326 325 326 326 327 328 327 327 325 320 322 312 310 311 310 308 308 319 320 319 320
317 316 315 314 315 316 317 316 317 317 316 316 316 317 320 327 328 328 329 328 327 327 323 321 327 327 327 325 328 325 325 326 326 327 327 326 324 323 324 313 313 313 310 310 309 317 317 318 318
314 315 316 315 316 316 316 316 317 317 317 314 316 320 320 326 328 329 329 328 328 327 323 322 325 326 325 325 324 324 326 326 326 326 327 326 324 325 326 317 315 315 311 318 319 319 319 319 319
314 315 315 316 316 316 315 316 316 316 316 316 318 320 322 327 329 330 329 329 328 327 324 323 324 326 326 324 323 326 323 324 325 325 326 326 325 325 325 321 315 316 315 321 323 321 319 319 319
314 315 316 318 317 315 315 316 316 317 316 317 318 322 322 325 329 330 329 329 328 327 325 325 323 322 323 324 323 323 325 323 323 324 326 326 325 323 320 322 316 318 317 321 322 322 320 319 319
315 315 318 319 319 317 317 319 317 318 316 316 316 318 320 323 327 330 330 329 328 328 326 325 326 323 323 323 323 323 322 323 323 324 325 325 324 321 320 321 319 319 320 319 321 323 321 319 319
315 316 318 319 319 319 319 318 318 317 317 317 316 317 318 322 325 329 330 329 328 327 327 325 326 323 321 322 322 323 323 321 324 322 322 323 323 322 320 322 322 321 321 321 322 322 321 320 320
314 318 319 319 319 320 319 320 319 317 317 318 318 320 317 322 326 327 329 329 327 327 327 326 325 325 322 322 322 322 324 321 321 322 322 323 323 323 321 323 323 323 322 321 321 321 319 319 319
316 319 323 323 323 320 319 320 320 318 318 318 318 319 318 320 327 327 328 328 327 327 326 325 326 326 323 321 321 322 323 322 321 322 322 322 322 322 320 322 322 321 321 319 319 319 318 318 319
317 319 323 324 324 323 322 320 319 319 319 319 320 320 317 325 327 327 328 328 328 327 326 326 325 325 323 320 321 322 322 322 322 322 322 322 322 322 320 321 320 320 320 318 318 318 318 318 318
316 319 318 321 320 322 322 321 320 320 320 319 318 319 318 324 326 327 328 328 328 327 327 326 325 324 323 321 321 322 321 321 322 321 321 322 321 321 321 320 318 320 320 319 316 314 314 317 316
317 317 319 320 323 325 323 323 326 322 322 320 320 319 320 325 326 327 328 328 328 328 327 327 325 323 322 321 320 321 321 321 321 321 321 321 321 320 320 319 318 316 317 316 316 315 316 316 316
319 320 319 319 321 326 327 329 322 321 319 319 319 320 321 322 326 327 327 328 328 328 327 327 326 325 323 321 320 320 322 321 320 320 321 321 320 320 318 317 316 316 315 316 316 317 316 317 316
316 318 318 324 322 320 321 324 320 322 322 319 320 320 321 323 323 326 327 325 326 327 328 327 326 326 324 321 321 320 319 322 320 321 320 321 321 321 321 320 317 316 316 316 316 316 316 318 319

GFSSGP_850_thetae_075.txt.gz
Theta_e
314 313 312 317 316 310 314 314 314 316 320 324 325 324 323 324 323 323 327 327 324 323 321 322 330 335 333 331 328 328 328 328 328 327 331 334 336 337 337 334 332 330 326 322 324 328 330 330 331
314 312 313 319 315 314 312 314 317 316 320 324 325 329 327 332 334 333 331 331 326 323 322 321 326 334 335 332 330 328 328 327 326 326 328 333 335 336 335 333 331 327 322 318 325 332 332 329 331
312 312 318 313 311 313 312 315 316 317 319 321 321 323 327 332 332 330 331 327 322 322 322 322 324 332 336 334 331 329 329 328 327 325 324 325 331 331 332 329 324 319 316 326 328 331 330 329 330
312 314 317 313 314 312 313 316 316 315 319 320 320 328 329 329 328 328 326 323 323 323 323 323 325 332 337 336 334 331 329 329 328 325 324 324 324 324 322 321 317 319 319 327 329 330 328 328 328
312 317 314 313 314 311 313 315 316 315 317 319 320 327 329 330 329 327 324 324 323 323 323 324 325 332 335 337 336 334 331 329 328 327 324 322 320 319 318 315 316 325 328 329 330 327 328 328 328
312 313 310 313 312 313 312 314 315 315 317 318 320 326 330 330 328 325 324 324 324 324 324 329 328 335 338 337 337 337 335 331 329 327 324 323 321 319 315 318 327 332 331 329 327 328 327 328 327
309 307 310 310 311 313 314 316 315 316 316 316 323 329 331 330 329 326 326 328 325 325 323 324 331 334 338 337 336 336 336 334 332 331 327 325 322 322 327 330 332 332 330 325 326 326 326 325 325
314 308 311 310 314 313 314 316 317 316 316 320 323 330 331 329 330 327 329 327 327 326 325 325 325 329 333 338 336 337 336 335 332 328 329 325 325 325 327 329 331 331 328 324 325 325 324 324 324
316 311 309 311 313 313 315 314 316 317 317 317 322 325 325 328 330 330 330 328 328 326 329 329 328 325 327 335 337 337 336 335 332 325 325 326 328 326 327 330 328 328 327 323 324 325 325 325 324
313 311 311 311 313 313 314 314 315 315 315 316 317 323 323 326 328 329 330 329 328 327 329 330 330 329 329 331 334 337 337 334 333 331 327 325 327 327 325 327 326 327 326 323 324 326 326 324 324
314 314 312 314 316 316 313 314 315 315 315 316 316 318 324 326 328 328 330 330 326 329 332 330 330 330 329 331 333 332 334 332 331 329 326 325 327 325 325 325 326 326 325 324 324 324 322 322 322
314 313 315 316 316 315 313 315 314 314 315 317 317 317 325 327 327 328 330 327 329 330 331 330 331 331 330 334 332 331 330 331 330 330 327 327 325 325 326 325 327 326 324 323 323 323 321 321 321
313 314 316 316 316 316 316 313 314 315 317 317 316 316 328 326 325 328 330 328 329 330 330 329 329 328 328 330 331 332 332 330 330 329 328 327 326 324 325 325 328 323 323 323 322 322 321 321 322
311 312 313 315 315 316 315 315 314 316 317 316 316 317 328 327 327 330 329 330 330 330 329 327 324 325 328 329 330 329 328 325 325 325 327 327 326 324 327 325 327 320 322 322 321 321 321 321 321
314 314 313 313 313 313 315 313 313 316 317 317 316 316 327 327 329 328 328 327 329 329 328 327 322 326 327 327 329 328 326 324 324 325 325 325 325 327 327 326 327 318 319 318 321 320 321 321 321
314 314 315 315 313 313 314 315 314 317 317 316 316 316 323 327 326 327 329 328 329 329 327 325 320 325 327 328 328 325 324 325 325 327 326 325 325 325 326 328 325 316 314 314 314 320 320 320 321
313 315 314 315 313 313 311 314 313 316 316 314 315 315 318 326 328 329 329 328 329 328 327 325 320 326 327 327 327 324 325 325 325 326 325 324 325 327 326 326 319 311 311 311 314 320 320 320 322
314 314 314 314 313 314 313 312 313 316 316 315 316 317 314 321 326 326 328 328 328 328 327 324 319 325 325 326 326 325 324 326 325 327 327 324 327 327 326 325 317 310 310 310 317 320 320 320 321
312 313 313 312 313 315 314 314 313 313 314 313 316 317 315 316 319 327 328 328 328 328 327 324 319 322 324 327 326 325 324 326 326 327 327 325 325 326 325 320 313 309 308 309 317 319 320 321 321
312 313 313 314 314 317 313 313 314 314 313 315 315 316 315 316 321 326 328 328 328 327 327 324 320 321 323 326 324 325 325 328 327 328 326 323 324 322 319 320 309 309 309 308 310 317 320 319 319
313 313 314 315 316 316 315 316 315 314 315 317 318 315 316 318 321 326 328 328 328 328 327 325 321 320 322 324 323 324 324 326 326 327 327 327 326 325 320 321 310 311 310 308 308 317 319 318 318
315 313 314 318 319 318 314 318 316 315 315 315 315 315 317 319 322 324 328 328 328 328 328 326 323 321 322 322 323 323 324 323 325 325 325 326 326 325 322 324 313 313 311 310 310 314 316 316 318
315 314 317 318 319 318 318 317 316 316 317 317 315 317 317 320 322 325 327 328 328 328 328 327 325 323 321 321 323 322 323 323 321 323 323 325 326 326 324 325 317 315 315 314 320 322 321 320 319
314 317 318 317 319 323 318 317 317 316 317 317 316 317 318 318 320 324 327 328 328 328 328 327 326 324 322 321 322 322 322 322 323 323 323 324 324 326 326 324 321 317 317 317 319 322 321 322 320
316 318 321 322 322 322 317 318 317 316 317 318 318 318 319 318 319 325 326 328 328 328 328 327 326 325 323 320 320 321 322 322 322 323 320 322 324 324 323 321 320 320 318 318 319 319 320 322 320
316 317 321 322 322 319 319 320 318 318 318 319 319 320 319 318 318 323 325 326 328 329 328 327 326 324 324 322 320 321 321 322 322 321 322 321 323 322 322 322 320 320 322 320 320 320 320 321 320
318 318 316 321 320 320 319 320 319 320 319 318 319 317 318 317 319 324 325 326 327 328 328 327 326 324 324 323 319 321 321 322 322 322 321 323 322 321 323 323 321 321 322 321 321 321 320 319 320
316 316 319 321 322 323 321 322 324 322 322 319 319 319 319 321 325 324 325 326 327 328 327 327 326 325 324 323 320 320 320 322 322 322 322 321 321 321 322 322 321 321 321 321 321 321 318 318 318
318 319 318 318 320 325 324 328 322 323 323 320 320 321 322 322 325 324 324 325 326 326 327 326 326 326 325 323 321 320 321 321 321 321 322 321 321 321 321 322 321 320 320 320 320 319 317 317 317
316 318 318 322 321 319 322 323 320 321 322 319 320 322 321 322 324 325 324 324 325 326 326 326 327 326 325 324 323 321 320 319 321 321 320 320 321 321 321 321 321 320 320 319 320 320 319 318 317

GFSSGP_850_thetae_078.txt.gz
Theta_e
312 313 312 318 314 310 313 313 313 315 317 321 323 323 321 321 322 320 332 323 320 321 321 324 331 333 332 331 330 331 334 335 334 335 337 338 336 333 331 331 331 328 326 324 324 325 329 331 333
313 313 314 318 312 312 310 312 315 314 317 320 324 326 327 326 331 328 327 327 325 322 321 320 326 333 333 331 329 331 334 333 331 329 332 337 336 336 335 332 330 328 326 324 324 326 329 331 333
314 311 317 312 310 311 310 311 315 315 316 320 320 324 324 327 330 328 328 329 324 323 322 321 325 333 334 332 330 330 331 330 328 328 331 334 336 337 336 333 331 329 326 328 328 329 329 329 330
312 315 315 313 313 311 311 314 314 313 317 318 319 323 327 328 328 327 328 326 323 323 323 323 323 332 335 333 331 329 329 329 328 326 325 333 333 336 335 333 332 329 326 325 326 330 329 329 330
313 315 311 313 313 312 311 313 314 313 315 317 318 320 328 329 328 329 327 324 323 323 324 323 324 331 335 335 333 331 329 329 329 327 327 332 334 335 334 332 330 323 327 326 327 330 330 329 329
312 312 311 312 312 312 311 314 314 314 315 317 316 319 324 328 329 327 325 324 323 324 324 323 325 330 334 336 336 334 332 330 329 328 328 332 333 332 332 328 324 322 325 326 328 330 328 328 329
307 307 309 309 312 313 314 314 313 314 315 315 317 321 325 326 329 327 325 324 324 324 324 325 328 328 332 336 336 337 335 333 331 329 330 332 328 324 324 325 322 326 329 328 329 328 328 328 328
313 306 309 307 311 312 312 315 316 315 315 318 325 326 326 325 328 327 326 324 325 325 325 325 327 327 329 334 335 335 337 336 333 331 331 328 326 325 324 325 331 332 330 329 325 327 327 328 328
314 309 308 309 311 311 313 313 315 315 316 316 318 317 325 327 329 328 327 326 326 326 326 326 327 325 328 331 335 335 336 336 335 332 331 326 326 324 326 324 327 331 329 327 324 327 327 327 325
312 309 309 308 310 311 313 313 314 315 314 315 316 317 317 320 332 327 326 326 327 328 326 327 328 328 328 328 330 333 333 334 334 333 328 324 327 324 323 327 329 331 328 325 325 326 326 325 324
313 312 311 312 313 314 312 313 315 314 313 316 316 316 316 319 330 330 326 326 326 328 327 327 329 329 329 329 328 331 332 332 332 330 325 325 328 324 325 327 325 328 327 325 325 325 325 324 323
312 312 313 313 314 314 312 314 313 315 315 317 316 316 316 317 323 328 326 326 328 328 327 329 330 330 330 330 330 330 331 331 331 331 328 329 326 325 327 327 326 327 326 325 324 324 325 325 323
309 311 313 314 315 315 315 312 314 314 316 317 317 317 316 316 320 326 328 326 328 328 328 330 330 330 330 330 330 329 329 329 330 330 330 326 325 325 325 325 325 325 326 324 324 325 325 323 322
309 309 309 311 312 314 315 315 314 315 316 317 317 317 317 317 318 325 328 327 329 328 329 330 330 329 326 327 327 329 328 328 329 329 328 327 326 327 326 325 325 324 325 324 324 325 323 321 321
311 312 312 311 312 312 315 313 313 315 316 316 316 317 317 316 319 325 326 325 326 327 329 330 329 325 324 328 326 330 330 329 330 329 329 328 327 325 325 325 326 325 326 324 324 323 321 321 321
312 312 314 313 312 312 312 315 312 315 315 315 316 316 316 317 317 324 327 327 326 328 329 330 328 323 325 326 327 329 328 327 326 325 325 328 327 326 325 325 325 325 326 325 323 322 321 321 321
310 312 313 313 313 312 310 314 313 315 313 313 315 316 316 315 317 325 327 328 327 328 329 329 327 323 325 326 327 328 325 324 324 324 324 325 326 327 326 326 326 325 326 324 323 321 321 321 321
311 313 312 312 311 312 312 312 311 314 314 314 315 316 317 316 317 317 325 329 328 329 330 328 326 323 326 326 326 326 325 324 325 325 324 326 325 325 327 326 326 325 324 323 323 320 320 321 320
310 311 311 311 311 312 313 312 311 310 312 312 314 315 316 317 318 318 321 328 329 329 329 327 326 323 326 326 325 325 327 327 326 325 327 325 326 325 325 325 326 326 324 321 322 320 319 320 320
307 309 311 311 312 313 313 314 314 312 311 314 315 315 316 317 318 317 318 327 329 329 329 327 326 323 324 324 325 324 326 325 325 327 327 327 325 324 325 325 325 326 322 319 320 318 319 319 321
311 312 312 313 313 314 313 315 314 313 312 314 315 316 317 317 316 316 317 322 328 328 328 327 326 322 322 323 327 323 323 323 326 326 326 325 325 325 325 326 326 324 317 313 313 317 319 319 321
313 312 313 313 317 315 315 319 315 314 315 313 314 316 318 318 315 316 320 322 327 327 328 327 326 322 321 323 325 323 322 323 324 325 326 323 323 322 321 319 318 321 312 312 312 318 320 319 320
314 313 316 317 316 317 317 317 315 314 314 314 314 317 317 317 316 317 320 320 325 327 328 327 326 323 321 322 322 320 322 323 324 324 324 325 325 324 322 318 318 319 310 310 309 317 319 319 320
313 315 316 316 316 319 316 317 316 315 315 315 315 317 318 318 317 321 323 323 326 327 328 327 327 324 322 321 320 322 321 322 322 325 324 325 324 325 324 324 320 317 310 311 309 311 311 319 319
314 317 317 320 320 319 316 318 317 316 315 315 316 317 318 318 317 320 322 324 326 327 328 327 327 326 323 322 321 321 322 322 322 323 322 322 323 325 324 325 322 321 315 313 310 309 310 317 317
315 316 315 321 322 320 317 317 317 319 319 318 319 319 320 318 316 317 319 321 325 327 328 328 327 326 324 322 321 320 322 322 322 322 320 320 321 323 323 325 324 324 316 314 315 314 317 319 319
317 320 316 319 318 321 318 317 320 321 321 319 319 321 321 322 320 317 320 321 324 326 328 328 327 327 324 322 321 320 321 321 322 322 320 321 320 321 324 323 323 322 321 319 317 315 316 318 319
316 316 320 319 320 323 319 321 324 323 322 320 320 320 321 321 323 320 323 324 325 326 327 327 327 327 325 323 322 320 321 321 321 322 321 321 321 321 321 322 322 322 321 320 320 318 317 319 318
317 318 317 319 321 320 321 322 322 323 322 320 320 317 318 322 323 323 323 324 325 325 326 327 326 326 325 324 323 321 319 321 320 321 321 321 321 321 321 320 321 323 322 321 321 322 321 320 320
316 317 316 321 320 320 320 319 321 321 319 320 317 316 316 316 321 323 324 325 326 326 327 327 325 326 325 324 323 322 320 320 321 320 320 320 320 320 320 319 320 321 322 321 321 321 321 321 321

GFSSGP_850_thetae_081.txt.gz
Theta_e
312 314 312 319 319 317 317 316 315 318 319 318 320 321 323 322 331 328 330 333 328 321 321 322 324 328 330 331 331 333 334 335 336 337 338 340 340 338 332 329 330 329 327 326 326 327 328 329 329
312 314 313 317 318 315 315 316 318 318 318 317 322 324 326 327 327 328 330 321 321 321 321 321 323 327 331 332 332 332 334 335 336 337 338 339 339 336 331 329 331 328 326 325 326 326 327 329 331
314 312 316 320 317 314 314 315 319 317 316 317 320 325 323 327 330 327 325 324 324 322 321 321 322 326 332 332 331 330 333 334 335 337 338 339 338 335 331 330 331 328 326 325 324 325 327 330 332
314 313 314 317 316 316 314 316 316 316 316 317 319 321 325 326 327 327 328 327 324 323 322 322 322 327 331 333 331 330 332 333 333 334 334 336 337 335 332 333 331 328 327 325 327 329 330 332 331
313 313 315 317 316 315 313 314 314 316 315 316 316 319 324 323 326 327 328 328 323 323 323 322 323 326 331 334 332 331 330 330 329 330 332 333 334 334 335 333 332 330 329 327 328 328 331 331 330
313 313 314 313 314 315 315 314 315 315 314 316 316 317 320 319 324 327 328 326 323 323 324 323 323 325 330 334 334 332 330 329 329 328 329 332 331 336 335 333 333 331 329 326 328 330 331 330 330
312 314 313 312 313 315 315 313 314 315 315 316 318 319 321 323 325 327 327 325 324 324 324 324 323 325 331 334 335 334 332 330 330 330 330 332 333 332 333 332 331 328 325 327 328 331 329 329 329
311 312 311 312 313 314 314 313 315 315 316 316 321 326 323 326 329 328 326 325 324 324 325 325 324 325 327 332 335 336 334 333 331 330 330 331 331 330 329 326 324 325 323 327 328 330 328 328 329
312 313 313 312 312 313 313 314 314 314 315 315 316 318 317 319 327 330 327 326 324 325 325 325 325 325 325 330 334 336 337 336 334 332 330 330 330 329 326 327 323 322 325 329 330 330 327 329 328
314 313 313 311 312 313 313 313 314 314 315 315 315 315 317 317 323 330 329 326 325 325 326 326 326 326 325 325 330 336 336 336 336 334 332 330 330 326 326 325 324 325 330 329 329 327 327 329 330
313 313 312 312 312 312 313 314 313 314 315 315 315 316 316 316 318 327 329 328 326 326 326 327 326 328 327 327 329 333 332 333 332 333 332 331 326 325 325 325 324 327 330 329 328 328 328 329 328
312 313 313 312 313 313 313 313 313 314 315 315 315 316 316 316 316 316 323 328 327 328 327 327 327 329 328 328 329 332 330 331 330 331 331 329 326 325 327 324 324 327 329 327 327 328 328 326 324
311 311 311 312 312 313 314 314 315 315 315 315 316 316 316 317 317 317 317 323 329 328 329 328 328 329 329 329 330 330 329 330 330 330 330 328 324 325 327 323 325 328 329 327 326 327 326 325 323
310 309 310 310 312 312 313 313 314 314 314 314 315 316 317 317 317 316 317 320 326 329 330 329 329 330 329 328 328 329 328 329 329 329 330 328 326 326 326 325 326 326 327 326 325 325 325 324 324
309 310 311 313 313 313 313 314 314 314 315 315 316 316 317 317 316 316 316 320 323 328 330 330 329 330 329 323 325 330 327 328 328 328 329 328 329 328 325 326 327 326 326 325 326 324 325 325 323
309 310 311 314 313 314 313 314 314 314 314 314 315 315 316 316 316 316 317 319 324 327 330 330 330 330 328 322 326 328 327 328 327 328 328 328 327 326 325 327 327 326 324 324 325 325 325 323 322
308 310 313 314 314 315 314 315 315 313 313 313 314 314 315 316 317 317 317 317 323 327 330 330 330 330 326 323 326 325 328 328 328 329 329 330 329 327 326 327 326 325 326 322 326 325 324 322 321
309 311 313 313 313 313 314 315 315 314 314 314 314 315 315 316 317 318 317 317 321 328 330 330 330 330 324 324 325 326 328 327 327 326 325 325 326 328 327 327 326 325 326 325 326 324 323 321 321
308 309 310 310 311 312 312 313 314 314 315 316 315 315 316 316 317 317 318 317 317 328 330 329 330 329 324 324 325 326 326 325 325 324 325 324 324 325 327 327 326 326 326 326 326 324 323 321 321
309 309 309 311 312 313 313 314 314 315 315 315 316 316 316 317 317 317 318 318 318 324 330 329 330 328 325 324 324 327 327 325 325 325 325 327 326 324 325 325 326 326 325 325 326 324 322 321 321
310 311 312 313 313 313 314 315 314 314 315 315 315 315 315 316 316 317 318 318 317 322 328 329 329 327 325 324 324 324 323 324 324 324 325 324 326 326 325 326 325 325 325 325 324 324 322 320 320
314 313 313 314 315 317 316 319 316 315 315 316 316 316 317 317 317 317 318 317 317 320 327 329 329 327 325 324 323 324 323 322 323 324 325 325 324 324 324 326 326 325 325 325 322 324 322 320 320
315 314 315 315 316 317 316 318 317 316 317 317 317 316 317 317 317 317 318 316 317 323 328 329 328 327 325 323 322 324 321 321 323 324 325 324 325 323 323 324 324 324 325 325 321 324 322 320 320
314 315 315 316 316 318 316 317 318 318 318 317 317 316 317 317 317 316 316 317 320 322 327 329 328 327 325 322 322 322 321 321 323 324 325 324 323 322 322 323 324 324 323 321 316 317 319 318 319
315 316 317 318 319 318 316 317 318 318 322 320 321 321 321 321 315 317 319 319 320 321 326 328 327 326 325 322 321 321 322 321 322 323 323 323 324 324 322 320 321 321 318 311 313 313 313 314 319
316 316 317 319 321 320 318 320 320 322 320 321 321 321 321 322 321 315 320 322 322 323 325 327 327 326 325 323 321 321 322 321 321 322 322 322 322 323 322 322 318 317 315 312 311 310 311 314 319
316 317 316 317 318 320 319 318 322 322 321 321 321 319 319 321 322 322 317 322 324 324 326 327 327 327 326 323 321 320 321 322 321 322 321 320 320 320 322 323 323 323 318 315 310 310 310 311 314
317 316 320 319 319 321 320 321 323 323 322 320 319 318 317 319 322 320 320 322 324 325 326 325 327 327 326 323 321 320 320 321 321 322 320 321 319 319 320 322 322 322 321 321 314 313 314 311 311
317 319 317 318 320 320 320 320 322 321 319 320 316 315 315 314 320 323 323 324 324 324 325 324 326 327 326 323 322 321 320 321 321 321 321 321 320 320 320 321 322 322 322 322 320 317 316 313 313
315 316 316 318 319 320 318 320 321 320 318 317 313 311 312 312 314 321 323 322 323 322 322 324 328 327 325 323 322 321 320 321 320 321 320 319 320 320 319 319 319 321 321 322 321 321 320 319 317

GFSSGP_850_thetae_084.txt.gz
Theta_e
311 311 315 318 321 319 320 319 319 323 324 323 324 322 326 326 331 330 333 333 330 327 321 322 322 322 323 328 332 334 337 338 339 338 339 339 338 337 335 332 331 331 330 328 328 331 331 331 331
315 314 315 319 318 319 320 320 319 321 322 321 321 324 326 326 328 332 339 333 328 321 322 322 321 324 325 330 332 333 334 334 335 337 339 339 338 338 335 332 330 331 329 331 329 333 333 329 330
314 314 317 318 320 319 319 319 320 322 319 321 324 327 327 328 333 333 335 322 322 322 322 322 321 323 325 330 332 332 331 332 336 337 340 340 339 338 335 332 331 332 333 332 332 333 330 329 330
315 314 316 318 318 319 318 319 321 322 319 319 321 324 324 328 333 334 329 322 324 323 322 322 321 321 325 329 332 331 330 331 335 337 339 340 339 337 334 332 331 335 333 333 332 332 330 329 331
315 316 317 317 317 318 319 318 318 322 321 319 317 321 323 327 328 328 327 325 324 323 323 323 321 320 324 329 332 332 331 331 334 335 336 337 337 337 334 332 332 330 332 330 331 330 330 331 331
316 316 317 318 318 318 318 317 317 318 318 318 317 319 321 326 331 329 327 327 325 323 323 323 322 321 321 328 332 332 331 331 331 331 333 334 334 335 333 333 332 331 330 330 331 328 330 332 331
316 317 317 318 318 316 317 316 317 316 316 317 318 320 321 326 332 338 334 331 324 323 324 324 322 321 322 326 332 333 332 331 331 330 330 332 332 333 333 334 333 332 332 331 328 329 329 332 331
315 317 318 318 317 317 316 316 315 316 317 318 319 323 324 325 327 331 342 333 324 323 324 325 323 322 324 325 331 334 333 331 330 330 330 332 331 331 334 332 331 329 329 328 326 326 329 330 330
314 317 319 318 317 317 316 316 316 316 316 316 317 319 320 323 320 337 342 341 331 324 325 325 324 323 325 327 328 334 334 333 332 331 330 332 332 332 329 327 330 328 326 323 325 327 329 329 330
315 318 318 319 317 317 316 316 316 316 317 317 317 317 317 322 325 332 339 339 339 332 327 328 325 324 325 328 328 334 335 335 334 333 332 331 331 331 330 330 327 326 325 323 321 326 327 327 329
316 317 318 316 315 315 316 316 315 316 317 316 316 316 316 319 319 327 331 336 336 337 328 328 326 325 326 325 326 334 336 335 335 335 334 332 330 330 330 328 326 325 324 324 326 328 327 329 328
316 315 315 315 315 314 316 315 316 316 316 316 316 315 316 316 317 318 324 330 335 336 329 326 327 327 327 326 327 328 334 339 336 335 333 333 331 330 330 326 325 325 325 326 326 328 327 329 329
313 313 313 313 313 313 313 315 315 315 316 316 316 316 316 316 316 318 320 323 330 336 337 326 327 327 328 328 327 329 332 333 332 333 331 331 332 330 328 327 327 325 325 327 328 328 328 329 328
314 313 314 313 314 314 315 315 315 315 315 315 315 316 316 316 316 318 319 321 324 332 337 329 327 328 329 330 328 329 331 331 330 331 330 330 330 328 327 327 327 325 326 328 328 327 328 327 328
312 312 313 313 313 314 314 317 317 315 314 315 316 317 317 317 316 318 319 321 325 330 335 333 328 329 330 331 330 328 329 330 329 329 330 330 330 327 327 326 327 326 326 327 327 326 326 327 327
310 311 313 313 316 316 316 316 316 315 316 317 317 317 317 317 316 317 318 321 325 331 334 334 329 329 330 331 328 323 324 328 328 328 328 328 330 329 325 326 328 326 327 327 325 327 327 326 326
310 310 311 314 315 316 316 317 317 316 316 317 317 317 318 318 316 318 319 322 326 332 334 332 329 330 330 331 324 324 322 328 327 328 328 328 329 328 327 328 328 327 326 327 324 326 326 325 325
310 310 312 313 314 314 314 315 316 315 317 317 318 318 318 318 317 318 319 323 327 331 334 334 329 330 330 330 323 325 324 328 328 328 328 327 327 327 327 327 327 327 327 326 324 325 325 325 324
310 309 309 310 311 312 313 315 316 316 316 317 318 318 318 318 318 318 319 322 328 331 334 333 329 330 330 329 323 324 326 328 329 328 330 329 328 327 327 327 327 326 327 326 324 321 324 324 324
310 310 311 312 312 314 315 316 317 317 317 317 317 318 319 318 318 318 318 322 326 330 331 330 329 329 330 329 324 323 324 328 328 328 326 326 325 325 325 326 326 327 326 326 323 317 324 324 323
311 311 311 313 315 316 317 318 318 318 317 316 316 316 318 318 318 318 318 320 327 329 329 325 328 330 330 327 323 324 324 325 325 325 324 325 325 325 325 324 325 326 326 325 324 324 324 324 323
311 313 314 315 316 318 318 319 319 319 319 318 318 318 317 318 318 318 318 319 325 328 331 325 329 329 330 327 324 324 324 324 325 325 324 326 324 325 325 326 324 325 325 326 325 325 324 323 323
314 315 315 316 317 318 318 320 319 319 320 321 320 319 318 318 319 319 319 318 325 329 331 327 329 329 329 327 326 325 324 324 325 323 325 325 324 324 324 324 326 325 326 325 325 325 324 323 322
314 315 315 316 317 320 318 319 320 321 323 323 323 322 322 322 322 321 320 320 324 329 332 328 329 329 328 326 327 325 324 323 323 323 326 325 324 323 323 324 324 325 324 325 324 325 324 323 323
315 315 314 320 321 319 318 320 320 323 323 324 325 324 324 324 325 325 323 324 326 330 330 328 329 329 327 326 327 323 324 323 322 324 325 325 324 323 323 323 322 324 324 325 325 324 322 323 322
315 313 315 317 319 319 319 321 323 323 323 323 322 322 322 322 325 326 323 326 327 330 330 329 329 328 327 327 324 321 325 322 322 323 324 324 324 324 323 322 323 324 324 324 323 318 318 323 323
316 318 316 319 318 320 318 320 323 322 322 321 320 319 319 319 321 326 323 327 327 329 328 330 328 328 327 324 321 321 324 323 322 322 323 323 323 323 323 323 322 320 323 322 320 316 310 311 318
316 316 319 319 320 320 319 320 323 324 322 320 320 318 316 315 316 322 325 327 328 328 326 327 328 326 326 324 321 320 322 323 323 323 322 322 321 320 321 323 322 322 318 319 319 314 312 312 312
318 318 318 319 320 322 319 321 323 322 319 319 319 315 313 312 312 317 326 326 327 325 325 326 327 324 326 324 321 320 321 322 322 321 322 321 320 320 321 322 323 322 321 318 317 313 315 311 311
315 317 318 320 321 320 322 321 322 321 319 318 315 313 310 309 308 311 322 325 324 323 323 323 325 325 325 323 321 320 320 321 322 320 323 321 320 320 321 321 322 322 322 321 320 318 315 314 311

GFSSGP_850_thetae_087.txt.gz
Theta_e
311 313 317 318 321 322 321 323 324 323 324 324 325 324 326 327 330 334 336 340 341 343 327 325 321 322 323 326 330 333 336 339 340 339 339 339 337 335 335 333 332 333 340 338 336 334 331 332 332
315 317 318 318 322 322 323 324 323 323 323 324 325 325 325 327 328 333 336 340 341 341 322 323 323 322 322 325 330 333 335 337 338 339 338 339 338 336 336 334 332 332 336 335 330 331 333 331 332
317 318 317 319 321 322 322 324 323 322 322 322 323 326 327 327 329 330 338 340 339 336 331 323 322 321 321 324 329 332 333 334 334 335 338 339 339 337 336 335 333 332 338 331 334 333 333 331 331
318 317 316 320 321 322 323 323 322 322 322 321 323 325 327 328 332 332 338 338 338 338 339 323 322 321 320 322 328 331 332 332 333 335 335 339 339 337 337 335 334 333 337 332 332 333 332 330 330
317 317 319 320 320 321 322 321 320 322 323 322 321 322 324 327 328 333 336 338 339 340 339 323 323 320 320 321 326 331 331 332 332 334 334 338 338 338 337 336 333 332 334 333 333 333 330 329 331
319 319 321 321 321 322 322 321 320 320 321 322 322 321 321 325 329 332 335 339 340 341 325 323 322 320 320 321 326 330 332 331 332 334 335 336 337 338 337 335 333 333 335 333 332 331 329 329 332
320 321 320 321 321 322 322 320 321 320 320 319 318 321 321 324 331 336 335 339 342 342 327 324 323 321 320 321 326 331 332 332 332 332 333 335 335 336 335 334 333 333 332 332 331 331 328 331 332
319 321 321 321 321 321 321 319 319 318 319 318 319 320 321 326 327 335 339 340 343 344 332 324 324 322 321 322 325 330 333 332 332 332 331 333 333 334 335 333 333 331 331 332 331 328 327 327 330
318 320 321 321 321 321 320 320 319 318 318 318 318 319 321 324 325 334 339 342 344 344 340 325 325 324 323 322 324 330 333 333 332 331 330 330 333 333 333 333 333 329 329 329 327 326 325 326 328
319 320 320 321 321 321 320 319 319 319 319 318 318 317 318 320 322 327 336 341 343 342 344 342 326 325 325 327 326 327 332 334 333 332 332 331 333 333 332 332 332 327 328 328 325 325 323 325 328
318 319 319 319 320 319 319 319 318 319 319 319 319 318 318 318 321 321 328 336 339 340 342 344 340 327 326 329 338 338 338 336 336 336 336 336 333 333 333 332 331 328 329 327 326 325 323 325 329
319 318 319 318 318 318 318 317 318 318 318 318 318 318 318 318 319 320 322 328 335 337 340 343 343 329 332 339 338 338 336 335 335 335 335 335 334 334 331 331 330 329 328 326 326 326 325 326 328
316 316 316 316 315 315 316 317 317 317 317 317 317 318 318 318 317 319 320 322 327 335 338 342 341 330 338 334 329 330 331 331 334 335 334 334 333 332 332 331 330 329 326 326 325 326 326 329 329
314 316 315 315 315 315 316 317 316 316 316 316 317 317 318 318 318 318 318 320 323 330 336 341 341 335 334 327 327 327 328 328 336 335 333 333 333 332 332 331 330 328 328 326 325 325 328 328 328
314 315 315 315 314 315 314 315 316 316 316 317 317 317 317 318 318 318 318 320 322 325 330 340 341 340 334 328 331 329 329 328 335 333 330 331 330 331 331 331 329 328 328 325 326 325 328 327 327
312 312 313 314 315 316 315 316 318 317 317 318 317 317 318 318 319 319 317 319 321 323 326 337 341 339 338 338 338 334 329 335 332 329 329 331 331 330 330 330 328 328 328 326 326 326 326 326 328
312 312 313 313 314 316 317 318 318 317 318 319 318 318 319 319 319 319 318 319 321 322 327 334 341 338 337 338 337 335 330 327 330 328 329 329 329 330 330 329 328 327 327 326 326 328 324 326 326
311 312 313 313 314 315 316 317 316 315 316 317 317 318 319 319 319 320 318 318 320 323 328 335 341 338 337 338 334 331 327 324 329 327 328 329 329 329 330 330 328 326 327 327 327 323 323 324 324
312 312 312 313 313 312 313 314 315 315 315 317 317 317 319 319 320 320 319 319 321 326 331 336 340 337 338 335 330 330 325 326 327 326 328 328 328 328 329 328 328 328 328 327 327 326 323 326 324
311 312 312 312 313 314 315 317 317 317 317 317 318 318 318 319 320 320 320 319 323 328 333 336 339 337 337 331 332 330 327 329 327 328 328 328 328 328 329 327 327 328 328 327 327 325 324 323 323
311 311 313 313 313 316 317 318 318 319 320 319 319 318 318 319 320 320 320 319 323 328 332 336 337 337 336 333 333 331 329 327 326 328 328 328 328 328 327 326 326 328 328 327 327 325 323 322 323
313 312 312 313 315 316 318 320 319 319 319 320 320 320 319 318 319 320 320 319 321 328 331 334 336 336 336 334 332 330 329 327 327 327 330 328 327 327 326 326 326 326 326 327 326 325 323 320 323
312 313 315 316 317 318 317 318 318 320 321 323 323 322 322 320 319 319 320 320 319 324 330 334 335 335 335 334 332 330 329 327 327 328 327 326 325 325 325 325 325 325 325 325 324 325 322 319 323
313 314 316 315 317 319 317 317 317 321 325 324 325 324 325 325 324 322 322 321 320 322 330 335 334 334 333 333 332 331 329 327 327 327 327 325 325 324 325 324 324 325 325 325 326 326 319 323 323
313 315 317 318 320 319 318 319 319 324 324 324 324 323 324 324 325 328 326 323 321 324 331 335 333 334 332 332 332 330 328 326 326 326 325 325 325 323 323 322 324 324 324 324 326 326 322 324 323
315 316 316 314 316 320 319 319 321 324 322 321 322 322 323 323 322 324 329 326 325 325 331 334 332 332 331 332 332 330 327 326 325 325 325 325 324 324 323 322 323 322 324 324 324 325 323 324 324
314 315 315 315 316 318 318 317 324 323 323 322 321 320 321 321 320 321 324 326 328 329 333 332 329 330 330 332 331 328 326 325 325 326 325 326 324 324 324 323 322 322 322 323 323 323 324 323 324
315 315 318 318 318 319 317 318 324 325 322 321 321 320 319 319 317 319 321 327 329 332 330 330 328 330 331 332 329 325 325 325 326 325 324 324 324 324 323 323 322 322 322 322 322 323 322 318 316
315 318 318 318 319 320 321 324 325 322 321 320 319 319 317 316 313 317 321 326 329 328 328 327 326 326 330 329 325 323 325 324 323 323 323 323 323 322 322 322 322 322 321 322 322 321 320 319 318
316 316 317 319 318 319 321 322 322 321 320 320 319 317 314 312 310 314 315 321 326 326 326 327 328 326 326 327 323 321 326 324 323 323 322 322 322 321 321 322 322 323 322 322 320 321 321 320 319

GFSSGP_850_thetae_090.txt.gz
Theta_e
309 312 313 320 319 321 320 320 323 324 324 324 325 326 325 325 334 337 340 340 336 325 327 326 323 321 321 322 324 329 335 339 340 340 340 340 339 336 335 334 332 332 335 337 335 337 337 333 331
310 315 318 319 319 320 321 323 324 324 324 326 325 325 325 325 329 335 339 341 342 323 326 323 323 322 322 322 324 327 333 337 339 339 339 339 339 338 335 335 334 333 337 338 337 336 332 331 331
313 318 319 319 318 320 322 323 324 324 323 323 322 323 325 326 327 334 339 340 342 331 322 324 322 322 321 321 323 328 332 335 337 338 339 338 338 338 336 335 335 334 337 336 334 333 334 331 331
315 321 319 318 319 321 320 322 324 323 323 322 322 322 326 329 333 333 339 338 337 339 325 323 322 322 321 320 323 328 331 333 334 335 336 337 338 338 336 336 336 334 335 336 332 333 332 330 329
317 320 319 319 319 320 322 322 323 322 322 323 322 323 324 327 328 335 338 337 337 340 329 323 322 321 320 320 321 327 330 332 332 332 334 336 338 338 337 336 336 334 334 333 333 333 331 330 330
319 319 320 320 320 321 322 322 322 322 321 323 323 322 321 322 328 332 337 338 339 341 331 323 322 320 319 319 321 325 330 331 331 331 335 335 338 338 337 337 336 334 334 333 333 333 331 330 330
322 321 321 321 321 321 322 322 323 322 321 321 321 322 321 322 328 333 335 338 340 341 330 323 322 321 319 319 321 324 330 331 331 332 334 336 337 338 337 337 335 333 333 333 329 330 331 327 330
321 322 321 321 322 321 322 321 321 320 321 320 320 321 320 326 329 335 337 338 341 342 337 324 323 322 321 320 320 322 328 331 332 333 333 335 336 336 337 336 335 333 333 333 325 326 328 326 328
320 321 322 321 321 322 322 322 321 320 319 319 319 319 320 325 327 328 335 339 342 344 341 329 324 323 322 321 320 321 325 330 332 332 332 333 334 335 335 335 335 333 333 332 331 328 328 324 326
318 322 320 320 321 321 322 321 321 320 320 319 319 319 319 321 323 326 334 339 342 345 345 337 326 328 324 322 321 321 324 328 332 332 332 331 331 332 333 333 334 332 331 330 329 327 326 325 323
316 319 319 319 319 319 320 320 320 320 320 319 320 319 319 318 318 321 325 334 341 344 345 342 328 327 325 324 323 321 322 325 331 333 332 331 331 333 333 333 333 332 330 329 327 328 325 323 325
317 317 318 318 319 319 319 319 319 319 320 319 319 319 319 319 319 319 321 325 333 342 343 343 343 336 326 326 325 331 334 334 336 336 336 336 335 334 333 333 332 332 329 328 328 327 326 324 324
317 317 318 318 317 318 317 317 317 318 318 318 318 318 318 319 319 319 319 320 325 334 341 341 344 342 330 332 335 337 338 334 336 336 335 335 335 334 333 333 332 332 331 330 328 327 326 325 325
315 314 315 315 316 315 316 316 316 316 316 316 317 317 317 318 318 319 318 319 320 324 335 340 342 339 335 336 340 334 329 326 331 334 332 332 333 333 332 333 332 331 330 329 328 326 326 326 325
315 315 316 316 316 316 316 316 317 316 316 316 316 317 317 317 318 319 319 318 319 320 326 340 339 340 337 341 332 328 326 327 326 326 330 333 333 334 332 331 332 331 330 329 327 326 325 325 326
314 314 313 313 313 314 314 314 314 315 316 318 318 318 317 318 318 318 319 319 319 320 323 337 338 339 337 339 333 328 328 328 328 325 327 332 331 332 331 331 331 331 330 329 328 325 325 326 328
313 312 313 312 314 315 314 315 317 317 317 318 318 318 319 318 318 318 318 319 319 319 322 331 337 336 338 338 339 339 333 328 326 325 328 331 331 332 331 330 331 330 329 328 327 325 325 325 327
313 313 313 313 314 314 314 315 316 316 316 315 315 318 318 318 319 319 319 320 319 318 321 333 337 335 339 338 339 338 336 330 325 332 330 329 329 331 330 330 330 329 328 327 327 325 326 325 326
312 313 314 314 314 313 314 314 313 314 315 315 315 314 315 317 318 319 320 320 320 319 320 331 335 334 339 337 339 337 334 329 326 324 324 326 329 329 329 328 329 329 328 327 327 324 325 325 326
312 313 312 312 313 313 313 313 315 316 317 317 316 316 317 317 318 319 320 320 320 319 321 331 332 334 338 336 339 334 331 329 326 322 323 329 328 328 328 327 329 330 329 327 327 325 324 324 324
312 312 311 311 312 313 314 314 315 316 317 317 317 317 317 317 319 319 320 320 320 319 325 334 334 337 338 337 338 333 332 331 329 326 325 328 328 328 327 327 328 327 327 327 326 327 324 322 322
313 313 313 313 313 312 314 317 317 317 317 319 320 320 320 320 319 319 320 321 320 323 326 333 337 339 337 338 335 333 331 330 327 325 325 326 328 328 327 327 327 327 327 328 328 327 326 323 324
313 313 313 314 315 316 316 317 316 316 317 319 324 324 326 326 323 319 319 321 321 323 326 329 338 339 338 338 335 334 331 330 328 325 327 327 328 328 327 328 327 326 326 326 327 326 326 323 322
313 313 313 314 315 318 315 316 316 316 325 326 325 324 324 325 325 327 327 322 320 323 325 330 336 338 338 337 335 333 331 329 328 327 326 327 326 326 325 325 325 325 326 325 325 325 325 325 321
315 314 314 315 318 318 316 319 317 323 325 324 324 323 323 324 324 324 326 329 327 323 329 331 335 337 336 335 334 333 331 329 328 326 327 325 327 325 324 324 324 324 324 325 325 323 324 324 321
314 315 314 317 318 317 318 323 320 324 323 322 322 322 322 323 322 323 324 326 327 327 332 335 336 335 335 334 333 332 331 329 327 327 327 326 325 324 323 323 323 323 324 324 325 325 325 324 321
313 318 314 318 317 318 315 321 321 324 322 321 321 321 320 320 320 319 320 325 328 329 333 335 335 334 335 333 332 332 330 328 327 326 326 325 325 325 325 325 323 323 322 323 324 324 324 325 323
314 315 318 318 320 316 315 316 319 322 322 320 320 320 318 317 316 314 318 326 331 332 331 331 333 332 332 332 333 331 329 326 326 325 325 325 326 324 324 324 324 322 322 322 323 323 324 324 322
314 316 317 318 318 319 322 324 322 321 322 319 319 318 316 314 313 311 319 325 328 329 330 332 331 330 329 331 333 330 327 326 324 325 325 325 324 324 323 323 323 322 322 322 322 322 323 323 324
314 315 316 318 318 317 320 321 319 320 320 320 319 317 314 311 310 310 314 319 325 327 327 325 327 329 329 331 330 327 325 324 325 324 324 323 324 323 322 322 322 322 321 322 322 322 323 323 323

GFSSGP_850_thetae_093.txt.gz
Theta_e
309 309 314 318 315 312 314 315 317 318 318 325 325 325 323 323 333 340 341 339 335 326 326 325 324 323 321 320 322 327 330 337 340 340 340 340 339 336 335 334 331 332 332 334 335 336 335 335 334
309 310 317 318 313 312 313 317 318 319 324 324 324 323 323 323 337 342 340 338 328 325 326 325 322 322 322 322 322 324 329 334 338 339 340 339 339 338 335 335 333 333 333 335 334 336 337 334 332
308 316 318 313 312 313 313 316 318 320 323 322 322 323 324 326 336 339 338 328 322 325 325 322 323 321 321 321 321 324 329 333 336 338 339 339 339 338 336 336 335 333 334 336 335 335 334 331 331
310 317 318 313 313 312 315 316 317 318 321 322 321 321 325 328 334 339 339 334 324 323 322 323 322 322 321 321 320 323 327 331 334 337 338 338 338 338 337 336 336 334 335 335 333 332 332 331 331
315 317 315 313 313 314 315 317 318 318 319 322 322 321 322 329 332 339 338 337 327 322 324 322 322 322 320 319 320 322 327 330 332 334 336 336 337 337 337 336 336 335 334 334 331 332 332 330 330
314 318 314 316 316 316 316 318 318 319 320 322 321 321 321 325 330 337 337 336 335 325 326 323 322 320 319 319 319 321 326 329 331 332 332 335 338 338 337 336 336 335 334 334 332 332 332 327 328
315 314 315 314 316 317 318 320 319 319 319 319 321 321 322 326 329 334 337 335 336 333 332 326 322 320 319 318 318 320 324 328 330 331 333 335 337 338 337 336 336 335 334 334 332 332 331 328 325
318 316 319 317 317 318 318 320 321 320 319 320 319 318 319 329 333 336 336 336 335 333 333 328 322 321 320 319 319 318 320 325 329 331 333 334 336 337 337 337 336 336 334 333 332 328 327 326 323
318 319 320 319 318 318 320 318 320 320 319 319 319 318 323 326 329 335 338 338 337 336 331 329 324 322 321 320 320 319 319 322 327 330 331 333 334 335 336 337 336 336 333 333 333 328 326 328 322
312 315 318 317 318 318 319 316 317 318 319 319 319 319 320 324 324 324 329 340 339 338 339 335 329 323 322 322 321 320 320 319 323 329 331 331 332 333 334 335 335 335 333 333 331 327 327 326 324
313 313 314 317 319 318 317 317 318 317 318 319 319 319 319 321 323 324 324 334 341 339 340 338 335 329 324 322 322 322 321 320 321 325 330 331 331 331 332 334 334 334 332 331 330 329 328 326 323
312 314 314 315 316 316 316 317 317 317 317 318 319 318 318 319 319 320 323 325 337 341 340 340 339 331 327 325 323 323 322 321 320 323 330 331 331 330 330 332 332 332 332 330 329 326 327 328 324
313 315 316 316 316 316 317 316 316 315 316 316 317 317 317 317 318 318 319 319 320 325 340 341 340 337 328 327 326 324 324 324 323 324 328 332 334 333 332 332 331 331 331 331 328 327 327 327 326
312 312 313 314 314 315 314 313 315 315 316 316 315 316 316 316 316 317 318 319 320 321 329 342 341 339 337 330 328 327 326 328 328 325 327 330 334 334 334 332 331 331 331 330 329 329 328 327 326
314 312 312 312 313 312 314 313 314 315 316 316 315 316 316 316 316 317 317 318 318 319 319 338 341 340 339 335 329 339 333 332 329 325 324 326 330 332 333 332 330 330 330 331 331 329 328 327 326
312 311 311 312 311 312 311 312 313 314 314 313 314 315 315 315 316 317 317 317 318 318 318 324 339 340 339 339 331 338 339 333 327 326 325 324 328 332 332 332 330 330 331 330 330 328 327 326 326
311 311 310 311 311 311 310 310 311 313 314 314 315 316 315 316 317 316 317 317 318 319 319 322 334 339 339 340 336 331 338 332 327 327 325 322 328 331 331 333 331 330 331 330 330 329 327 326 325
310 310 308 309 309 310 310 310 311 312 313 313 313 313 314 314 315 318 318 318 318 318 318 319 329 337 339 340 337 333 332 332 329 327 322 325 325 329 331 331 331 331 331 330 329 328 327 325 324
308 309 309 309 310 310 310 310 310 310 311 311 312 313 313 314 315 314 316 318 319 319 319 319 327 337 339 340 337 333 333 336 332 327 323 324 325 327 330 330 330 329 330 329 328 327 326 325 325
310 309 309 310 311 310 309 309 310 310 311 313 313 314 314 314 315 315 316 317 319 320 319 321 326 338 338 338 336 334 334 335 332 328 326 330 325 327 327 330 329 328 329 329 328 327 326 325 325
311 311 310 310 309 309 309 309 310 312 313 314 315 315 315 315 315 316 316 317 319 320 320 323 326 338 336 338 337 338 337 335 332 329 325 327 324 327 327 327 326 326 326 328 328 327 326 325 325
312 312 312 312 311 310 311 312 312 314 315 315 316 319 317 324 324 320 317 319 320 320 320 323 327 338 336 338 336 335 334 336 331 328 326 322 326 330 327 326 325 326 326 328 328 328 327 325 326
313 313 313 312 310 312 314 314 314 315 315 314 323 323 324 325 325 326 326 324 321 320 322 327 334 336 334 336 336 335 335 334 330 329 327 324 326 326 326 327 326 327 328 328 327 326 327 324 323
312 312 312 311 310 313 313 314 314 313 314 325 324 323 323 323 323 324 325 327 325 323 332 334 336 334 334 335 336 334 335 332 331 328 326 326 326 326 326 325 325 326 326 327 326 325 327 326 323
312 312 311 312 312 314 316 319 316 320 323 324 323 322 322 321 321 321 322 326 326 325 329 334 336 336 334 336 336 333 334 333 330 327 328 326 325 326 326 328 326 327 326 325 326 326 327 326 326
311 311 315 315 314 314 316 320 319 321 316 318 321 320 319 319 319 319 321 324 326 327 325 333 330 333 334 336 335 334 333 332 329 328 327 325 324 324 326 324 324 323 324 326 326 326 325 324 326
311 313 314 317 315 316 315 315 318 317 317 315 318 317 316 315 314 316 321 324 329 330 333 333 331 332 330 331 334 334 332 331 329 328 327 324 324 325 324 323 323 322 322 323 324 325 325 324 324
313 312 314 316 321 319 316 315 323 321 318 318 317 315 313 311 312 314 317 321 324 329 332 331 332 333 330 330 332 332 331 330 328 327 326 325 324 324 324 325 324 323 323 322 324 324 324 324 324
315 315 315 316 316 317 321 323 319 317 316 319 315 312 309 307 307 311 314 317 321 325 328 329 329 325 328 328 331 330 330 329 328 326 324 325 325 325 323 323 323 323 322 322 322 323 323 324 324
314 315 315 316 317 318 317 319 314 315 316 317 313 310 306 304 303 306 310 314 317 322 325 328 329 330 328 328 331 333 330 328 326 323 324 324 324 323 322 322 322 322 321 322 321 322 323 323 322

GFSSGP_850_thetae_096.txt.gz
Theta_e
311 309 311 317 314 308 311 312 314 315 316 321 323 323 322 323 332 334 338 338 337 329 329 331 330 325 323 323 324 330 334 337 338 338 338 337 336 336 335 332 329 331 333 333 334 335 335 336 337
310 308 313 318 312 311 310 313 315 315 318 320 323 322 322 329 340 338 341 340 331 323 326 326 324 323 322 321 322 326 331 336 338 339 339 339 337 335 335 335 331 331 333 334 334 335 334 334 333
308 311 317 312 309 311 310 313 315 317 318 319 321 322 323 332 339 338 340 336 323 323 325 324 322 322 322 322 322 324 328 333 337 338 339 339 338 337 335 335 333 331 333 334 334 335 335 333 332
308 316 317 314 312 310 312 313 313 315 317 319 320 320 327 333 338 339 339 334 321 323 325 322 322 321 321 321 321 322 326 331 334 337 338 338 338 337 336 336 335 333 335 335 334 334 334 331 331
312 317 314 313 314 311 313 314 314 314 316 318 320 320 325 333 336 337 335 324 321 323 322 322 321 321 321 320 320 321 323 328 332 335 337 337 338 337 337 336 335 334 334 334 332 330 330 331 330
312 314 313 316 314 315 314 316 316 316 317 318 318 320 324 333 334 337 337 332 322 321 323 321 321 321 319 318 318 319 322 326 330 333 335 336 336 337 337 336 335 335 334 334 331 331 330 329 329
310 310 313 313 314 314 316 317 316 317 316 317 320 318 324 338 334 336 337 336 327 322 322 321 322 320 319 318 318 318 320 323 328 331 331 333 335 336 337 336 336 336 334 334 331 332 330 324 325
315 313 317 315 316 316 317 317 319 318 317 318 319 318 320 338 339 339 337 335 332 327 323 322 322 320 319 318 318 319 320 322 327 329 329 331 333 336 337 336 336 336 335 334 332 331 331 326 323
315 314 316 318 319 319 319 317 317 318 317 318 318 318 321 327 338 337 338 338 335 331 328 325 323 321 320 319 319 319 320 321 326 328 329 331 333 335 337 336 336 336 334 334 332 330 330 326 324
310 311 316 316 317 318 318 316 316 316 316 317 318 321 326 334 337 337 338 338 338 335 334 332 326 322 321 320 320 320 320 320 323 326 328 330 331 333 335 336 336 336 334 333 333 330 327 326 325
311 312 312 313 315 316 316 315 316 315 315 317 317 317 318 324 329 337 338 338 337 336 334 334 333 327 322 321 321 321 320 320 322 326 327 329 330 331 333 334 336 336 334 333 333 332 327 326 324
310 311 312 313 314 314 313 315 314 315 316 318 318 316 315 316 322 322 323 333 337 338 338 336 337 336 331 323 321 321 321 321 321 324 325 326 328 330 330 331 333 334 334 333 332 330 327 327 325
310 312 313 314 314 314 314 313 314 315 315 315 316 315 315 315 316 316 322 326 328 334 337 339 338 338 337 328 323 322 322 322 321 323 324 322 324 328 330 330 330 332 333 331 331 329 328 327 327
310 310 310 311 312 312 312 311 313 314 315 315 315 315 315 316 315 316 316 316 322 330 332 332 337 339 340 337 326 323 323 323 323 322 322 320 323 328 331 331 331 331 332 332 331 328 327 327 326
313 312 310 311 312 310 312 311 311 314 314 314 315 315 315 315 315 316 316 316 316 319 322 324 327 334 341 340 332 326 324 326 328 325 325 322 325 328 331 332 333 331 331 331 331 329 328 327 328
311 310 311 312 311 311 310 311 309 312 312 311 312 313 313 313 313 314 315 315 316 316 318 321 322 329 335 339 338 331 325 325 329 331 328 325 326 330 331 332 332 331 330 330 330 330 328 328 326
309 310 311 310 310 309 308 310 310 312 312 311 311 312 313 315 315 316 315 316 315 316 317 318 318 326 330 338 337 334 328 326 330 334 328 328 328 329 330 331 332 331 330 329 329 329 329 327 326
309 310 308 308 307 309 308 307 309 311 310 309 310 311 312 312 314 315 315 316 316 316 317 317 318 319 326 332 337 336 332 332 335 333 328 328 327 325 330 331 332 332 331 330 329 329 328 327 326
307 308 307 307 307 309 309 308 308 307 309 308 310 312 312 313 313 314 314 314 316 315 317 317 318 320 324 334 335 337 335 334 337 333 328 328 326 325 329 329 331 332 331 330 330 329 329 327 326
306 306 306 307 308 308 308 308 308 308 307 310 310 311 312 313 314 314 314 315 315 317 316 317 318 319 321 327 330 333 337 336 334 329 328 326 326 325 327 327 330 330 330 330 330 329 328 328 327
308 307 308 309 309 308 307 308 309 310 310 310 311 312 314 315 316 316 313 315 316 315 317 317 318 318 320 321 333 333 335 334 334 333 330 325 326 323 328 328 328 329 329 328 329 329 328 327 325
310 310 310 311 310 311 308 311 311 311 311 312 313 315 323 323 323 321 317 314 315 316 317 317 319 319 320 324 332 330 335 334 332 333 330 327 330 333 330 329 328 329 327 326 327 327 327 327 326
310 311 311 311 310 309 311 311 311 310 312 312 313 322 322 321 321 321 324 324 323 320 318 319 320 321 323 326 330 330 336 334 332 333 330 328 326 330 331 328 328 327 326 326 326 326 326 326 326
309 311 310 310 309 312 312 310 311 311 314 319 321 322 320 318 319 319 319 323 325 325 325 325 322 323 325 331 333 336 334 334 334 333 331 328 325 323 330 329 327 325 325 325 326 326 326 325 325
309 310 311 311 310 312 310 311 312 313 318 317 317 319 316 315 317 319 321 322 326 327 330 335 332 332 329 334 334 335 334 335 335 334 330 328 324 324 324 323 324 325 325 325 326 326 327 326 325
308 311 313 316 314 312 312 314 316 319 317 317 315 315 312 311 317 318 317 320 325 328 328 335 334 331 331 333 333 332 335 336 335 331 329 327 324 324 323 325 325 324 325 325 324 325 325 325 325
312 310 310 313 313 316 313 312 317 318 317 316 313 313 310 307 308 309 316 318 320 324 329 330 334 330 330 330 330 331 332 334 332 331 329 327 326 324 324 324 325 324 325 324 326 323 323 326 323
312 311 312 311 315 315 314 314 318 318 316 315 315 310 306 304 304 308 312 315 318 321 326 330 331 330 330 331 329 329 332 333 332 331 328 327 326 325 325 324 323 322 322 322 322 322 324 325 324
304 310 314 315 314 315 316 316 316 316 315 315 313 307 303 301 300 302 306 312 315 319 323 326 330 331 329 330 330 329 330 332 330 329 328 327 326 323 323 323 324 323 323 322 321 323 323 324 325
303 306 314 316 317 315 314 316 314 312 314 311 307 304 302 299 298 301 303 307 313 316 322 324 327 325 321 320 327 327 329 330 328 327 327 326 324 324 324 323 322 322 322 322 322 322 323 323 324

GFSSGP_850_thetae_099.txt.gz
Theta_e
313 311 310 316 312 307 309 310 310 313 313 317 318 320 321 321 328 327 339 333 329 328 333 336 337 338 335 331 331 328 332 335 335 335 334 335 335 334 332 333 335 336 333 334 332 333 335 337 336
311 309 313 316 309 310 308 310 313 313 316 317 318 321 320 326 338 338 337 337 330 326 329 331 332 330 326 328 332 329 330 334 336 336 336 335 335 335 334 331 330 331 332 333 333 334 334 336 337
309 309 315 311 308 309 307 309 313 315 316 316 316 319 321 328 336 333 334 335 332 328 328 328 327 323 323 324 329 329 329 331 335 337 337 337 335 335 335 333 331 331 332 333 333 333 334 334 333
308 315 315 312 311 310 310 312 311 312 316 316 317 315 321 328 332 335 336 337 327 326 327 325 323 322 322 323 327 329 329 331 334 337 338 338 337 336 335 335 334 331 332 333 332 333 334 333 330
311 316 311 313 312 311 310 312 314 313 314 316 318 317 319 331 334 335 337 334 322 324 324 324 322 322 321 322 324 327 329 332 333 336 338 338 338 337 336 335 335 333 332 334 332 333 334 330 330
312 313 313 312 312 313 313 315 315 315 316 317 316 316 318 337 337 338 338 329 322 322 323 322 322 321 321 321 321 324 326 330 331 334 336 337 337 337 336 335 335 335 333 334 333 331 330 330 330
307 309 312 312 314 314 315 316 314 316 315 316 318 317 322 334 337 338 332 322 322 322 321 321 321 321 320 319 320 321 325 328 330 331 334 335 336 336 336 336 335 335 333 334 333 330 328 329 327
312 309 314 312 315 315 316 318 318 317 316 318 318 314 319 332 336 338 333 324 324 322 322 321 321 321 319 318 319 320 322 326 328 329 331 332 333 335 335 336 336 335 335 333 332 331 328 327 325
315 313 312 315 316 315 317 316 317 318 317 318 318 317 325 331 338 338 336 328 323 322 323 322 321 321 320 319 318 319 321 324 327 328 329 330 331 333 335 335 336 335 335 334 333 332 331 327 325
309 309 312 314 315 316 317 316 317 316 316 316 317 318 318 329 336 340 338 334 330 326 325 324 322 322 320 319 319 319 320 321 323 325 327 329 330 331 333 335 336 336 336 334 333 332 331 327 325
309 310 310 312 314 314 313 313 314 314 314 316 316 317 317 317 333 340 339 336 335 333 332 332 329 325 322 320 320 319 320 320 321 323 324 328 330 332 333 335 336 336 335 334 333 332 330 328 325
310 309 311 311 312 312 311 313 313 313 313 314 315 316 316 316 316 321 337 339 337 335 334 334 335 332 326 322 321 321 320 320 320 322 324 327 331 331 332 334 335 335 335 334 333 332 328 328 326
307 308 311 312 313 313 313 312 312 313 313 314 314 314 314 315 315 315 315 318 337 339 337 334 334 335 334 333 325 321 321 321 321 321 323 324 328 329 330 331 332 333 334 334 332 332 331 327 326
310 309 309 310 310 310 310 310 311 312 313 314 314 314 314 315 315 314 315 315 315 324 338 336 335 336 337 337 336 329 321 321 322 321 322 324 325 327 328 329 330 331 333 333 332 330 331 327 327
311 310 309 310 311 309 312 309 309 313 313 312 311 312 312 312 313 313 313 314 315 315 316 332 333 336 337 339 338 337 326 322 322 322 322 323 323 326 327 329 329 330 331 332 332 330 330 328 327
310 310 310 310 309 310 309 311 309 312 311 311 312 312 312 313 313 313 314 313 315 315 314 315 320 334 337 336 336 337 335 324 323 322 323 323 322 326 328 329 329 331 331 332 331 329 330 328 327
308 309 309 310 310 309 308 309 309 311 311 310 310 311 311 312 313 313 313 315 315 315 315 314 315 321 330 333 334 334 336 329 325 324 326 325 324 327 328 328 329 332 332 331 331 330 329 329 328
308 308 308 308 308 307 306 307 307 309 309 309 310 310 311 311 312 313 313 313 313 314 314 315 314 316 319 325 329 333 337 336 329 328 329 328 327 328 329 328 331 332 332 331 330 331 330 328 328
307 306 305 304 305 306 306 307 308 308 305 305 307 309 310 311 312 313 313 313 314 314 314 314 315 315 318 322 326 332 335 337 332 330 331 331 328 328 330 328 330 331 331 331 330 330 329 328 329
304 304 304 305 305 305 305 306 308 306 305 308 309 309 310 311 313 313 314 314 316 316 315 314 315 316 317 319 320 324 328 334 335 333 334 334 331 328 329 328 329 330 330 332 331 330 329 328 328
306 305 306 307 307 307 306 309 309 309 309 310 310 311 312 317 321 321 319 317 316 313 313 314 314 315 316 318 321 326 331 336 334 335 332 333 334 329 327 325 331 330 330 331 331 330 329 328 328
309 309 309 309 308 309 307 311 311 310 308 309 311 315 320 318 318 318 320 321 318 316 316 315 315 315 316 319 321 321 323 331 330 330 331 335 331 328 324 325 332 329 330 330 330 329 329 329 328
308 308 309 309 309 309 310 309 310 310 310 312 316 320 317 315 315 316 319 320 323 324 321 318 315 317 316 318 321 321 326 328 326 330 331 333 331 327 326 323 329 328 328 329 328 327 328 327 327
307 307 309 307 307 310 310 309 309 308 313 317 317 314 312 311 312 314 318 319 322 326 325 325 319 318 318 320 321 324 322 330 331 330 330 332 331 327 325 331 329 327 329 328 326 325 326 326 326
307 308 308 310 309 311 310 310 308 317 318 316 315 313 310 308 310 311 318 316 320 324 326 331 325 323 322 323 326 327 327 329 330 329 333 332 331 328 326 329 327 327 329 326 325 324 325 326 326
308 307 308 313 314 311 311 312 311 316 315 313 312 311 308 307 305 304 315 310 320 321 323 327 333 336 331 326 327 330 330 332 334 333 331 332 331 328 325 323 326 326 327 326 325 325 325 325 325
308 310 310 312 311 313 310 311 316 315 314 315 313 310 306 303 303 301 307 311 316 319 320 324 332 337 333 330 330 330 329 330 332 331 332 333 330 327 323 323 322 324 324 324 325 324 324 323 324
307 308 310 312 314 314 311 312 311 316 316 315 312 307 304 301 300 299 301 307 313 314 319 323 328 334 333 331 329 329 329 329 329 330 333 331 329 325 324 323 324 324 324 325 324 323 323 322 323
302 302 308 311 312 317 314 312 316 315 315 316 308 304 301 299 297 297 299 302 307 311 317 320 325 327 330 330 328 328 328 329 328 329 331 329 327 326 325 324 324 324 323 323 322 322 322 321 324
301 307 309 302 308 309 311 314 313 310 308 306 303 300 300 297 296 295 296 300 305 310 316 319 323 324 323 324 327 328 328 327 328 329 330 327 327 326 324 323 324 323 323 323 322 321 322 323 323

GFSSGP_850_thetae_102.txt.gz
Theta_e
312 312 310 315 310 307 308 308 309 312 312 315 316 316 316 319 328 328 336 338 328 326 331 335 337 339 337 336 333 332 331 330 330 331 331 333 333 334 334 335 337 337 337 335 331 330 332 336 338
312 309 313 315 305 308 305 308 311 310 313 315 316 317 318 319 333 336 338 335 326 325 330 333 337 338 338 336 333 332 333 332 331 332 332 333 334 334 333 332 331 335 335 333 331 331 333 336 335
311 308 314 310 305 306 306 307 311 313 314 315 315 317 317 320 335 334 331 326 324 326 329 333 336 337 337 335 334 335 335 334 334 334 334 334 335 335 333 332 329 330 331 332 332 333 333 335 336
308 311 313 309 310 308 307 311 311 312 316 316 316 314 318 319 329 335 333 327 324 326 329 332 334 334 332 330 331 333 336 335 335 335 335 335 335 335 334 333 331 330 331 332 332 332 333 334 332
309 314 308 311 310 309 309 310 313 312 314 316 316 315 316 318 321 332 333 329 326 326 328 330 329 326 326 326 328 332 336 337 336 336 336 336 336 335 334 335 334 331 330 332 331 332 333 333 330
310 312 310 309 309 310 310 314 314 314 316 316 316 315 317 322 335 334 336 335 330 327 327 326 324 322 322 322 324 328 332 336 336 337 337 337 337 336 335 334 335 334 331 332 332 332 333 331 328
306 308 310 311 313 314 313 315 314 314 314 316 317 314 317 321 336 339 337 337 328 328 326 324 323 322 321 321 321 323 327 330 334 336 337 337 337 336 336 335 335 335 334 332 333 332 331 328 329
309 307 311 310 313 313 315 317 317 315 315 318 317 313 315 318 327 339 338 333 326 326 325 324 322 322 322 321 321 320 322 325 330 333 335 336 336 336 336 335 335 335 335 333 333 332 329 329 328
313 310 310 311 313 313 315 315 316 318 318 317 318 317 318 316 325 340 338 333 328 326 325 323 322 321 321 321 320 320 320 322 325 329 332 335 335 336 335 334 335 335 335 334 333 331 330 329 327
309 309 309 310 312 314 315 315 315 315 315 315 316 316 316 315 316 328 340 333 327 326 325 323 322 321 321 321 320 320 320 320 322 326 329 332 333 334 334 333 334 335 335 335 333 332 331 330 327
307 308 308 312 314 313 312 312 313 313 312 314 314 315 315 315 316 316 333 339 329 327 325 322 322 322 322 320 319 319 320 319 320 322 326 329 331 332 333 333 334 335 335 335 334 332 331 331 328
308 308 310 311 313 312 309 312 310 312 313 314 314 313 314 314 315 315 317 339 339 331 325 324 324 323 322 322 320 319 319 319 319 319 321 325 329 330 331 332 333 334 335 335 334 333 332 331 328
307 308 310 311 310 311 311 310 311 311 313 313 313 313 314 314 314 314 314 315 316 325 335 335 335 333 330 326 322 320 320 320 319 319 319 321 324 328 329 331 332 334 334 335 335 333 332 330 329
309 308 309 310 310 309 308 308 309 312 313 312 312 312 312 312 312 312 312 313 314 314 316 328 337 337 337 334 327 323 321 320 321 320 320 320 321 324 328 329 331 333 334 334 335 333 332 330 329
310 309 308 309 310 309 311 308 308 312 311 311 311 311 312 312 312 312 312 312 312 313 313 315 319 329 337 337 335 333 333 330 322 321 321 321 321 322 327 328 329 331 332 334 334 333 332 330 330
309 308 310 309 309 310 308 310 309 312 310 310 311 312 311 311 311 312 312 313 313 313 313 313 314 315 322 337 336 335 334 335 329 322 321 322 321 323 325 327 328 330 331 333 333 333 332 330 329
306 307 309 309 309 308 308 308 307 309 308 307 310 310 311 311 311 312 312 312 313 313 313 313 314 314 314 317 334 335 333 334 335 328 322 322 322 323 325 325 326 329 330 331 332 332 331 330 329
306 308 307 307 306 306 304 304 304 307 307 308 309 309 310 311 312 312 312 312 312 312 313 313 313 314 315 315 323 333 333 332 336 334 327 323 323 324 323 326 326 329 331 331 332 332 331 330 329
306 306 305 303 303 304 304 305 304 305 306 305 308 309 310 311 310 311 312 313 313 313 313 313 314 313 314 314 322 330 334 328 329 335 333 326 324 326 326 327 326 329 331 331 332 332 330 331 329
303 303 303 303 304 303 303 305 306 305 305 307 309 309 309 310 315 316 317 318 318 317 315 314 315 313 313 314 316 317 323 328 324 332 334 332 326 328 328 328 327 327 331 330 333 333 330 329 329
304 304 305 306 306 305 305 307 307 307 307 309 312 315 318 316 316 317 319 319 321 320 317 316 313 312 313 314 316 323 327 331 333 330 335 334 329 330 331 329 329 329 333 331 333 334 333 329 328
306 305 307 307 308 307 306 309 308 308 308 308 317 316 313 313 313 313 315 317 318 320 324 320 316 313 312 314 317 320 322 323 322 323 330 334 333 332 334 331 330 330 332 331 331 333 332 330 327
306 307 307 307 307 307 306 308 308 308 308 316 315 313 311 310 310 312 313 314 316 319 320 325 322 318 314 315 316 316 318 322 322 321 323 333 331 330 335 334 331 329 327 329 330 331 332 329 328
307 307 307 306 307 309 308 308 309 307 314 316 315 313 310 308 309 310 311 313 315 318 319 320 325 324 318 325 317 318 317 319 325 328 326 332 332 331 332 332 329 326 326 330 332 331 330 328 328
305 307 309 308 309 310 309 308 309 315 316 316 314 311 308 306 307 307 309 309 312 315 319 320 322 326 323 323 325 318 322 322 323 324 325 331 331 331 332 331 328 326 324 327 325 329 330 326 327
305 307 308 311 312 309 309 309 308 315 313 312 311 308 305 303 305 305 306 306 305 309 314 321 321 324 327 328 330 329 330 326 326 329 332 331 330 328 328 331 327 325 326 326 326 325 329 325 325
305 309 309 311 310 311 309 309 314 315 314 314 311 306 303 301 300 302 305 304 302 308 313 318 320 324 331 334 337 336 336 330 330 328 330 331 331 331 330 330 327 328 324 326 325 329 327 325 325
302 303 305 307 311 313 309 310 310 314 313 312 308 304 301 299 298 301 301 302 302 304 311 316 319 323 329 333 335 336 331 334 331 330 332 331 330 329 330 328 326 323 324 324 326 325 325 326 325
300 300 303 308 308 310 313 312 314 312 311 309 305 302 299 297 296 296 299 301 301 303 307 311 314 318 326 331 330 334 333 330 329 331 331 329 328 328 330 326 323 323 322 322 322 323 323 323 323
301 305 307 298 302 306 306 308 311 309 307 305 303 300 297 296 295 295 296 298 300 302 305 308 312 319 322 327 326 327 327 327 327 327 327 327 327 328 326 324 323 323 323 323 323 323 323 322 321

GFSSGP_850_thetae_105.txt.gz
Theta_e
311 312 310 314 314 314 313 313 311 314 315 314 314 316 318 318 320 331 330 334 338 327 331 332 334 336 338 336 333 331 331 333 337 339 338 337 335 334 335 338 338 337 337 335 332 330 331 335 336
314 312 312 314 312 313 315 312 314 314 313 314 316 316 317 320 322 324 333 335 337 326 330 332 334 336 338 336 334 332 331 331 333 332 331 331 332 333 334 336 337 336 336 335 332 329 330 335 337
311 309 313 316 310 314 314 310 313 313 314 314 316 316 316 319 319 328 335 339 331 326 330 332 334 336 337 337 335 333 332 331 331 331 332 333 333 334 334 335 334 333 334 332 331 330 331 334 335
309 311 311 313 314 313 311 313 312 314 315 315 315 318 317 317 321 332 335 333 324 325 329 332 334 335 335 336 334 334 333 333 332 333 333 334 334 334 334 333 331 331 330 331 331 331 332 334 336
309 311 313 313 313 312 312 311 312 315 315 315 315 318 317 318 322 328 331 332 326 325 329 333 333 333 334 332 332 334 334 334 334 333 334 334 334 335 334 333 331 330 330 330 331 331 332 333 334
311 312 313 313 314 312 313 313 314 314 315 316 316 317 317 318 318 330 338 338 329 327 330 332 333 333 333 332 332 333 333 333 335 335 335 335 335 334 334 334 333 332 330 330 331 330 331 333 333
311 313 313 313 313 315 315 314 314 315 316 316 316 319 316 318 317 324 338 340 336 333 332 333 334 334 331 330 331 333 332 332 332 335 336 336 336 335 335 334 334 334 332 331 332 331 331 333 331
309 312 312 313 314 315 315 316 315 316 317 317 318 319 319 317 316 317 333 340 336 333 334 332 333 331 329 331 333 332 329 330 333 333 335 336 336 336 336 335 335 334 335 333 332 332 332 332 329
311 312 313 314 314 315 316 317 316 316 317 316 316 316 316 315 315 316 327 340 338 334 335 333 331 328 327 328 328 330 330 330 331 333 333 335 336 336 336 335 335 335 335 334 333 333 331 330 330
314 313 311 312 313 314 315 315 314 315 315 315 315 315 315 315 315 315 319 336 336 334 334 334 332 329 327 326 326 325 327 326 329 330 330 331 333 335 335 335 335 335 335 335 333 333 331 330 329
309 311 311 313 313 314 314 313 313 314 315 314 315 314 314 314 315 315 315 328 338 333 331 332 331 328 326 325 324 323 321 321 323 327 328 328 330 333 334 335 335 335 335 335 334 332 332 331 329
308 308 310 311 312 313 313 313 312 312 313 313 312 313 313 313 314 314 315 315 335 339 332 329 328 326 325 324 323 320 320 320 320 321 324 328 327 328 330 332 333 334 334 335 335 334 332 331 330
308 309 310 310 310 310 310 311 312 312 312 311 312 313 313 313 313 313 314 314 314 315 319 334 330 326 326 324 323 321 320 319 320 321 320 322 326 325 327 328 331 333 334 334 335 334 333 332 331
309 307 309 309 309 309 310 311 309 311 312 312 312 311 311 311 312 312 312 313 313 313 314 316 325 332 333 326 324 323 321 320 320 320 320 320 321 324 324 326 327 332 334 334 335 335 334 332 332
308 310 310 310 311 311 310 311 311 312 312 310 310 310 311 311 311 311 312 312 312 313 313 312 313 318 325 335 336 332 329 323 321 320 320 320 320 320 323 323 323 329 332 334 335 335 334 333 332
309 309 310 311 310 310 310 313 311 309 308 309 310 311 311 311 311 311 311 311 311 311 312 312 312 313 315 322 329 332 336 331 325 325 322 321 321 321 322 323 324 324 330 332 334 334 334 333 332
307 309 310 310 310 310 310 310 310 309 308 308 309 310 311 311 311 310 311 311 311 312 312 312 312 312 313 314 318 329 334 335 332 332 331 325 321 321 321 323 324 324 327 330 332 332 334 332 331
308 309 309 310 310 309 308 307 307 307 307 308 309 309 310 309 308 309 311 312 312 313 313 312 313 312 312 312 313 314 326 331 334 332 333 333 323 322 323 323 323 325 326 329 330 331 331 333 332
307 307 307 307 307 306 309 309 308 308 307 308 309 308 307 309 313 315 316 317 316 315 314 314 313 313 313 312 312 313 315 318 332 333 333 334 332 324 323 323 323 323 324 328 328 330 331 331 331
305 306 307 307 307 306 309 309 310 309 308 308 308 310 317 317 318 319 319 318 319 320 320 319 315 313 313 313 312 313 314 319 319 330 333 333 334 327 325 323 323 323 324 327 329 330 331 331 329
307 308 308 309 309 308 308 310 309 310 308 313 318 317 315 312 312 315 318 318 318 318 319 321 322 318 314 312 315 323 326 332 335 333 332 332 330 332 326 324 325 325 326 328 328 329 332 329 328
309 307 308 308 309 310 309 310 310 310 310 317 317 314 312 310 310 311 313 315 316 318 318 318 319 323 321 316 317 329 327 331 331 324 325 326 328 333 329 327 327 327 328 328 328 328 327 328 328
308 308 308 309 309 309 309 310 310 309 310 316 317 314 311 308 306 306 309 311 313 314 317 318 319 320 323 321 316 327 331 328 326 330 325 326 324 330 332 328 330 331 329 328 333 330 327 328 328
307 308 308 308 309 311 310 310 310 310 311 317 316 312 308 305 304 304 306 308 310 312 314 316 318 319 319 324 323 320 330 330 331 331 325 324 322 326 333 331 332 331 332 331 332 329 328 327 327
308 310 309 310 312 310 309 310 310 312 317 317 314 309 306 303 302 302 301 302 305 309 312 313 316 319 320 320 326 321 327 334 331 331 328 324 323 322 333 332 326 325 332 332 330 326 328 327 327
306 310 311 311 311 311 310 312 311 316 313 312 309 306 305 303 301 300 299 299 298 306 310 310 314 318 319 323 326 323 325 332 333 330 331 328 326 321 328 332 328 327 331 331 327 325 325 327 326
307 310 307 310 311 310 310 310 316 314 313 312 309 305 302 300 299 297 297 297 297 305 308 306 310 316 319 322 328 327 327 330 333 332 331 331 330 330 331 331 328 330 331 328 324 325 326 325 325
304 302 306 311 308 306 306 310 312 313 313 311 307 303 300 298 298 296 296 294 297 304 305 305 308 310 316 322 329 333 330 330 331 332 330 331 331 331 331 329 328 329 329 325 326 326 325 325 324
301 301 304 308 310 307 304 307 313 312 308 306 304 300 298 297 296 295 294 294 299 302 303 304 308 312 319 324 327 327 331 331 332 331 332 332 329 331 330 329 328 329 326 326 325 325 323 323 324
302 304 305 304 303 307 308 306 311 308 306 303 301 298 297 296 295 294 293 295 299 299 300 302 305 309 315 319 323 323 327 328 329 330 331 331 330 330 330 328 329 328 325 323 324 324 322 322 322

GFSSGP_850_thetae_108.txt.gz
Theta_e
312 312 312 316 320 318 321 320 318 320 320 318 318 318 321 321 323 328 333 337 334 334 328 331 334 335 337 337 334 332 335 339 341 343 343 344 343 341 339 337 336 335 333 332 331 331 331 332 333
313 313 315 317 319 322 323 320 319 319 317 317 319 319 321 323 323 326 336 343 338 337 329 330 332 336 337 336 334 332 332 335 340 342 343 343 342 340 338 338 337 337 336 335 332 330 330 333 336
314 312 318 320 321 322 323 318 318 317 317 318 319 319 320 322 325 330 340 344 340 343 331 330 331 334 336 336 334 332 331 332 336 339 342 341 340 337 337 337 337 337 336 335 332 329 330 332 335
314 314 315 319 322 322 320 318 318 318 317 317 318 321 320 321 325 327 337 333 340 343 338 330 331 333 335 335 334 333 331 331 332 331 333 335 335 336 336 336 337 335 334 334 331 330 330 332 335
314 315 320 321 323 323 319 317 316 318 317 318 318 320 321 320 323 331 330 333 343 344 342 333 333 334 335 335 335 333 332 332 331 331 332 333 334 335 336 335 334 333 333 331 331 330 331 333 335
316 317 320 323 324 323 319 317 317 318 318 318 318 320 321 320 324 326 333 337 342 341 343 337 337 337 337 336 336 334 334 333 333 333 333 334 334 335 335 334 333 332 331 331 331 331 332 333 334
316 319 321 322 322 321 320 318 318 319 319 319 319 321 321 321 321 329 325 337 339 333 336 341 339 339 339 337 336 334 335 335 334 334 334 334 334 334 335 334 334 333 332 331 331 332 331 333 333
315 318 319 319 320 321 320 318 318 319 320 319 319 321 322 320 318 327 335 338 340 335 333 337 339 339 339 338 337 335 336 337 336 335 335 335 335 335 335 334 334 334 334 332 332 332 332 332 333
313 317 319 320 319 320 318 319 319 318 319 319 318 318 318 317 317 320 327 341 344 339 335 337 337 339 339 338 336 335 337 337 337 336 336 335 335 336 335 335 335 334 334 334 333 332 333 333 334
313 316 318 318 318 317 316 317 317 317 317 317 317 317 317 317 317 318 321 328 343 344 336 337 337 339 339 337 335 334 336 336 335 336 337 336 337 341 341 339 335 335 334 334 334 333 334 332 335
313 315 317 314 313 314 315 315 315 315 316 316 316 316 315 316 317 317 318 320 336 343 341 335 336 337 337 334 334 332 331 335 338 333 336 339 340 340 339 341 337 335 335 335 334 334 334 335 337
311 312 312 313 312 313 314 313 313 313 314 313 313 314 314 315 316 316 317 317 324 342 342 336 332 335 334 331 331 334 337 327 327 328 333 338 340 340 340 339 341 340 339 338 338 339 338 339 337
311 311 310 311 311 311 311 312 313 312 312 313 314 314 314 315 315 315 315 315 316 319 331 340 336 330 329 329 331 331 335 325 321 324 334 335 331 333 339 339 338 340 341 340 339 339 338 337 336
310 311 312 312 312 312 313 313 313 313 313 313 313 313 313 313 314 314 315 315 315 315 316 324 332 332 330 327 326 325 326 328 321 321 335 332 336 327 326 336 338 338 338 340 340 339 338 337 336
311 311 312 313 312 313 312 314 314 313 313 313 312 312 312 313 313 313 313 313 313 314 314 314 321 335 331 332 328 326 327 324 328 326 322 329 328 335 324 326 329 333 338 336 335 337 336 335 335
311 312 314 314 314 314 313 315 316 314 313 313 313 313 313 313 313 313 312 312 313 313 312 312 312 315 327 333 331 332 333 333 331 327 324 321 321 331 322 323 325 328 333 334 332 334 335 334 333
313 314 315 314 313 313 314 315 314 313 313 313 312 312 313 313 313 312 316 318 316 313 312 312 312 312 312 324 330 333 334 337 337 336 333 328 324 322 321 322 324 325 328 331 330 331 334 333 334
316 314 314 314 314 313 313 313 313 311 311 311 312 312 313 313 312 318 318 318 316 317 313 312 313 312 312 318 330 332 334 335 336 337 335 333 330 329 325 322 323 324 326 329 331 330 333 332 333
312 311 312 312 312 310 311 313 314 314 313 313 313 313 313 315 318 318 319 318 318 319 319 317 314 315 313 311 323 329 323 315 330 332 332 335 332 331 331 324 323 325 325 325 328 329 332 333 334
310 311 312 312 312 312 313 314 314 314 314 313 313 313 318 318 318 317 317 316 316 317 318 319 320 319 317 318 317 326 330 331 328 333 333 329 333 332 332 329 323 325 327 326 327 326 329 331 330
311 311 312 312 312 312 313 313 314 313 313 312 316 319 318 317 316 315 314 313 313 313 313 316 317 318 320 320 317 319 329 331 332 332 328 318 319 329 333 333 328 324 326 324 323 325 326 330 330
311 311 311 310 311 312 312 312 313 313 313 316 318 318 317 315 313 312 311 311 311 310 310 311 313 316 318 318 320 322 325 330 331 331 328 320 317 325 332 333 332 326 327 326 324 325 326 329 330
311 309 310 311 312 313 312 312 312 313 313 316 319 318 314 312 311 310 309 309 309 309 309 309 311 312 315 318 318 321 322 328 331 332 332 332 324 325 331 331 333 328 326 327 325 326 329 328 330
310 310 311 311 312 313 312 312 311 313 313 317 319 315 313 311 310 309 307 307 307 306 308 311 312 312 314 317 318 319 322 322 331 331 332 335 336 332 333 333 334 332 327 328 328 329 329 327 328
310 311 312 313 313 311 311 311 312 314 317 318 316 314 312 310 308 306 305 304 304 304 304 308 311 312 313 315 317 318 319 322 326 332 333 334 336 338 334 335 332 333 330 328 330 330 328 329 329
310 311 311 310 310 311 312 312 315 317 315 313 311 309 307 307 307 305 303 302 302 301 301 304 308 311 314 315 317 318 320 322 324 328 331 333 335 334 335 335 334 331 331 330 332 332 331 330 327
309 311 310 312 311 312 311 312 317 315 315 313 311 308 306 304 304 303 302 300 299 299 298 304 307 309 311 314 316 320 324 325 325 330 331 331 334 334 335 337 336 334 332 331 330 331 332 330 326
307 306 310 311 309 307 307 308 311 315 314 311 308 306 305 304 303 301 300 299 297 296 298 302 302 305 308 312 316 321 326 327 328 332 330 331 333 334 332 333 334 333 332 326 326 330 330 327 325
304 304 305 307 309 308 307 307 315 313 310 309 307 305 304 303 301 300 299 298 296 295 297 300 302 304 306 308 318 323 329 330 329 329 328 330 331 331 333 330 330 334 330 327 326 327 327 325 326
303 303 303 306 304 306 308 308 313 311 309 307 305 303 302 301 300 299 297 296 295 294 297 299 302 304 303 310 315 322 324 327 327 330 330 330 329 332 331 332 332 333 330 327 327 327 325 326 326

GFSSGP_850_thetae_114.txt.gz
Theta_e
316 315 319 320 322 323 324 325 326 324 323 322 322 322 322 323 325 332 342 343 346 345 343 340 337 336 337 337 335 335 332 331 335 339 342 339 341 339 337 334 332 331 329 330 331 332 332 332 333
317 321 319 321 324 324 325 326 324 323 322 321 321 321 322 323 325 329 330 335 346 348 346 343 337 338 337 337 335 334 331 332 336 340 343 340 341 340 338 336 334 333 332 331 332 331 331 332 332
318 320 320 324 325 325 326 325 323 322 320 321 321 322 322 325 328 328 332 341 346 347 349 345 337 338 338 336 335 334 331 332 336 341 343 341 342 341 338 336 335 335 335 334 332 331 331 331 333
318 319 320 323 325 326 326 327 323 322 321 321 321 321 322 324 325 329 335 343 346 347 349 344 338 337 339 336 335 334 331 330 333 338 342 342 343 342 339 336 336 335 336 335 334 332 331 332 334
319 320 323 324 325 326 326 327 324 323 323 323 322 322 322 324 324 330 334 345 345 347 348 347 338 338 338 336 336 334 332 331 333 337 340 342 342 341 339 336 336 336 336 335 334 333 330 330 332
320 321 323 325 325 326 327 326 324 324 324 323 323 322 322 324 324 326 332 343 348 347 348 347 344 339 336 337 336 334 332 331 332 334 337 338 338 337 336 336 337 336 335 334 334 332 331 331 332
318 322 323 324 325 326 326 325 325 324 323 324 323 323 323 324 323 322 326 336 344 347 348 350 347 340 337 338 336 335 333 332 331 332 333 333 334 334 335 336 336 336 335 334 333 331 331 332 332
317 319 320 322 323 324 325 324 322 323 323 323 323 323 324 323 322 321 322 330 339 345 349 350 346 341 338 338 337 335 334 333 332 332 331 332 333 334 335 336 336 336 335 333 332 331 331 332 333
316 318 320 322 323 325 323 323 322 322 322 322 322 322 322 322 321 320 321 323 340 344 350 349 348 340 338 339 338 336 335 334 333 332 332 332 333 334 335 336 336 336 334 333 333 332 331 332 333
318 319 321 322 323 323 322 320 320 320 321 321 321 321 321 321 320 320 320 321 333 344 347 348 349 346 340 340 339 337 336 335 334 334 333 333 333 334 335 335 335 335 334 333 334 333 332 332 333
318 320 320 321 321 321 321 319 319 319 319 319 320 320 320 319 318 318 319 320 322 324 346 346 346 348 349 345 343 340 338 337 336 335 334 334 334 337 339 339 338 336 335 334 333 333 333 333 333
319 319 319 319 319 318 318 317 318 318 319 319 319 318 317 317 317 317 318 319 320 321 340 348 346 343 347 348 348 347 341 339 337 336 335 334 336 337 339 339 339 339 336 335 335 334 334 334 334
320 319 319 318 318 318 317 316 316 317 316 316 316 316 315 316 316 316 317 318 318 319 323 341 344 345 342 347 343 347 344 344 340 342 337 335 338 339 337 339 339 339 337 334 334 336 337 336 336
318 318 318 318 317 317 318 317 317 317 317 317 316 315 315 315 315 316 317 317 318 319 319 321 335 342 343 343 343 344 345 343 343 342 345 341 337 339 341 340 340 341 342 339 334 336 337 338 337
317 317 317 318 318 319 318 319 319 317 318 318 318 317 316 316 316 316 316 317 318 317 317 317 319 325 339 338 340 341 343 342 342 342 339 342 342 339 341 340 338 337 340 341 338 336 340 337 336
316 317 319 318 319 319 319 319 319 318 319 319 318 317 317 316 316 315 316 316 316 319 321 321 318 317 330 339 340 338 339 342 340 342 340 335 334 337 340 340 339 339 337 339 339 336 335 337 337
317 319 320 320 320 321 319 319 319 319 319 318 318 317 317 316 316 316 317 319 321 321 322 323 324 322 317 332 339 339 338 339 340 339 340 339 335 339 339 334 334 334 339 338 338 339 334 336 337
319 319 319 320 321 321 320 319 319 318 318 318 317 317 317 317 316 319 320 321 322 322 322 323 323 323 323 320 321 330 334 335 337 339 339 339 339 337 341 339 335 336 334 337 340 340 336 338 336
317 317 318 318 318 319 320 318 319 318 318 318 318 317 316 316 319 321 321 321 321 321 321 320 320 321 321 320 321 324 321 327 333 337 339 340 340 340 339 339 339 337 335 328 335 339 339 335 336
317 317 317 317 317 317 317 317 317 317 317 316 317 317 316 316 320 320 319 318 318 317 317 316 316 317 318 319 321 321 322 320 324 332 336 335 338 340 340 340 341 339 337 332 328 338 337 334 334
315 315 317 316 315 316 316 316 316 317 317 317 317 317 318 318 320 319 317 317 316 315 315 314 314 314 314 314 315 317 320 321 318 322 329 334 337 337 339 339 340 339 339 336 331 331 333 329 333
315 316 316 315 315 317 316 317 317 317 317 317 317 319 320 318 317 317 316 315 314 313 312 312 312 311 311 312 312 313 315 317 319 323 324 328 333 331 334 335 339 338 338 337 333 333 328 329 331
316 316 316 315 315 316 315 315 315 316 316 316 319 320 318 317 316 315 314 312 312 311 310 310 309 309 309 310 311 312 313 314 314 317 320 323 328 332 331 334 335 339 336 336 335 334 333 329 328
313 312 315 316 314 315 314 314 314 315 317 317 321 318 317 316 315 314 312 311 310 309 307 307 306 306 307 308 310 311 311 313 315 316 315 318 320 329 334 333 331 330 333 334 337 335 335 332 328
312 312 313 317 315 316 313 313 314 321 321 321 319 317 315 313 312 311 310 309 308 307 305 305 304 304 304 305 307 309 311 312 313 314 315 316 317 320 329 332 331 331 332 330 333 335 335 334 332
312 312 315 315 315 315 316 318 319 319 318 317 315 313 312 310 309 309 308 307 306 305 304 303 302 303 305 305 307 308 309 310 311 313 313 314 317 317 321 329 331 333 334 331 331 333 334 335 333
312 313 313 314 314 315 315 318 320 317 316 313 312 311 309 308 307 307 306 305 304 303 301 300 299 300 302 304 305 307 308 309 309 310 311 315 316 317 318 325 330 329 334 333 329 330 333 333 334
309 309 312 315 318 315 313 314 318 318 315 313 311 309 308 306 306 305 304 303 302 300 298 297 296 296 299 300 302 303 305 306 307 309 312 315 317 319 318 319 330 331 333 333 329 332 332 331 333
309 309 309 310 309 315 313 313 317 316 314 313 310 308 306 305 305 304 303 302 300 298 296 295 295 296 297 298 299 300 301 304 306 307 313 316 317 320 319 318 327 330 332 332 332 332 331 331 331
308 310 310 311 309 310 310 310 316 315 314 310 308 307 306 305 303 302 301 300 298 296 294 294 295 295 296 298 298 299 301 304 306 310 316 319 323 326 326 322 326 330 328 330 330 330 331 331 330

GFSSGP_850_thetae_117.txt.gz
Theta_e
314 316 319 319 315 314 317 318 319 317 318 320 321 320 319 320 325 340 337 337 338 342 344 339 335 332 333 332 332 333 333 330 330 335 339 340 341 339 337 334 332 330 329 330 330 330 330 329 327
315 320 321 319 316 317 318 320 318 317 320 320 320 321 321 325 330 331 333 341 336 344 345 342 338 334 334 334 333 333 332 329 331 335 339 341 341 341 339 336 333 332 330 330 331 331 331 332 333
319 319 320 314 315 317 318 320 317 319 320 320 320 321 321 327 327 330 334 340 342 346 349 345 340 337 336 336 334 334 332 330 331 334 339 341 341 342 339 336 333 333 333 332 331 330 330 330 330
318 319 319 316 318 318 320 321 318 318 320 321 320 319 323 325 326 329 329 328 343 347 350 347 344 338 337 337 334 334 331 330 330 332 337 341 341 342 340 336 334 334 334 333 333 332 330 329 330
320 319 315 316 317 319 321 322 322 321 321 321 321 320 322 325 327 327 324 324 345 347 350 347 341 338 337 337 335 334 331 329 329 332 335 340 341 341 339 335 334 334 334 333 333 333 331 330 331
318 319 315 316 318 320 321 324 323 323 323 323 322 321 322 324 324 324 324 325 337 345 347 348 345 338 337 336 335 334 331 329 329 332 336 338 339 339 336 334 334 334 334 333 333 332 331 330 330
315 313 316 316 319 319 321 323 321 322 321 322 322 321 322 323 322 322 323 327 328 340 347 347 347 342 339 337 336 334 332 330 329 332 334 336 337 336 334 334 334 334 333 333 332 331 330 330 330
316 312 315 315 318 318 320 321 322 322 322 322 322 321 322 321 321 321 321 322 327 330 338 347 348 346 342 338 336 335 333 332 330 331 333 334 335 335 334 334 334 335 334 333 333 331 331 330 331
313 311 312 314 317 318 321 317 320 320 321 321 321 322 322 322 321 320 320 323 328 336 339 337 343 345 344 337 337 336 334 333 331 332 331 331 332 333 333 333 334 335 335 334 333 332 331 331 331
312 311 313 315 317 319 319 318 318 318 318 319 321 321 321 321 320 319 319 320 324 331 343 342 341 342 340 338 338 336 335 334 332 332 331 331 331 332 332 333 334 335 335 333 333 333 332 331 331
315 314 314 317 318 319 317 317 318 317 317 319 318 319 319 319 319 317 317 319 320 320 334 345 344 344 340 339 338 337 336 335 334 332 332 332 331 332 332 333 334 334 335 334 333 333 332 331 331
314 315 316 317 318 318 317 318 315 316 316 317 317 316 317 317 317 317 317 317 319 318 327 340 343 346 345 340 340 340 338 336 336 334 333 333 332 332 332 333 333 334 333 334 334 334 333 332 332
315 316 317 317 317 317 317 315 316 316 316 316 316 316 316 316 315 316 317 317 318 317 322 334 337 344 345 345 344 344 344 341 338 336 335 334 334 332 331 333 336 335 334 335 333 333 333 333 333
316 316 315 316 316 317 316 316 316 317 317 317 317 317 316 315 315 315 316 316 316 318 324 336 339 343 343 341 342 345 345 343 342 340 337 335 334 334 333 335 336 339 335 336 338 335 332 333 334
314 313 313 314 316 315 316 316 316 317 317 317 317 317 317 316 315 315 315 316 317 318 318 318 319 326 338 339 338 339 339 341 341 341 341 338 338 335 336 337 335 335 336 337 339 339 336 334 335
313 313 314 314 315 317 315 317 316 318 318 317 317 317 317 317 316 316 316 316 319 320 321 319 319 318 319 332 336 327 331 337 338 338 338 342 340 338 337 340 341 339 341 340 338 340 336 335 337
312 312 314 315 316 317 316 317 318 318 318 317 317 317 317 317 316 316 317 319 320 320 321 321 320 319 319 318 329 335 337 333 337 339 339 340 342 339 338 340 341 340 339 338 337 340 338 336 335
314 314 314 314 314 315 315 315 315 318 318 317 317 317 317 316 316 318 320 321 321 320 320 318 317 317 317 317 318 323 335 337 333 335 337 337 338 339 338 336 338 341 340 339 338 338 339 338 336
314 315 315 315 315 315 314 314 314 315 315 315 316 316 316 318 320 321 321 321 320 320 319 319 318 317 317 318 315 314 317 322 334 331 335 335 336 337 339 338 336 335 336 338 340 338 337 339 337
315 315 314 313 314 314 313 313 312 313 313 314 315 315 316 320 321 320 319 319 317 316 316 315 315 315 315 315 317 318 317 316 319 323 328 333 335 337 336 338 339 336 335 334 336 339 336 337 337
315 314 313 313 313 313 313 313 312 313 314 315 316 316 316 319 318 317 316 315 314 314 313 313 312 312 311 311 311 312 313 316 318 316 322 326 331 332 336 335 334 335 336 334 333 333 334 334 337
313 315 316 316 316 315 313 315 314 314 314 314 314 317 317 316 315 314 313 312 312 311 311 311 310 310 310 310 310 310 311 311 312 312 316 317 322 326 332 335 335 334 334 333 330 329 334 332 329
314 316 312 312 314 315 314 313 313 312 313 315 317 316 315 314 313 312 311 310 310 310 310 309 308 308 308 308 309 310 310 311 311 312 313 312 316 318 327 330 331 332 334 333 331 330 330 332 330
316 314 311 310 313 315 315 313 313 312 315 319 317 315 313 312 310 309 309 308 308 307 306 306 306 305 305 306 307 308 309 310 311 312 312 313 313 313 317 322 325 332 332 330 331 329 330 331 334
315 312 313 312 313 313 313 314 313 319 317 318 315 311 310 309 308 307 307 306 305 304 304 303 304 305 305 305 306 307 308 308 309 310 312 313 314 314 314 314 317 322 332 332 330 330 329 328 331
314 311 313 316 315 314 313 315 317 315 313 310 310 309 307 307 306 305 305 304 303 303 302 302 303 303 304 304 305 306 307 307 308 309 309 311 313 314 315 315 315 316 323 332 331 329 329 330 331
312 311 311 313 313 313 311 316 313 312 312 310 308 307 307 306 305 304 304 303 302 301 300 300 300 301 302 303 304 305 306 306 306 308 309 310 311 313 315 316 317 316 316 328 331 331 329 329 329
310 309 313 312 316 315 312 313 319 316 313 311 308 307 305 304 303 302 301 300 299 298 298 299 299 299 300 301 303 304 303 305 305 306 307 307 307 309 315 317 318 318 317 324 329 328 323 325 328
308 308 308 313 311 313 314 313 316 315 312 311 308 306 304 302 302 301 299 298 298 297 297 297 297 297 297 298 300 301 302 303 303 304 305 306 308 310 314 318 317 318 319 317 328 328 323 324 328
308 310 309 308 308 308 309 309 315 314 313 310 307 305 302 301 300 299 298 297 297 297 297 296 295 295 294 295 296 297 298 299 300 301 303 306 309 313 316 317 317 320 320 317 328 328 328 327 327

GFSSGP_850_thetae_120.txt.gz
Theta_e
313 316 319 319 314 311 315 317 318 316 318 320 320 319 319 322 328 343 338 333 336 340 342 337 335 335 333 332 329 330 332 332 329 333 338 339 340 339 335 332 330 328 328 329 328 328 328 328 329
314 318 320 319 313 316 315 316 319 316 319 320 320 320 321 327 334 336 339 330 331 335 340 342 337 335 334 333 332 331 332 330 328 332 337 339 340 340 337 333 331 330 328 329 330 330 330 330 329
318 318 319 312 311 315 317 317 316 317 319 320 320 321 323 326 329 333 332 328 329 337 343 343 340 336 335 335 333 333 332 329 329 331 336 339 340 340 338 334 330 330 330 330 330 330 330 331 331
319 318 317 314 316 316 319 318 319 316 319 320 320 319 324 326 327 330 335 327 325 330 345 347 344 339 336 336 334 333 332 329 329 331 335 339 340 341 338 335 331 330 331 332 332 331 330 330 330
318 318 313 314 315 315 318 319 319 318 319 320 321 319 327 329 330 329 326 329 323 330 347 349 347 344 339 337 335 334 332 330 329 331 334 339 340 341 338 335 332 330 330 331 331 332 330 329 330
316 315 314 315 315 317 317 321 320 320 321 322 321 320 323 326 326 324 325 325 322 329 345 348 347 342 340 338 336 334 332 330 329 329 333 337 339 340 338 334 332 331 330 330 331 332 331 329 329
313 310 313 315 316 316 319 321 320 320 321 322 322 320 322 322 322 322 322 323 325 326 336 345 346 345 340 338 337 334 333 331 330 330 332 335 338 338 337 334 332 332 332 332 332 332 330 330 330
314 310 313 313 315 316 319 319 319 319 320 321 322 320 321 322 322 321 321 321 323 326 330 334 342 345 344 338 338 335 334 332 331 331 332 335 335 336 336 334 333 333 333 332 332 332 331 330 330
312 309 310 313 315 315 318 316 318 318 318 319 320 321 321 321 320 320 320 321 327 331 332 336 337 338 343 344 338 336 334 333 332 331 332 335 334 332 332 332 332 333 333 333 332 332 331 331 330
310 307 311 312 314 315 316 316 316 317 317 317 318 319 319 319 320 320 320 319 320 327 333 330 338 340 342 342 341 336 335 333 332 331 331 332 334 332 331 331 332 333 333 334 333 333 332 331 330
312 310 311 314 316 316 316 316 317 316 316 316 316 317 316 316 317 317 318 318 319 319 320 321 332 343 343 343 341 337 336 334 333 332 330 330 331 332 331 331 331 332 333 334 334 333 332 332 331
312 313 314 314 315 315 314 316 315 315 316 317 317 317 316 316 316 316 316 317 317 318 318 321 337 345 345 345 342 339 337 335 334 333 332 331 330 331 331 330 330 331 333 333 334 334 332 332 331
313 314 315 315 315 315 316 314 314 315 317 316 317 316 316 316 315 315 316 316 316 317 317 322 333 337 341 347 346 341 339 337 335 334 334 332 331 330 331 331 330 330 331 333 334 334 333 333 332
314 313 313 314 314 314 314 314 315 316 317 317 317 317 317 317 317 315 315 315 316 317 322 328 336 335 337 339 344 342 343 342 340 338 337 335 334 332 331 332 331 331 329 332 332 332 333 332 333
313 312 312 312 314 313 315 314 314 317 317 317 317 317 318 317 317 316 315 314 316 319 328 334 335 338 335 339 339 340 341 345 340 340 338 339 337 336 334 333 332 332 331 336 334 335 337 335 334
312 311 312 313 314 315 314 316 314 318 316 316 317 318 317 317 317 316 315 317 319 318 320 320 323 322 325 333 336 336 336 337 337 338 339 337 331 338 338 336 334 335 337 338 337 336 339 338 334
311 311 312 313 314 314 314 315 314 315 316 315 315 316 317 317 316 315 317 320 321 321 320 320 320 319 318 319 324 334 333 329 331 332 329 329 325 334 337 337 336 337 338 338 337 338 339 339 337
312 312 311 312 311 312 312 313 314 314 314 314 315 316 316 315 315 319 320 321 321 320 320 319 319 318 317 316 316 317 322 331 333 331 329 332 336 330 326 334 336 335 336 340 341 340 340 339 338
312 312 313 312 312 312 312 312 312 312 311 312 314 314 314 316 320 321 321 321 320 320 319 318 317 315 314 314 313 313 313 315 320 329 330 325 330 335 336 335 331 336 334 334 334 337 338 336 337
311 313 314 314 313 313 311 310 309 310 311 312 312 314 316 320 317 317 318 318 317 316 315 314 313 313 313 313 312 312 313 315 316 315 317 324 325 328 332 334 335 333 330 333 334 333 334 333 331
313 313 313 313 313 313 312 313 311 313 313 313 314 314 317 317 314 314 314 313 313 313 312 312 311 311 311 311 311 311 311 311 311 312 314 316 317 323 325 327 330 333 335 330 325 332 333 333 332
313 312 313 314 311 312 312 315 313 313 312 312 315 316 315 313 312 311 310 311 311 309 310 310 310 309 309 309 309 310 310 310 310 311 311 311 312 315 317 319 323 328 333 333 333 333 330 332 329
315 315 315 313 311 310 313 313 312 311 311 315 313 312 310 309 309 308 308 308 308 308 307 306 305 305 305 306 306 306 308 308 309 310 310 311 311 311 311 313 315 318 324 329 333 333 333 332 328
314 313 310 309 309 313 311 312 312 315 317 314 312 309 308 307 306 305 305 306 304 303 302 302 302 303 304 305 305 306 306 307 308 308 309 310 311 311 311 312 312 313 316 321 328 332 331 332 331
314 314 317 312 311 312 312 312 314 314 311 310 308 306 306 305 305 305 304 303 302 301 300 301 303 303 304 305 305 306 306 307 307 308 309 310 310 311 311 312 313 313 313 314 318 327 331 331 331
314 315 315 316 314 311 311 310 314 311 308 308 308 306 305 303 303 303 302 301 299 299 300 301 302 303 304 304 305 305 305 305 306 306 308 309 310 311 312 313 313 313 314 314 314 316 330 332 331
312 311 311 313 312 312 310 313 312 312 309 306 305 306 304 303 303 302 301 300 299 299 300 301 302 303 303 302 302 303 304 304 305 305 305 307 309 311 312 313 314 313 314 314 315 315 320 330 330
311 309 311 311 316 315 312 311 314 314 309 309 306 304 303 302 301 301 301 299 297 297 297 297 298 299 299 299 299 300 301 302 302 303 305 305 306 308 309 311 312 313 314 316 317 317 316 327 330
307 307 307 312 312 313 313 308 313 314 311 310 307 304 301 299 298 297 297 296 295 295 298 298 297 296 296 296 297 297 299 300 300 301 302 303 305 307 309 310 313 315 316 317 317 318 318 321 328
307 307 308 311 310 308 307 307 313 311 311 308 302 300 299 298 298 297 295 295 295 295 296 294 293 292 292 293 294 295 296 297 298 299 301 302 304 306 308 311 312 315 317 318 318 318 320 318 327

GFSSGP_850_thetae_123.txt.gz
Theta_e
313 316 319 319 314 310 315 316 315 315 317 319 319 318 318 324 329 327 341 338 338 339 336 337 337 337 335 334 332 331 331 332 331 334 337 339 338 336 332 329 328 327 328 328 328 328 329 330 331
314 317 320 317 313 314 315 314 317 315 317 318 319 321 323 332 336 339 334 333 333 340 341 338 337 337 335 334 334 333 332 332 330 332 336 338 339 338 334 330 329 328 328 329 328 328 328 328 327
318 318 318 310 309 315 315 316 316 319 320 317 318 320 326 326 333 335 332 329 327 333 338 341 338 337 336 335 335 335 334 331 329 332 336 337 339 339 336 331 329 329 329 329 329 329 329 329 330
319 318 315 313 316 315 316 317 317 315 319 319 318 319 325 327 330 330 329 326 323 328 339 344 342 339 336 335 335 335 334 331 329 332 335 337 339 340 338 333 329 329 330 329 330 330 330 330 331
318 317 312 314 314 315 315 318 318 316 319 320 319 320 327 328 331 330 325 323 327 329 336 345 345 342 338 335 336 334 333 331 330 331 334 337 338 340 339 335 331 329 330 331 331 330 329 328 328
316 314 313 315 315 316 316 319 318 317 320 321 321 321 324 329 329 326 323 323 324 327 334 343 346 346 343 338 337 336 333 331 330 332 334 336 338 340 339 336 332 330 330 330 330 330 330 328 328
312 310 313 314 315 316 318 319 316 316 317 320 320 320 322 322 322 322 322 322 323 323 326 338 343 345 343 341 339 337 334 332 331 332 333 334 337 339 339 337 333 331 330 329 329 330 330 329 328
314 308 313 311 314 316 316 317 318 318 316 318 319 319 321 322 321 321 321 321 321 322 324 331 339 341 345 340 339 338 335 333 331 330 330 332 334 338 338 337 334 332 331 331 330 330 330 329 329
311 307 310 312 314 315 316 314 317 317 317 318 318 318 319 321 320 320 320 320 321 324 328 331 337 338 342 345 340 338 337 334 332 332 331 333 335 336 337 336 335 333 333 332 331 331 331 330 329
309 306 309 310 313 313 314 314 315 316 316 317 317 318 317 317 319 319 319 320 320 322 326 329 333 335 342 344 345 341 338 335 332 332 333 335 336 336 336 335 335 334 333 333 333 332 331 330 330
310 308 308 312 314 315 313 313 315 314 313 316 317 317 317 316 316 316 318 318 318 319 322 319 319 324 335 343 344 344 341 336 334 333 332 333 335 335 335 336 335 334 334 334 334 334 333 331 330
311 311 312 313 315 313 312 314 313 315 316 316 316 316 316 316 316 315 315 316 317 317 317 317 318 323 337 344 344 344 342 337 335 334 333 332 332 334 333 333 334 335 334 334 334 334 333 332 331
311 312 313 313 313 313 314 312 313 314 317 317 316 316 317 317 317 316 316 315 316 316 316 316 317 323 330 337 341 344 341 338 336 335 334 333 332 332 332 331 331 333 335 335 334 334 334 333 332
312 312 312 313 314 314 313 312 313 315 316 316 317 317 316 317 317 317 317 315 315 315 316 316 320 325 333 336 337 338 338 338 337 336 335 334 333 332 332 331 331 331 332 334 335 335 335 334 333
313 312 311 312 315 313 313 313 313 315 316 315 315 315 315 316 317 317 317 315 315 316 316 317 326 332 334 335 335 337 336 334 331 337 337 335 335 334 334 333 333 332 332 333 335 336 336 336 335
311 311 313 312 313 314 314 314 313 315 315 314 314 315 314 316 317 317 315 314 317 317 320 325 336 337 338 335 336 338 336 336 335 334 337 338 337 338 337 336 336 335 334 333 333 335 336 336 337
310 312 311 312 312 312 312 313 313 314 314 313 313 314 313 314 314 314 314 318 319 320 324 329 328 330 331 328 329 333 334 332 330 330 331 333 333 332 327 336 333 333 335 335 333 333 335 336 336
312 311 310 313 311 311 312 312 311 312 311 311 311 314 313 313 317 320 321 321 321 320 320 320 320 319 318 318 318 318 319 324 329 328 326 328 328 329 331 330 328 327 324 334 335 334 334 334 334
310 311 311 310 310 311 311 311 311 309 311 311 312 312 316 318 318 318 316 316 316 318 318 318 317 317 316 315 314 313 313 314 315 317 319 321 324 323 327 332 329 326 325 329 331 331 333 334 333
309 310 310 310 311 311 310 311 309 309 310 312 312 313 317 318 317 315 314 314 313 312 312 312 312 312 312 312 312 312 312 312 312 312 312 313 315 317 321 324 329 328 326 326 324 333 328 332 330
310 311 311 312 311 311 310 312 310 311 312 313 315 315 316 312 310 308 308 309 310 309 308 308 307 307 308 309 309 309 310 310 310 310 311 311 311 311 312 314 317 321 324 330 330 330 329 331 332
311 310 311 313 313 315 310 315 313 310 312 311 309 307 307 307 306 305 305 306 306 305 305 304 303 303 304 305 305 306 306 306 306 307 307 308 309 310 310 311 311 314 318 322 327 330 331 330 327
313 313 313 313 312 310 311 311 310 314 315 309 307 306 305 305 304 303 302 302 301 301 301 301 302 302 303 303 303 303 304 304 304 304 305 305 305 307 309 310 311 311 312 313 316 322 329 332 328
313 313 312 309 309 315 312 310 309 314 314 309 306 305 304 303 302 302 301 301 301 300 300 300 301 301 302 303 303 304 304 305 305 305 306 306 306 306 307 309 310 310 311 311 312 313 320 326 332
311 313 318 314 311 312 311 310 311 312 310 307 305 304 305 304 305 306 303 303 302 301 301 301 301 302 302 302 302 303 304 305 305 306 306 307 307 308 308 309 310 310 310 311 312 312 313 316 327
312 312 313 316 314 310 309 310 311 311 308 306 306 305 305 304 304 304 304 306 305 304 302 301 301 301 300 302 303 302 302 303 303 304 305 305 306 307 308 309 311 312 312 312 312 312 312 313 314
312 313 311 312 310 312 309 311 311 310 308 307 307 306 305 304 304 302 301 301 301 300 301 301 301 300 299 300 299 299 299 300 301 302 303 303 304 304 306 308 310 311 313 314 314 313 313 313 314
310 309 310 309 314 315 310 310 309 313 310 308 309 307 305 302 300 299 298 298 296 296 295 296 295 294 294 294 295 296 295 296 298 298 300 300 301 301 302 307 309 309 310 311 312 313 313 314 314
306 307 308 310 309 312 312 309 310 312 311 310 308 305 303 299 298 297 296 294 294 294 294 294 293 294 295 294 293 292 293 294 295 296 295 296 298 299 302 304 307 309 310 311 311 310 312 315 316
306 306 307 309 310 308 307 307 308 310 309 309 306 301 299 298 296 296 296 296 296 295 295 294 294 294 293 291 292 292 292 293 291 292 293 295 297 298 300 302 304 306 308 310 311 311 314 315 316

GFSSGP_850_thetae_126.txt.gz
Theta_e
314 316 319 319 314 309 314 317 313 315 315 316 317 317 319 324 334 328 343 340 338 337 341 337 336 336 335 335 336 335 335 334 334 336 336 336 334 333 328 325 327 327 328 329 330 330 330 330 334
315 317 319 317 312 314 313 314 316 314 318 319 318 320 327 332 335 338 336 334 334 337 337 335 336 336 335 335 335 335 335 334 334 335 337 337 337 335 331 325 327 327 328 329 330 329 328 328 329
318 318 318 309 308 314 314 315 315 317 318 317 317 323 325 328 336 336 333 330 326 329 339 338 337 338 337 336 335 335 335 335 333 334 336 337 338 337 334 328 326 327 327 328 328 328 328 327 327
318 318 314 313 316 315 314 315 316 315 318 318 317 320 325 327 330 332 330 325 323 329 338 341 339 338 338 336 336 336 336 335 333 333 335 336 338 338 337 331 325 326 327 328 328 328 329 329 329
318 316 311 313 314 313 313 316 317 315 318 319 319 320 326 329 329 329 326 324 324 327 336 342 342 340 339 337 337 336 335 335 332 333 335 336 337 338 338 334 328 326 327 328 329 329 329 329 329
316 314 313 314 314 314 314 317 316 315 317 318 319 320 323 330 329 325 323 323 323 324 331 341 345 344 341 338 336 337 336 334 331 332 335 336 336 338 339 336 331 327 327 328 329 329 329 329 328
312 310 313 313 314 314 316 317 315 315 315 317 319 320 321 324 323 322 322 322 322 323 326 334 341 345 345 343 339 338 337 335 332 332 334 336 336 338 339 337 334 330 327 327 328 328 329 329 328
314 307 312 311 313 315 315 316 316 316 315 317 318 317 319 320 320 320 321 321 321 322 324 332 337 339 341 343 341 340 339 335 333 332 334 336 337 337 339 338 335 332 330 328 328 328 329 329 328
311 308 310 313 311 314 314 312 315 315 316 316 317 317 317 318 319 320 320 321 322 324 325 328 333 337 339 341 342 339 339 338 334 333 334 336 337 337 337 339 337 334 332 331 330 329 329 330 329
308 306 310 309 311 313 313 312 314 314 315 316 317 317 316 316 316 316 317 319 320 322 324 325 329 330 328 337 342 344 340 339 336 334 335 336 337 338 336 338 338 336 334 333 332 332 331 331 330
308 307 308 311 312 313 312 312 314 314 313 315 316 317 317 317 316 316 315 316 316 317 318 320 321 320 325 328 339 343 344 342 338 335 335 337 338 338 337 337 338 338 336 334 334 334 333 331 330
310 310 310 312 313 312 311 312 313 314 315 316 315 316 316 316 316 316 316 316 315 316 316 317 318 318 318 326 336 343 343 343 341 337 335 337 337 337 338 337 338 338 337 336 334 335 334 333 332
311 311 312 313 313 313 314 311 311 313 315 315 315 314 314 314 315 316 316 315 315 315 315 315 316 316 317 328 339 339 339 338 340 338 336 335 335 335 336 338 338 338 338 337 336 335 335 335 334
311 311 311 313 314 314 312 311 313 315 314 314 314 314 314 314 314 315 316 316 315 315 315 315 315 315 318 334 332 334 336 337 338 338 336 336 336 335 335 336 337 337 334 333 333 334 335 335 335
312 311 310 312 313 312 312 312 312 314 314 313 313 313 313 313 313 314 314 312 315 315 316 316 315 315 318 341 343 333 332 335 336 335 336 335 335 335 334 335 334 333 332 332 331 332 333 333 335
312 309 312 312 311 312 312 312 312 314 313 312 313 313 313 313 314 314 314 315 321 324 325 327 330 331 333 337 337 336 336 335 335 334 331 329 325 326 328 331 335 334 333 333 334 333 333 333 333
309 313 311 310 311 310 311 312 311 313 311 312 312 313 312 313 315 319 321 322 323 323 323 324 326 329 330 330 330 332 333 332 331 330 330 330 329 329 330 330 329 328 333 331 334 335 335 333 332
312 311 309 309 310 310 309 310 310 312 311 312 312 312 312 315 314 316 318 317 316 317 317 317 318 319 319 319 318 318 320 321 322 324 324 325 326 328 330 331 331 331 330 330 329 330 330 334 334
309 310 310 308 308 309 310 310 309 310 311 310 311 310 313 312 311 313 312 312 313 313 314 314 313 314 314 314 314 313 312 312 313 313 314 314 316 321 326 326 328 329 329 329 330 329 328 325 332
309 309 309 308 309 310 309 310 309 307 309 310 312 313 310 308 308 307 308 308 309 309 309 310 310 309 309 309 309 309 310 310 310 310 310 311 311 311 313 315 318 323 328 329 328 327 327 325 327
309 309 309 310 309 310 309 311 310 309 309 307 306 305 306 305 305 304 305 304 304 304 303 302 303 305 305 305 306 305 305 306 306 307 307 308 309 310 310 310 311 313 319 324 329 329 326 325 325
310 309 310 310 312 314 310 313 310 311 308 306 304 304 304 304 304 303 302 301 300 300 300 300 301 301 301 302 302 303 303 303 304 304 304 304 304 305 306 308 309 310 310 313 317 326 326 326 326
310 311 311 312 312 310 310 310 310 312 309 306 304 303 302 303 303 301 301 304 304 305 304 302 301 301 301 301 301 302 302 303 303 304 304 304 305 305 305 305 306 307 309 310 311 315 322 327 325
312 313 312 308 309 314 312 311 308 312 311 306 304 304 304 306 307 307 306 306 305 306 306 304 303 302 301 301 301 302 302 303 303 303 304 304 305 305 305 306 306 306 308 309 310 310 311 314 319
311 312 313 312 311 315 308 309 310 311 310 306 305 304 306 308 309 309 308 308 305 305 307 307 303 303 302 301 302 302 302 302 301 301 302 304 304 305 306 306 307 307 307 309 309 310 310 311 312
310 311 313 316 313 310 308 310 308 310 308 306 306 306 305 306 305 305 305 303 302 301 301 302 304 303 301 301 302 301 300 301 300 298 298 300 301 304 305 305 306 308 308 308 310 311 311 311 311
311 312 310 312 309 312 310 308 310 310 308 306 306 306 305 304 304 303 301 300 298 298 299 299 300 300 299 299 299 298 298 297 294 295 295 294 296 298 300 302 303 306 308 309 309 309 311 312 312
309 308 310 308 314 314 310 308 309 310 310 309 307 306 306 304 302 300 299 297 296 297 297 297 296 297 296 296 294 294 292 291 289 290 291 292 293 295 296 297 298 302 307 309 309 308 308 310 314
307 309 308 310 309 312 311 309 306 310 309 309 307 308 306 302 300 297 296 295 295 295 295 295 295 295 294 294 293 292 292 293 289 288 291 291 292 294 295 295 296 297 300 305 307 308 306 307 309
306 309 310 312 310 309 307 309 307 308 308 309 308 305 303 299 296 295 295 294 294 294 295 295 294 295 293 293 292 292 291 288 288 288 290 291 292 292 292 292 294 295 297 298 300 304 306 307 309

GFSSGP_850_thetae_129.txt.gz
Theta_e
314 316 318 318 321 319 320 320 316 320 319 317 317 319 328 328 335 334 343 339 339 337 339 335 335 336 336 335 335 335 335 335 334 332 331 331 331 330 325 323 327 327 327 328 330 331 332 332 334
316 317 319 317 322 322 321 317 320 319 319 317 319 320 329 333 335 339 336 334 336 336 340 337 335 336 336 335 335 336 335 336 337 336 335 334 333 332 330 323 325 326 326 327 328 328 329 329 331
318 318 318 318 317 322 320 318 319 317 315 316 317 323 326 331 337 336 334 328 328 333 338 338 337 336 336 336 336 336 336 335 335 336 337 336 335 334 333 326 324 326 326 326 327 327 327 328 328
318 318 315 320 321 318 318 319 317 318 319 318 317 323 326 327 332 334 331 326 325 331 337 338 338 337 337 337 337 337 337 336 335 335 336 337 336 336 335 330 324 325 326 326 327 327 327 328 328
318 317 319 318 318 317 317 317 316 318 317 318 318 322 326 333 333 332 327 326 327 329 335 340 340 339 338 338 337 337 337 337 335 334 335 336 337 336 336 334 327 324 325 326 327 327 328 328 328
317 315 320 320 318 317 317 316 316 316 317 317 319 320 322 330 329 326 324 324 324 326 332 338 342 341 340 339 338 337 337 336 336 334 334 335 336 336 336 336 332 326 326 326 328 328 328 328 327
316 318 319 317 318 318 318 316 315 316 317 317 317 320 319 320 322 323 323 323 322 323 324 329 341 344 343 341 339 338 338 337 336 333 333 334 335 336 336 336 334 330 328 328 328 329 329 328 327
314 315 316 315 317 319 315 315 314 315 317 316 317 318 318 317 317 319 320 320 321 322 322 326 332 341 344 344 343 340 338 338 337 334 333 335 335 335 335 335 335 333 330 330 330 329 329 329 328
311 317 318 317 315 316 313 315 314 315 315 316 316 316 317 316 316 316 317 317 318 320 321 325 330 333 337 340 342 342 340 339 338 335 334 336 335 335 335 335 335 334 333 331 332 332 330 330 329
312 316 317 313 313 314 314 314 314 315 316 316 316 316 316 316 317 316 316 316 316 317 319 320 324 330 335 333 340 341 342 339 339 336 335 335 337 336 335 335 336 335 334 333 333 333 333 332 331
308 315 310 311 312 312 313 314 314 315 316 316 315 315 315 315 314 314 316 316 316 315 315 316 319 324 324 325 333 340 342 342 342 339 336 336 337 338 337 336 336 336 335 334 334 334 334 333 331
313 311 310 312 312 312 313 313 314 313 315 314 314 313 314 313 313 314 315 316 316 315 314 316 319 318 318 319 325 333 335 339 342 342 340 336 337 338 339 338 336 336 337 336 335 334 334 334 332
313 312 312 312 313 313 312 313 314 314 313 313 313 313 312 313 313 314 314 315 316 314 314 314 316 322 318 316 320 330 338 339 338 341 340 338 335 337 337 338 337 336 337 338 338 336 334 333 333
311 312 312 312 314 313 314 313 311 313 313 313 313 312 311 313 314 314 314 314 315 315 314 315 316 316 316 318 323 338 338 332 336 339 339 338 336 335 335 336 337 336 335 334 335 336 336 335 334
312 314 314 314 313 313 311 314 314 313 312 312 313 310 312 314 315 316 316 315 316 317 318 318 318 320 320 328 335 339 340 335 334 337 335 337 337 336 335 334 334 334 335 332 332 332 333 336 335
314 312 317 314 312 311 313 313 314 313 312 312 312 309 312 315 317 318 319 320 322 322 324 323 324 326 327 330 333 337 337 335 335 335 334 334 334 333 332 332 331 329 332 333 332 333 333 333 335
312 317 314 313 311 312 312 313 313 312 311 312 312 311 311 312 314 314 315 316 317 318 319 321 322 325 326 328 329 329 330 330 330 330 330 331 331 331 331 331 329 330 327 325 327 330 330 334 334
314 314 312 312 312 312 311 313 312 312 312 310 310 312 310 307 307 309 310 311 312 312 313 314 315 315 316 316 319 320 320 322 323 324 323 323 324 325 325 327 328 328 330 330 326 327 325 330 335
311 312 312 311 310 310 312 312 312 313 311 312 313 311 307 305 306 307 307 307 308 308 309 309 309 310 310 312 311 312 312 312 312 312 313 313 313 315 317 318 322 327 328 329 330 329 327 326 330
312 313 312 311 310 312 312 313 313 311 309 309 311 308 306 305 306 306 306 305 305 303 303 303 303 304 304 304 305 307 307 308 309 309 309 309 309 309 310 311 313 316 319 324 327 328 328 328 328
311 312 312 311 311 312 313 314 312 310 308 307 306 305 304 304 304 304 303 303 303 303 304 302 301 301 301 301 301 302 302 303 304 304 305 305 305 305 306 307 309 310 311 314 319 324 328 328 328
312 311 311 311 313 316 312 314 312 312 309 307 306 305 304 303 304 304 304 305 305 306 307 306 306 305 303 302 301 301 301 301 302 302 302 303 304 304 304 305 305 306 308 309 311 315 319 324 326
312 311 312 313 314 313 313 314 312 312 311 308 305 304 304 303 303 304 305 305 305 305 305 306 307 306 304 303 303 302 301 301 302 302 302 302 302 303 304 304 304 305 305 306 308 309 311 315 321
311 313 313 310 312 316 314 314 313 315 314 309 306 305 305 305 306 306 307 306 307 306 305 305 306 305 305 302 301 301 301 301 302 302 302 303 303 303 303 304 304 305 305 305 306 307 309 310 313
312 314 315 316 316 316 311 314 314 313 311 310 308 306 306 305 305 306 306 306 304 302 302 301 300 301 300 301 299 298 298 299 299 300 301 301 302 303 303 304 304 304 305 305 306 306 307 309 309
313 314 315 317 316 313 309 313 313 312 309 308 307 306 306 305 305 304 305 304 300 299 300 300 300 300 300 299 298 297 297 297 297 297 298 298 299 299 301 303 303 303 304 304 304 305 306 308 309
312 314 312 315 311 314 313 312 311 311 309 308 307 307 306 304 302 303 302 300 299 299 299 298 298 298 298 298 297 297 295 296 296 295 294 295 296 296 297 298 298 299 301 301 301 302 302 304 308
312 311 314 314 316 314 312 312 312 312 312 309 308 308 307 304 303 301 300 299 297 297 297 297 297 297 296 296 295 294 294 293 292 290 291 292 293 294 295 296 298 299 298 298 298 299 301 302 304
311 312 311 313 312 316 314 312 311 312 312 311 309 308 307 302 303 300 297 297 297 296 296 296 295 295 296 295 294 294 293 292 292 291 292 292 292 292 292 293 295 295 297 298 297 298 299 299 301
308 311 312 315 313 313 312 313 311 311 311 310 310 307 303 302 301 298 297 296 296 296 295 295 295 295 295 294 293 293 292 292 291 290 290 289 290 290 290 290 289 290 291 292 293 295 297 299 299

GFSSGP_850_thetae_135.txt.gz
Theta_e
318 320 322 323 327 328 329 328 327 327 326 325 326 325 331 336 342 347 346 348 349 348 345 338 339 337 337 334 332 333 331 329 329 329 327 327 325 324 327 330 330 329 328 330 331 330 330 331 330
320 321 322 324 327 330 329 327 326 326 325 323 323 324 331 338 341 343 345 345 349 350 350 338 337 338 338 336 334 333 332 331 330 329 329 329 328 327 325 326 329 329 327 328 330 330 330 330 330
319 320 323 328 329 329 330 327 326 324 322 322 324 327 331 338 342 344 342 342 346 347 350 347 336 338 339 338 336 334 334 334 333 332 331 331 331 329 328 325 326 327 327 327 329 330 331 331 329
321 324 324 326 329 328 328 326 325 325 324 323 324 329 334 336 341 342 340 340 342 346 350 341 337 338 338 339 339 337 335 336 336 335 334 334 333 332 331 328 325 325 326 327 328 330 330 330 329
321 324 328 329 328 327 326 325 325 325 324 324 324 327 332 330 332 334 336 338 341 344 349 338 339 339 339 339 339 339 338 336 335 335 336 336 336 334 333 331 328 326 326 326 327 329 329 329 329
323 325 328 329 329 326 325 324 324 324 324 323 325 327 326 324 325 327 333 336 338 342 346 339 338 339 340 340 340 339 339 338 337 336 335 335 336 336 335 334 331 328 326 326 326 327 328 328 328
325 328 328 329 328 327 326 324 324 324 324 323 322 326 324 322 322 322 329 333 336 339 341 345 340 336 340 340 340 340 340 339 339 338 337 335 334 336 336 335 333 330 329 326 326 327 326 328 328
323 327 327 327 328 328 324 323 322 323 323 322 322 325 325 322 321 322 322 328 331 332 339 342 347 346 339 342 342 342 341 339 339 339 339 337 335 334 335 335 334 332 332 330 328 327 328 329 328
321 324 326 328 328 327 322 324 323 322 322 322 322 322 321 320 320 321 321 322 323 325 333 338 344 348 349 349 345 339 341 342 341 339 339 338 336 335 334 334 334 333 333 333 330 328 328 329 330
320 323 325 325 324 325 323 323 323 323 323 322 322 321 320 319 320 321 321 320 321 322 323 329 341 345 346 346 348 346 346 343 342 341 341 340 338 341 342 342 338 334 334 333 333 331 331 330 331
320 320 322 322 320 321 321 320 320 321 323 322 321 320 318 321 322 322 321 324 324 322 327 326 339 344 344 342 342 342 341 345 345 347 345 345 343 344 343 342 341 341 335 334 334 334 332 331 330
319 319 319 319 318 318 320 320 320 320 321 319 318 317 320 321 321 321 321 322 322 323 323 321 320 325 338 341 342 343 343 339 342 345 343 342 342 342 341 340 342 339 340 338 339 339 337 333 337
319 319 319 318 318 318 319 319 320 320 319 317 318 319 320 320 320 320 320 320 320 319 316 317 316 317 329 333 340 341 338 339 342 343 344 340 343 341 341 340 339 340 340 339 340 340 340 339 338
319 319 318 318 319 319 320 320 319 320 318 318 318 319 320 319 318 318 318 317 318 317 316 318 320 321 321 327 329 331 333 335 338 338 339 342 341 337 337 339 339 339 340 339 339 339 339 339 339
317 318 319 319 320 320 318 319 320 319 318 318 318 319 319 317 317 316 315 315 314 314 313 318 319 322 324 326 330 332 334 334 336 335 337 338 338 340 340 340 339 339 339 339 339 339 340 338 338
319 319 320 320 319 318 317 319 320 318 318 318 318 319 318 316 315 314 313 313 313 312 312 315 317 319 323 325 325 328 330 331 333 333 334 335 335 336 338 338 335 333 334 336 336 332 325 334 335
321 321 321 321 319 319 318 318 320 319 317 317 317 318 318 316 314 313 312 312 311 311 311 313 314 314 316 319 322 320 321 321 322 323 327 329 329 330 331 330 328 329 331 333 334 332 333 333 332
320 321 321 320 320 318 318 318 318 316 316 317 317 318 317 315 313 312 312 311 310 309 308 308 309 310 310 310 311 313 314 315 314 314 319 321 321 321 321 320 322 323 324 325 327 330 331 332 332
319 319 318 318 319 318 318 318 317 317 317 317 317 318 317 314 311 310 310 310 310 309 308 307 306 306 305 306 306 307 308 310 309 309 308 308 309 310 310 311 311 312 314 316 316 321 325 329 330
318 318 318 319 318 316 317 317 318 318 318 318 318 319 316 313 311 310 310 310 308 307 307 307 307 307 307 306 305 306 306 306 307 306 305 305 304 305 305 306 307 308 309 310 313 317 320 320 324
317 317 318 317 317 317 316 317 318 319 317 317 317 317 316 315 313 311 310 309 308 307 306 306 306 306 307 307 306 306 306 306 306 305 305 303 303 302 302 302 303 304 305 308 310 312 314 317 319
315 316 316 315 316 316 319 320 318 319 318 317 316 316 315 315 314 312 311 310 308 307 306 304 303 302 301 302 303 303 304 304 303 303 303 303 303 302 302 302 302 301 302 303 305 308 309 311 314
315 315 315 315 316 317 317 317 318 318 318 318 317 316 315 314 313 312 311 310 306 305 304 303 302 301 301 300 301 301 301 301 301 301 300 301 301 301 301 301 301 301 301 301 302 302 303 304 306
314 315 316 317 317 318 317 317 317 318 318 317 316 316 315 314 313 312 310 308 305 303 303 302 302 301 300 300 300 300 299 299 299 298 298 298 298 298 298 298 298 299 300 300 301 301 301 302 303
315 315 316 316 318 319 318 317 317 317 317 316 317 316 315 314 313 312 311 308 304 303 302 301 300 300 300 300 299 299 298 297 296 295 294 294 294 294 293 294 294 296 295 296 297 299 300 301 300
316 315 317 316 317 316 316 317 317 316 317 316 315 315 315 314 314 311 309 306 303 302 301 300 299 298 299 299 298 298 297 295 294 293 292 292 291 291 291 291 291 292 292 292 294 295 296 297 297
313 315 315 315 316 316 315 315 315 318 317 316 316 315 315 315 312 311 307 304 302 301 300 299 298 298 298 298 297 296 294 294 292 291 291 290 289 289 290 290 290 290 290 290 291 292 294 295 297
314 313 314 317 318 315 314 314 315 318 317 317 316 315 315 315 310 309 306 303 302 300 299 298 297 297 296 296 295 295 295 294 292 291 291 291 289 288 289 289 289 289 289 289 289 290 291 291 293
311 314 313 314 313 315 315 315 315 316 316 317 316 315 315 314 309 308 305 302 301 299 298 297 296 297 297 295 295 295 295 294 294 293 291 291 289 287 287 287 288 288 288 288 288 289 290 289 291
313 314 314 317 315 315 317 319 315 315 315 314 314 315 314 314 311 307 304 302 300 299 298 297 296 295 296 295 293 293 293 293 293 292 291 291 290 289 287 287 287 286 286 286 286 287 287 287 287